     2              OBSERVATION DATA    GPS                 RINEX VERSION / TYPE
teqc 2000Feb29 20030428 17:00:31UTC                         PGM / RUN BY / DATE
                                                            COMMENT
L2: 1 -> 1; 150 -> 5; 250 -> 9                              COMMENT
L2: 1 -> 1; 150 -> 5; 250 -> 9                              COMMENT
L2: 1 -> 1; 150 -> 5; 250 -> 9                              COMMENT
L2: 1 -> 1; 150 -> 5; 250 -> 9                              COMMENT
L2: 1 -> 1; 150 -> 5; 250 -> 9                              COMMENT
Original Marker Name: F17G                                  COMMENT
Campaign Name: Rose Canyon                                  COMMENT
4-Character Station Name: F17G                              COMMENT
6-Character Antenna Code: DMRCHT                            COMMENT
Vertical Measurement Point: BCR                             COMMENT
Vertical Offset to Rinex Ref. Point: 0.0348                 COMMENT
Radial Measurement Point: ECF                               COMMENT
Radial Offset to Rinex Ref. Point: 0.1897                   COMMENT
Antenna Height from Field Measurement: 0.8900 m             COMMENT
Additional Antenna Identification Info.:                    COMMENT
Turborogue and Ashtech Choke Ring                           COMMENT
Original XYZ: -2460290.8058 -4776078.1045 3426023.4141      COMMENT
New XYZ position is based on association with SCEC monument COMMENT
E1C8O6L7+0011. Position of that monument is believed to be  COMMENT
valid to within 1 m horizontally; vertical accuracy         COMMENT
should be no worse than 3-times this value.                 COMMENT
                                                            COMMENT
Revised Rinex header created by UCSD GPS archive for        COMMENT
GSAC on 11-Jul-2003 (2003:192) 15:58:18 GMT                 COMMENT
For assistance contact dagnew@ucsd.edu                      COMMENT
or anderson@python.ucsd.edu                                 COMMENT
                                                            COMMENT
UCSD IGPP SIO F17G 1999                                     MARKER NAME
SJB SCRIPPS INSTITUTION OF OCEANOGRAPHY                     OBSERVER / AGENCY
389 ASHTECH Z-XII3 CC00                                     REC # / TYPE / VERS
738 DORNE-MARGOL. TYPE T                                    ANT # / TYPE
 -2460122.5685 -4775893.4948  3426394.9387                  APPROX POSITION XYZ
        0.8347        0.0000        0.0000                  ANTENNA: DELTA H/E/N
     1     1     0                                          WAVELENGTH FACT L1/2
     7    C1    L1    L2    P1    P2    S1    S2            # / TYPES OF OBSERV
     0                                                      INTERVAL
  2003     4    15    16    22    0.000000                  TIME OF FIRST OBS
  2003     4    15    23    59   30.000000                  TIME OF LAST OBS
                                                            END OF HEADER
 03  4 15 16 22  0.0000000  0  3G10G 9G30
                    -92878.88849    -56387.81543
       209.000          74.000
  26843750.123      158886.69349    110828.09547  26843750.178    26843756.844
       235.000         193.000
  27798193.053     -235023.81349   -167404.68345  27798194.001    27798199.968
       218.000         156.000
 03  4 15 16 22 30.0000000  0  6G10G24G 9G 5G 4G30
                   -199762.51949   -139674.21943                  23903331.467
       212.000          74.000
  20620781.605       28698.85749     20634.18248  20620781.700    20620788.266
       245.000         214.000
  22358866.382      221964.32349    159979.44647  22358866.669    22358873.335
       235.000         194.000
  21138401.425     -200633.68849   -140483.69847  21138401.049    21138406.967
       239.000         205.000
  22044237.854      229217.87849    162186.06047  22044238.082    22044244.368
       234.000         192.000
  23281654.128     -338292.89849   -247874.07945  23281656.215    23281661.841
       217.000         162.000
 03  4 15 16 23  0.0000000  0  6G10G24G 9G 5G 4G30
  23680904.360    -1368589.10949  -1050447.97645  23680903.442    23680913.733
       213.000         148.000
  20420623.929    -1023137.96949   -798978.92748  20420624.096    20420630.372
       245.000         215.000
  22168832.618     -776670.03349   -618177.24947  22168832.696    22168839.604
       234.000         193.000
  20924505.217    -1324662.36049  -1016350.19047  20924505.186    20924511.360
       239.000         206.000
  21856029.693     -759821.92549   -608494.32647  21856030.385    21856036.562
       234.000         191.000
  23059934.129    -1503439.68149  -1155780.61946  23059935.349    23059942.366
       218.000         164.000
 03  4 15 16 23 30.0000000  0  6G10G24G 9G 5G 4G30
  23662061.002    -1467607.96849  -1127605.38745  23662060.556    23662070.925
       213.000         155.000
  20424129.681    -1004715.05649   -784623.40948  20424130.079    20424136.449
       245.000         215.000
  22182433.800     -705194.59549   -562482.16047  22182434.370    22182440.619
       234.000         193.000
  20914245.242    -1378578.68349  -1058362.90447  20914245.299    20914251.494
       239.000         206.000
  21871448.854     -678795.23449   -545356.68347  21871449.790    21871455.354
       235.000         192.000
  23041804.635    -1598712.82549  -1230019.40546  23041805.850    23041812.071
       216.000         164.000
 03  4 15 16 24  0.0000000  0  6G10G24G 9G 5G 4G30
  23643226.667    -1566582.47349  -1204728.22945  23643226.335    23643236.803
       210.000         157.000
  20427729.565     -985797.54349   -769882.48948  20427729.687    20427736.673
       245.000         216.000
  22196100.760     -633374.80249   -506518.72847  22196101.009    22196107.784
       234.000         193.000
  20904051.723    -1432146.29349  -1100103.89447  20904051.726    20904057.570
       239.000         206.000
  21886925.155     -597467.18149   -481984.19947  21886926.006    21886931.578
       236.000         192.000
  23023695.380    -1693876.67649  -1304173.02746  23023695.927    23023702.831
       216.000         164.000
 03  4 15 16 24 30.0000000  0  6G10G24G 9G 5G 4G30
  23624402.898    -1665501.29549  -1281807.67145  23624402.067    23624413.209
       212.000         157.000
  20431424.720     -966379.08649   -754751.22148  20431424.809    20431431.614
       245.000         216.000
  22209834.131     -561205.34349   -450282.84447  22209834.472    22209840.729
       233.000         192.000
  20893926.475    -1485354.95749  -1141565.18747  20893926.626    20893932.861
       240.000         206.000
  21902459.763     -515832.49849   -418372.76747  21902460.412    21902467.122
       235.000         193.000
  23005609.080    -1788920.98249  -1378233.49846  23005610.108    23005616.526
       218.000         165.000
 03  4 15 16 25  0.0000000  0  6G10G24G 9G 5G 4G30
  23605590.060    -1764363.30849  -1358842.84645  23605589.760    23605600.475
       214.000         156.000
  20435214.694     -946462.61449   -739231.89748  20435214.875    20435221.375
       245.000         215.000
  22223633.149     -488691.09649   -393778.29047  22223633.739    22223639.921
       232.000         191.000
  20883869.660    -1538204.41749  -1182746.58047  20883869.878    20883875.581
       240.000         206.000
  21918051.867     -433895.65049   -354525.88247  21918052.678    21918058.188
       235.000         192.000
  22987545.758    -1883845.45549  -1452200.59446  22987546.683    22987553.252
       217.000         165.000
 03  4 15 16 25 30.0000000  0  6G10G24G 9G 5G 4G30
  23586788.793    -1863165.00149  -1435831.05845  23586787.917    23586798.908
       216.000         155.000
  20439099.150     -926049.83649   -723325.83448  20439099.496    20439105.703
       245.000         215.000
  22237497.126     -415834.81149   -337007.22147  22237497.251    22237504.638
       231.000         190.000
  20873881.542    -1590692.63049  -1223646.49147  20873881.752    20873887.549
       240.000         207.000
  21933700.900     -351659.66949   -290445.92647  21933701.365    21933707.784
       234.000         192.000
  22969505.422    -1978648.05949  -1526072.73046  22969506.462    22969512.701
       220.000         165.000
 03  4 15 16 26  0.0000000  0  6G10G24G 9G 5G 4G30
  23567999.320    -1961903.44849  -1512769.99545  23567998.034    23568008.031
       214.000         155.000
  20443077.670     -905142.82149   -707034.64948  20443078.012    20443084.473
       246.000         215.000
  22251425.809     -342639.50849   -279971.96347  22251425.788    22251433.280
       232.000         191.000
  20863962.563    -1642817.43949  -1264263.22147  20863962.519    20863968.412
       241.000         207.000
  21949406.317     -269127.15049   -226134.88947  21949406.832    21949413.557
       234.000         191.000
  22951488.668    -2073326.71249  -1599848.28346  22951489.774    22951495.386
       219.000         166.000
 03  4 15 16 26 30.0000000  0  6G10G24G 9G 5G 4G30
  23549222.329    -2060576.70049  -1589658.10345  23549221.373    23549232.008
       214.000         156.000
  20447149.809     -883744.09049   -690360.31448  20447150.182    20447156.698
       246.000         215.000
  22265418.069     -269109.55249   -222675.94947  22265418.422    22265425.324
       232.000         191.000
  20854112.896    -1694578.25149  -1304596.31247  20854112.928    20854118.929
       240.000         207.000
  21965167.436     -186302.14249   -161595.94547  21965168.240    21965174.419
       234.000         192.000
  22933495.600    -2167880.78949  -1673526.76446  22933497.010    22933502.947
       219.000         166.000
 03  4 15 16 27  0.0000000  0  6G10G24G 9G 5G 4G30
  23530458.512    -2159181.07549  -1666492.53245  23530457.333    23530467.763
       211.000         157.000
  20451315.258     -861854.92649   -673303.81648  20451315.259    20451321.980
       245.000         215.000
  22279473.718     -195247.43549   -165121.10947  22279474.131    22279480.901
       233.000         191.000
  20844332.870    -1745972.51049  -1344643.78247  20844332.979    20844338.813
       241.000         208.000
  21980983.788     -103186.92549    -96830.87847  21980984.391    21980990.796
       235.000         192.000
  22915526.773    -2262307.28549  -1747105.85146  22915528.020    22915534.747
       220.000         166.000
 03  4 15 16 27 30.0000000  0  6G10G24G 9G 5G 4G30
  23511708.170    -2257714.17049  -1743271.42145  23511707.833    23511717.568
       214.000         157.000
  20455573.496     -839477.25349   -655866.66948  20455573.451    20455580.322
       245.000         215.000
  22293591.999     -121056.41449   -107309.97347  22293592.587    22293599.558
       234.000         191.000
  20834622.966    -1796998.78649  -1384404.51247  20834622.911    20834628.744
       241.000         208.000
  21996854.752      -19784.83949    -31842.25447  21996855.374    21996861.427
       235.000         192.000
  22897582.725    -2356604.84349  -1820584.44546  22897584.032    22897589.812
       222.000         167.000
 03  4 15 16 28  0.0000000  0  6G10G24G 9G 5G 4G30
  23492972.147    -2356172.74449  -1819992.22645  23492971.075    23492981.300
       215.000         158.000
  20459924.469     -816612.80049   -638050.21348  20459924.429    20459931.241
       245.000         214.000
  22307772.193      -46539.75349    -49245.10047  22307772.590    22307779.648
       232.000         190.000
  20824983.461    -1847655.12449  -1423876.97947  20824983.594    20824989.228
       241.000         208.000
  22012779.684       63901.30949     33367.70847  22012780.679    22012786.225
       233.000         190.000
  22879663.654    -2450771.49349  -1893961.02946  22879665.467    22879671.644
       222.000         168.000
 03  4 15 16 28 30.0000000  0  6G10G24G 9G 5G 4G30
  23474250.713    -2454554.17049  -1896652.91445  23474249.575    23474260.217
       215.000         160.000
  20464367.646     -793263.62249   -619856.04948  20464367.893    20464374.455
       245.000         214.000
  22322013.630       28299.38049      9071.04047  22322013.841    22322020.710
       232.000         190.000
  20815414.621    -1897940.03549  -1463060.02147  20815414.518    20815420.508
       241.000         208.000
  22028758.058      147868.44949     98796.63047  22028758.838    22028764.755
       232.000         188.000
  22861769.652    -2544805.48549  -1967234.25646  22861770.076    22861776.598
       222.000         168.000
 03  4 15 16 29  0.0000000  0  6G10G24G 9G 5G 4G30
  23455544.913    -2552853.16749  -1973249.40245  23455544.564    23455554.429
       218.000         160.000
  20468903.150     -769429.87649   -601284.30248  20468903.303    20468909.907
       245.000         215.000
  22336316.283      103459.63249     67637.41747  22336316.640    22336323.693
       232.000         190.000
  20805917.128    -1947849.59149  -1501950.58347  20805917.033    20805923.381
       240.000         209.000
  22044789.795      232115.41349    164443.59046  22044790.239    22044796.198
       232.000         187.000
  22843901.650    -2638702.74049  -2040400.92546  22843902.535    22843908.302
       221.000         168.000
 03  4 15 16 29 30.0000000  0  6G10G24G 9G 5G 4G30
  23436855.258    -2651067.93349  -2049780.24345  23436854.783    23436864.923
       216.000         158.000
  20473530.324     -745114.15349   -582336.97948  20473530.780    20473537.186
       246.000         215.000
  22350679.147      178936.89649    126450.80947  22350679.577    22350686.582
       232.000         190.000
  20796491.197    -1997383.02949  -1540548.05847  20796490.989    20796497.018
       241.000         209.000
  22060873.924      316638.46049    230305.70346  22060874.464    22060880.689
       231.000         187.000
  22826059.729    -2732462.52949  -2113460.46646  22826060.597    22826066.900
       222.000         169.000
 03  4 15 16 30  0.0000000  0  6G10G24G 9G 5G 4G30
  23418182.206    -2749194.56149  -2126242.39745  23418181.880    23418190.875
       216.000         158.000
  20478248.999     -720317.51349   -563014.92148  20478249.273    20478255.569
       246.000         215.000
  22365102.002      254728.76249    185509.34547  22365101.842    22365109.421
       231.000         189.000
  20787137.404    -2046537.71949  -1578850.41847  20787137.524    20787143.306
       242.000         209.000
  22077010.210      401435.40949    296381.21346  22077010.644    22077016.792
       232.000         187.000
  22808244.730    -2826081.77149  -2186410.50946  22808245.130    22808251.417
       221.000         169.000
 03  4 15 16 30 30.0000000  0  6G10G24G 9G 5G 4G30
  23399526.498    -2847230.15049  -2202633.61045  23399525.735    23399535.937
       216.000         158.000
  20483058.785     -695042.04249   -543319.74648  20483058.873    20483065.295
       246.000         214.000
  22379583.886      330832.17149    244810.64347  22379583.976    22379590.865
       231.000         189.000
  20777856.022    -2095311.95449  -1616856.30347  20777855.920    20777861.951
       241.000         209.000
  22093198.207      486503.15749    362667.76046  22093199.107    22093204.807
       232.000         187.000
  22790456.636    -2919558.77049  -2259249.69046  22790457.575    22790462.772
       223.000         169.000
 03  4 15 16 31  0.0000000  0  7G 6G10G24G 9G 5G 4G30
  24834426.042    -2214315.85649  -1713113.18245  24834425.735    24834433.515
       204.000         134.000
  23380887.330    -2945178.37849  -2278956.76445  23380886.379    23380896.141
       217.000         158.000
  20487958.103     -669295.96349   -523257.87148  20487958.172    20487964.668
       244.000         214.000
  22394123.286      407237.03649    304346.84147  22394123.611    22394130.712
       231.000         188.000
  20768646.080    -2143710.58949  -1654569.52247  20768646.026    20768652.179
       241.000         209.000
  22109435.950      571832.22549    429157.91846  22109436.675    22109442.435
       231.000         186.000
  22772694.934    -3012897.99849  -2331981.52446  22772695.411    22772701.315
       223.000         170.000
 03  4 15 16 31 30.0000000  0  7G 6G10G24G 9G 5G 4G30
  24821392.708    -2282805.94849  -1766482.01745  24821394.026    24821401.060
       207.000         136.000
  23362267.126    -3043027.60949  -2355202.74845  23362266.000    23362276.267
       215.000         159.000
  20492948.131     -643072.74649   -502824.19748  20492948.217    20492954.764
       244.000         214.000
  22408721.124      483948.96049    364122.29347  22408721.615    22408727.731
       231.000         188.000
  20759509.620    -2191723.16149  -1691981.90947  20759509.730    20759515.489
       241.000         209.000
  22125724.348      657428.27349    495856.11746  22125725.089    22125731.138
       230.000         186.000
  22754961.273    -3106089.03949  -2404597.89146  22754962.627    22754968.520
       224.000         171.000
 03  4 15 16 32  0.0000000  0  7G 6G10G24G 9G 5G 4G30
  24808365.524    -2351264.54549  -1819826.33045  24808364.806    24808374.462
       208.000         138.000
  23343666.728    -3140773.44049  -2431368.18545  23343666.186    23343675.837
       217.000         160.000
  20498028.823     -616373.18249   -482019.34248  20498028.920    20498035.374
       245.000         213.000
  22423377.154      560965.99349    424135.50747  22423377.599    22423384.372
       232.000         188.000
  20750447.252    -2239346.63349  -1729091.10147  20750447.064    20750453.144
       243.000         209.000
  22142063.307      743289.77249    562761.15746  22142064.228    22142070.493
       233.000         186.000
  22737256.504    -3199128.47649  -2477096.13946  22737257.094    22737262.929
       223.000         171.000
 03  4 15 16 32 30.0000000  0  7G 6G10G24G 9G 5G 4G30
  24795343.664    -2419694.58349  -1873148.41145  24795343.351    24795351.839
       206.000         140.000
  23325086.242    -3238415.12649  -2507452.47445  23325085.230    23325094.879
       217.000         161.000
  20503199.454     -589201.42249   -460846.54148  20503199.740    20503205.987
       245.000         213.000
  22438090.007      638282.52649    484382.09447  22438090.723    22438097.657
       231.000         188.000
  20741458.711    -2286581.69449  -1765897.64347  20741458.627    20741464.736
       242.000         210.000
  22158451.918      829411.40349    629868.89746  22158453.162    22158458.632
       233.000         186.000
  22719580.412    -3292016.65749  -2549476.52146  22719581.211    22719586.780
       223.000         171.000
 03  4 15 16 33  0.0000000  0  7G 6G10G24G 9G 5G 4G30
  24782327.235    -2488095.51949  -1926447.78545  24782327.532    24782335.244
       209.000         141.000
  23306526.123    -3335948.60249  -2583452.45145  23306525.558    23306534.738
       217.000         161.000
  20508459.703     -561558.68349   -439306.75248  20508460.079    20508466.479
       245.000         214.000
  22452859.511      715896.48849    544860.43747  22452859.759    22452867.033
       231.000         188.000
  20732544.662    -2333425.44449  -1802399.26447  20732544.568    20732550.480
       241.000         210.000
  22174889.624      915791.00649    697177.66246  22174890.033    22174895.884
       232.000         186.000
  22701933.638    -3384750.55449  -2621736.67546  22701934.318    22701939.681
       224.000         172.000
 03  4 15 16 33 30.0000000  0  7G 6G10G24G 9G 5G 4G30
  24769316.459    -2556467.46049  -1979724.54845  24769315.999    24769324.480
       204.000         142.000
  23287987.182    -3433370.75149  -2659365.67745  23287986.482    23287996.595
       216.000         162.000
  20513809.231     -533446.78349   -417401.37548  20513809.455    20513816.276
       245.000         214.000
  22467685.010      793804.87549    605568.21046  22467685.665    22467691.874
       231.000         187.000
  20723705.434    -2379875.84349  -1838594.37747  20723705.247    20723711.238
       242.000         210.000
  22191375.761     1002426.34749    764685.69346  22191376.220    22191382.213
       233.000         186.000
  22684316.780    -3477327.99149  -2693874.90746  22684317.704    22684323.332
       225.000         173.000
 03  4 15 16 34  0.0000000  0  7G 6G10G24G 9G 5G 4G30
  24756311.127    -2624811.18249  -2032979.33045  24756311.992    24756319.390
       204.000         142.000
  23269469.899    -3530678.80649  -2735190.00446  23269469.561    23269479.526
       217.000         163.000
  20519247.767     -504867.44049   -395131.76248  20519248.050    20519254.988
       244.000         214.000
  22482565.975      872004.14849    666502.64446  22482566.673    22482573.405
       231.000         187.000
  20714941.310    -2425931.55849  -1874481.94547  20714940.995    20714947.393
       242.000         210.000
  22207909.921     1089314.02949    832390.37346  22207909.894    22207916.398
       231.000         186.000
  22666729.906    -3569747.14949  -2765889.82246  22666730.769    22666736.222
       224.000         174.000
 03  4 15 16 34 30.0000000  0  7G 6G10G24G 9G 5G 4G30
  24743311.194    -2693126.97149  -2086212.35245  24743312.361    24743318.986
       209.000         142.000
  23250975.031    -3627869.40749  -2810922.80946  23250974.255    23250984.097
       218.000         163.000
  20524774.827     -475823.00549   -372499.73548  20524775.294    20524781.716
       245.000         214.000
  22497501.766      950491.21949    727661.33346  22497502.363    22497509.894
       231.000         187.000
  20706252.725    -2471590.45949  -1910060.31047  20706252.740    20706258.666
       242.000         210.000
  22224491.510     1176451.31549    900289.53746  22224492.344    22224498.039
       231.000         186.000
  22649173.789    -3662005.70749  -2837779.58146  22649175.042    22649180.305
       225.000         175.000
 03  4 15 16 35  0.0000000  0  7G 6G10G24G 9G 5G 4G30
  24730316.511    -2761415.20349  -2139423.90645  24730316.178    24730324.275
       207.000         143.000
  23232503.207    -3724939.39649  -2886561.64946  23232503.233    23232512.955
       220.000         164.000
  20530389.962     -446315.13549   -349506.59548  20530390.107    20530396.856
       243.000         214.000
  22512491.622     1029263.30849    789042.10546  22512492.196    22512498.333
       230.000         187.000
  20697639.964    -2516850.74949  -1945328.06647  20697639.792    20697645.853
       241.000         210.000
  22241119.971     1263835.44149    968381.03346  22241120.333    22241126.205
       230.000         184.000
  22631648.577    -3754101.58449  -2909542.58646  22631648.696    22631655.621
       225.000         175.000
 03  4 15 16 35 30.0000000  0  7G 6G10G24G 9G 5G 4G30
  24717326.755    -2829676.45749  -2192614.43245  24717326.711    24717334.234
       207.000         143.000
  23214054.973    -3821885.98849  -2962104.32046  23214053.825    23214063.667
       218.000         165.000
  20536092.962     -416345.95649   -326153.99648  20536093.179    20536099.480
       243.000         213.000
  22527535.071     1108316.97749    850642.30546  22527534.912    22527541.946
       230.000         186.000
  20689103.444    -2561710.60249  -1980283.79647  20689103.442    20689109.143
       242.000         210.000
  22257795.048     1351463.44449   1036662.56946  22257796.198    22257801.852
       232.000         185.000
  22614154.709    -3846032.79549  -2981177.26346  22614155.206    22614161.499
       223.000         175.000
 03  4 15 16 36  0.0000000  0  7G 6G10G24G 9G 5G 4G30
  24704342.033    -2897910.91749  -2245784.08445  24704341.380    24704349.728
       210.000         143.000
  23195630.782    -3918705.50849  -3037547.98146  23195629.750    23195639.660
       217.000         164.000
  20541883.409     -385917.11049   -302443.20848  20541883.580    20541889.950
       242.000         213.000
  22542631.281     1187649.16849    912459.52746  22542631.231    22542639.393
       229.000         185.000
  20680643.426    -2606168.10949  -2014926.00847  20680643.059    20680649.200
       241.000         210.000
  22274516.150     1439332.75049   1105132.13946  22274516.883    22274522.643
       232.000         185.000
  22596692.436    -3937796.94949  -3052681.78246  22596692.805    22596699.224
       224.000         175.000
 03  4 15 16 36 30.0000000  0  7G 6G10G24G 9G 5G 4G30
  24691362.747    -2966118.49249  -2298932.79945  24691363.185    24691371.085
       207.000         144.000
  23177231.395    -4015394.41549  -3112889.86546  23177230.257    23177240.274
       218.000         164.000
  20547761.006     -355029.97149   -278375.30348  20547761.191    20547767.524
       243.000         213.000
  22557780.128     1267257.27549    974491.74746  22557780.344    22557788.069
       228.000         185.000
  20672260.448    -2650220.99049  -2049252.93347  20672260.622    20672266.371
       242.000         210.000
  22291282.647     1527440.99049   1173787.89746  22291283.256    22291289.583
       232.000         185.000
  22579262.622    -4029391.47349  -3124054.12346  22579262.872    22579268.819
       224.000         175.000
 03  4 15 16 37  0.0000000  0  7G 6G10G24G 9G 5G 4G30
  24678388.253    -3034300.30149  -2352061.42945  24678387.778    24678396.006
       210.000         144.000
  23158857.383    -4111950.16349  -3188128.01546  23158856.967    23158866.314
       219.000         164.000
  20553725.352     -323687.55849   -253952.64348  20553725.652    20553732.107
       243.000         213.000
  22572980.788     1347137.49149   1036735.98746  22572981.320    22572988.618
       229.000         185.000
  20663954.713    -2693868.29349  -2083263.82247  20663954.872    20663960.529
       242.000         210.000
  22308093.972     1615784.76249   1242627.17746  22308095.077    22308100.752
       231.000         184.000
  22561865.339    -4120814.71549  -3195292.99646  22561865.615    22561871.822
       224.000         175.000
 03  4 15 16 37 30.0000000  0  7G 6G10G24G 9G 5G 4G30
  24665418.511    -3102455.91449  -2405169.65445  24665418.216    24665426.245
       206.000         143.000
  23140509.488    -4208368.63949  -3263259.19246  23140508.829    23140518.210
       218.000         165.000
  20559776.106     -291890.86649   -229176.00648  20559776.273    20559782.734
       243.000         213.000
  22588233.011     1427287.48849   1099190.45846  22588233.441    22588241.066
       229.000         185.000
  20655726.731    -2737107.20349  -2116956.48047  20655726.768    20655732.354
       242.000         210.000
  22324949.673     1704362.03049   1311648.40346  22324950.309    22324956.275
       230.000         183.000
  22544501.049    -4212063.90149  -3266396.22846  22544501.906    22544507.339
       222.000         175.000
 03  4 15 16 38  0.0000000  0  7G 6G10G24G 9G 5G 4G30
  24652453.670    -3170585.29449  -2458257.39945  24652453.931    24652461.321
       205.000         142.000
  23122188.344    -4304646.31049  -3338280.67046  23122187.463    23122197.009
       218.000         165.000
  20565913.046     -259641.06049   -204046.29348  20565913.145    20565919.678
       242.000         213.000
  22603535.986     1507704.68049   1161853.12946  22603536.887    22603544.577
       229.000         185.000
  20647576.846    -2779935.40049  -2150329.10747  20647576.370    20647582.336
       242.000         210.000
  22341849.474     1793170.63549   1380849.87146  22341850.239    22341855.972
       229.000         184.000
  22527170.361    -4303136.19549  -3337361.64446  22527170.514    22527177.658
       222.000         175.000
 03  4 15 16 38 30.0000000  0  7G 6G10G24G 9G 5G 4G30
  24639494.191    -3238688.18449  -2511324.50245  24639493.933    24639501.612
       206.000         143.000
  23103894.743    -4400779.68749  -3413189.69046  23103894.187    23103903.054
       218.000         165.000
  20572135.824     -226940.00849   -178564.95348  20572135.907    20572142.601
       242.000         213.000
  22618889.321     1588386.44149   1224721.95946  22618889.858    22618897.052
       229.000         185.000
  20639505.463    -2822350.51649  -2183379.85847  20639505.478    20639511.261
       242.000         211.000
  22358792.805     1882208.14149   1450229.71346  22358793.309    22358799.581
       230.000         184.000
  22509874.227    -4394028.89249  -3408187.09046  22509875.188    22509880.441
       225.000         175.000
 03  4 15 16 39  0.0000000  0  7G 6G10G24G 9G 5G 4G30
  24626539.323    -3306767.27249  -2564373.05845  24626539.511    24626546.646
       205.000         143.000
  23085628.749    -4496767.47649  -3487985.26846  23085628.522    23085636.929
       217.000         165.000
  20578443.651     -193791.93749   -152735.29148  20578443.690    20578450.614
       243.000         213.000
  22634292.141     1669327.42549   1287792.77646  22634292.805    22634299.969
       229.000         185.000
  20631512.733    -2864353.13849  -2216109.17447  20631512.621    20631518.343
       242.000         211.000
  22375778.766     1971469.79749   1519784.22946  22375779.610    22375785.201
       231.000         184.000
  22492612.243    -4484742.04749  -3478872.64246  22492612.508    22492618.297
       225.000         176.000
 03  4 15 16 39 30.0000000  0  7G 6G10G24G 9G 5G 4G30
  24613589.052    -3374820.97649  -2617401.84345  24613589.317    24613597.091
       207.000         143.000
  23067391.452    -4592604.63349  -3562663.47246  23067390.648    23067400.728
       219.000         166.000
  20584836.653     -160196.76649   -126557.24348  20584837.034    20584843.331
       243.000         213.000
  22649743.833     1750526.59149   1351064.76746  22649743.959    22649751.997
       228.000         184.000
  20623599.157    -2905939.40649  -2248514.06147  20623599.029    20623604.885
       242.000         211.000
  22392807.237     2060954.60649   1589512.63446  22392807.702    22392813.652
       230.000         184.000
  22475385.190    -4575271.39649  -3549414.96246  22475385.984    22475391.422
       226.000         176.000
 03  4 15 16 40  0.0000000  0  7G 6G10G24G 9G 5G 4G30
  24600643.724    -3442850.14849  -2670411.53445  24600643.079    24600649.971
       208.000         143.000
  23049183.235    -4688288.57149  -3637222.29646  23049182.423    23049191.817
       219.000         166.000
  20591314.279     -126157.13849   -100032.85748  20591314.709    20591320.722
       244.000         213.000
  22665243.914     1831979.98449   1414534.87646  22665243.768    22665251.637
       229.000         184.000
  20615765.002    -2947108.19049  -2280593.62947  20615764.613    20615770.765
       242.000         211.000
  22409877.464     2150659.26149   1659412.33046  22409877.974    22409884.610
       231.000         184.000
  22458193.402    -4665615.40949  -3619812.86446  22458193.636    22458199.846
       226.000         177.000
 03  4 15 16 40 30.0000000  0  7G 6G10G24G 9G 5G 4G30
  24587702.808    -3510854.14849  -2723401.62245  24587703.137    24587710.508
       205.000         141.000
  23031005.198    -4783814.86949  -3711658.27946  23031005.017    23031013.537
       218.000         166.000
  20597876.306      -91674.08449    -73162.94748  20597876.237    20597882.692
       243.000         213.000
  22680791.982     1913685.46749   1478201.40346  22680792.834    22680799.870
       229.000         184.000
  20608010.720    -2987856.67049  -2312345.69747  20608010.511    20608016.507
       241.000         211.000
  22426989.299     2240582.07249   1729482.02246  22426990.008    22426995.335
       231.000         184.000
  22441037.322    -4755770.75349  -3690063.75546  22441038.163    22441044.183
       224.000         178.000
 03  4 15 16 41  0.0000000  0  7G 6G10G24G 9G 5G 4G30
  24574766.558    -3578833.01349  -2776372.11145  24574766.643    24574773.900
       208.000         141.000
  23012857.798    -4879180.44649  -3785969.03346  23012857.530    23012865.611
       221.000         167.000
  20604522.124      -56749.51549    -45948.99548  20604521.856    20604528.757
       242.000         213.000
  22696387.665     1995640.06949   1542062.05246  22696388.038    22696395.229
       229.000         184.000
  20600336.944    -3028182.77149  -2343768.63547  20600336.844    20600342.797
       242.000         211.000
  22444142.165     2330720.68049   1799719.87146  22444143.053    22444149.142
       230.000         182.000
  22423917.649    -4845735.11349  -3760165.82646  22423917.945    22423923.444
       225.000         178.000
 03  4 15 16 41 30.0000000  0  7G 6G10G24G 9G 5G 4G30
  24561835.030    -3646789.22949  -2829324.95645  24561834.316    24561842.811
       204.000         142.000
  22994741.282    -4974383.49049  -3860153.14846  22994740.472    22994750.032
       221.000         168.000
  20611251.260      -21387.25349    -18393.98947  20611251.388    20611258.141
       243.000         212.000
  22712029.783     2077838.97149   1606113.06446  22712029.979    22712037.344
       229.000         184.000
  20592743.600    -3068086.32649  -2374862.31447  20592743.340    20592749.406
       242.000         211.000
  22461335.276     2421070.29949   1870122.15146  22461335.791    22461341.895
       230.000         182.000
  22406834.592    -4935507.79649  -3830118.54246  22406835.411    22406840.907
       227.000         179.000
 03  4 15 16 42  0.0000000  0  7G 6G10G24G 9G 5G 4G30
  24548907.660    -3714720.42749  -2882258.30845  24548907.025    24548915.946
       206.000         142.000
  22976656.599    -5069418.36249  -3934206.22546  22976655.672    22976664.749
       219.000         167.000
  20618063.978       14413.60649      9502.77948  20618064.201    20618070.946
       243.000         213.000
  22727718.159     2160281.38649   1670353.83246  22727718.298    22727726.142
       229.000         183.000
  20585231.425    -3107563.17349  -2405623.49147  20585231.411    20585237.088
       242.000         211.000
  22478568.366     2511630.99449   1940688.89846  22478568.521    22478574.876
       227.000         180.000
  22389788.715    -5025084.15649  -3899918.28746  22389789.301    22389794.730
       226.000         179.000
 03  4 15 16 42 30.0000000  0  7G 6G10G24G 9G 5G 4G30
  24535985.355    -3782627.53249  -2935172.89445  24535986.120    24535994.519
       206.000         145.000
  22958604.409    -5164282.53149  -4008126.25846  22958602.500    22958612.323
       218.000         166.000
  20624959.620       50650.11049     37739.01348  20624959.967    20624966.302
       244.000         213.000
  22743452.193     2242963.62549   1734781.47646  22743452.485    22743460.199
       229.000         183.000
  20577800.735    -3146612.38349  -2436051.44447  20577800.425    20577806.282
       243.000         211.000
  22495840.984     2602399.50049   2011417.59246  22495841.603    22495847.404
       228.000         178.000
  22372780.575    -5114462.54449  -3969563.76446  22372781.236    22372786.442
       227.000         180.000
 03  4 15 16 43  0.0000000  0  7G 6G10G24G 9G 5G 4G30
  24523067.444    -3850511.39249  -2988069.34045  24523067.224    24523075.812
       205.000         146.000
  22940585.178    -5258973.26549  -4081911.16846  22940583.355    22940593.600
       218.000         167.000
  20631937.713       87319.72349     66312.72748  20631937.907    20631944.469
       244.000         213.000
  22759231.207     2325882.42249   1799393.42746  22759231.342    22759238.283
       229.000         183.000
  20570451.532    -3185232.63249  -2466145.15047  20570451.553    20570457.092
       242.000         211.000
  22513152.499     2693372.36549   2082305.50346  22513152.729    22513158.908
       227.000         178.000
  22355810.585    -5203641.16049  -4039053.57546  22355810.854    22355816.548
       227.000         180.000
 03  4 15 16 43 30.0000000  0  7G 6G10G24G 9G 5G 4G30
  24510154.039    -3918371.46449  -3040947.25545  24510153.334    24510162.970
       207.000         147.000
  22922599.738    -5353486.26049  -4155557.57846  22922598.955    22922608.669
       220.000         167.000
  20638997.868      124420.80149     95222.65448  20638998.049    20639004.421
       243.000         213.000
  22775054.708     2409035.50049   1864187.94746  22775054.388    22775062.293
       228.000         182.000
  20563184.551    -3223421.21749  -2495902.49447  20563184.614    20563190.323
       243.000         212.000
  22530502.674     2784548.14849   2153351.55146  22530503.337    22530509.698
       229.000         180.000
  22338879.203    -5292616.79349  -4108385.22346  22338879.565    22338885.395
       229.000         180.000
 03  4 15 16 44  0.0000000  0  7G 6G10G24G 9G 5G 4G30
  24497245.168    -3986209.21249  -3093807.77845  24497245.800    24497253.123
       210.000         148.000
  22904648.750    -5447819.81849  -4229064.16846  22904648.792    22904657.255
       221.000         169.000
  20646139.515      161950.47849    124466.56948  20646139.735    20646145.792
       243.000         213.000
  22790922.104     2492418.36449   1929161.53346  22790922.373    22790929.742
       228.000         181.000
  20555999.793    -3261177.61049  -2525323.06447  20555999.698    20556005.419
       242.000         212.000
  22547890.703     2875922.57349   2224552.37146  22547891.210    22547897.781
       229.000         183.000
  22321986.642    -5381388.21149  -4177557.74246  22321986.860    22321992.398
       228.000         180.000
 03  4 15 16 44 30.0000000  0  7G 6G10G24G 9G 5G 4G30
  24484340.277    -4054024.57649  -3146650.85745  24484340.064    24484348.144
       202.000         147.000
  22886732.674    -5541970.17649  -4302427.99346  22886731.815    22886741.257
       222.000         171.000
  20653362.401      199906.98349    154043.06848  20653362.305    20653369.057
       243.000         213.000
  22806832.579     2576028.05249   1994311.85246  22806833.648    22806840.543
       228.000         181.000
  20548897.613    -3298499.93449  -2554405.39147  20548897.194    20548903.390
       243.000         212.000
  22565316.103     2967493.74749   2295906.49246  22565316.377    22565322.937
       228.000         182.000
  22305133.222    -5469953.00149  -4246569.25346  22305133.667    22305139.164
       228.000         180.000
 03  4 15 16 45  0.0000000  0  7G 6G10G24G 9G 5G 4G30
  24471439.383    -4121815.90149  -3199475.16445  24471438.646    24471447.537
       201.000         145.000
  22868852.274    -5635931.98349  -4375644.90646  22868851.983    22868860.540
       222.000         171.000
  20660666.331      238289.89749    183951.82547  20660666.478    20660672.900
       243.000         212.000
  22822786.110     2659863.33549   2059637.95246  22822786.414    22822793.361
       228.000         181.000
  20541878.698    -3335384.48849  -2583146.60647  20541878.423    20541884.444
       243.000         212.000
  22582778.741     3059260.52149   2367413.04146  22582779.167    22582785.506
       228.000         183.000
  22288319.999    -5558306.87549  -4315416.41746  22288320.107    22288325.901
       228.000         181.000
 03  4 15 16 45 30.0000000  0  7G 6G10G24G 9G 5G 4G30
  24458543.338    -4189585.39749  -3252282.49945  24458543.583    24458552.489
       202.000         145.000
  22851008.047    -5729703.86649  -4448713.84346  22851007.197    22851015.841
       221.000         170.000
  20668050.816      277095.58349    214190.01747  20668050.996    20668057.396
       243.000         212.000
  22838781.562     2743919.41249   2125136.12046  22838781.271    22838787.931
       227.000         180.000
  20534943.077    -3371831.31649  -2611546.73247  20534942.785    20534948.307
       245.000         212.000
  22600277.818     3151218.53349   2439068.58846  22600278.413    22600284.371
       228.000         182.000
  22271547.029    -5646449.37149  -4384098.86246  22271547.768    22271553.516
       228.000         181.000
 03  4 15 16 46  0.0000000  0  7G 6G10G24G 9G 5G 4G30
  24445651.458    -4257333.17349  -3305072.92045  24445652.267    24445659.545
       207.000         146.000
  22833200.507    -5823282.39949  -4521632.09046  22833199.255    22833208.317
       219.000         168.000
  20675515.401      316322.06849    244756.10648  20675515.738    20675522.052
       243.000         213.000
  22854818.304     2828193.43649   2190804.11046  22854818.039    22854826.268
       226.000         180.000
  20528091.170    -3407838.55249  -2639604.31147  20528090.968    20528096.768
       244.000         212.000
  22617812.903     3243365.49849   2510871.39646  22617813.184    22617819.416
       227.000         180.000
  22254814.782    -5734377.84049  -4452614.54146  22254815.452    22254821.112
       228.000         181.000
 03  4 15 16 46 30.0000000  0  7G 6G10G24G 9G 5G 4G30
  24432763.741    -4325058.85149  -3357846.10045  24432763.710    24432771.963
       208.000         146.000
  22815430.583    -5916663.58249  -4594396.55446  22815430.196    22815438.870
       222.000         169.000
  20683059.803      355967.89349    275648.95648  20683060.045    20683066.409
       244.000         213.000
  22870895.957     2912683.00749   2256640.04946  22870896.058    22870903.309
       228.000         180.000
  20521323.311    -3443403.66449  -2667317.39247  20521323.004    20521329.002
       244.000         212.000
  22635383.467     3335699.42249   2582819.88546  22635383.690    22635390.131
       226.000         178.000
  22238123.848    -5822089.36949  -4520961.16846  22238124.417    22238129.634
       228.000         182.000
 03  4 15 16 47  0.0000000  0  7G 6G10G24G 9G 5G 4G30
  24419880.100    -4392763.43849  -3410602.85445  24419880.309    24419887.216
       210.000         147.000
  22797698.900    -6009845.11949  -4667005.46946  22797698.732    22797706.644
       225.000         170.000
  20690683.402      396030.01249    306866.18447  20690683.858    20690689.816
       243.000         212.000
  22887014.080     2997384.00349   2322640.74246  22887013.980    22887021.965
       226.000         179.000
  20514639.808    -3478525.71649  -2694685.22547  20514639.820    20514645.663
       244.000         212.000
  22652988.904     3428216.74049   2654911.26446  22652989.632    22652995.263
       227.000         177.000
  22221474.555    -5909582.39349  -4589137.52746  22221475.083    22221480.411
       230.000         182.000
 03  4 15 16 47 30.0000000  0  7G 6G10G24G 9G 5G 4G30
  24407000.713    -4460445.80349  -3463342.30545  24407001.285    24407008.227
       211.000         146.000
  22780006.038    -6102822.05449  -4739454.95446  22780005.430    22780013.419
       224.000         171.000
  20698386.093      436507.92649    338407.41548  20698386.095    20698392.471
       243.000         213.000
  22903172.078     3082294.83049   2388804.92346  22903172.014    22903179.802
       226.000         178.000
  20508041.194    -3513201.87849  -2721705.60947  20508040.789    20508046.473
       244.000         212.000
  22670629.038     3520916.37149   2727144.73646  22670629.240    22670635.759
       226.000         174.000
  22204867.519    -5996853.06949  -4657140.64946  22204867.660    22204873.224
       229.000         183.000
 03  4 15 16 48  0.0000000  0  7G 6G10G24G 9G 5G 4G30
  24394125.254    -4528107.02449  -3516065.29245  24394125.318    24394131.824
       212.000         146.000
  22762352.429    -6195591.99449  -4811743.13446  22762351.432    22762360.333
       223.000         172.000
  20706167.308      477398.69849    370270.35248  20706167.509    20706173.874
       243.000         213.000
  22919369.368     3167411.48949   2455129.51146  22919370.370    22919376.587
       227.000         178.000
  20501527.531    -3547431.13349  -2748377.75047  20501527.258    20501532.994
       244.000         212.000
  22688303.200     3613794.95049   2799517.62446  22688303.744    22688310.039
       224.000         173.000
  22188303.080    -6083899.88449  -4724969.31646  22188304.007    22188309.042
       229.000         184.000
 03  4 15 16 48 30.0000000  0  7G 6G10G24G 9G 5G 4G30
  24381253.796    -4595746.95849  -3568771.68745  24381253.999    24381260.919
       210.000         145.000
  22744738.813    -6288151.00849  -4883866.96946  22744738.295    22744746.500
       223.000         172.000
  20714026.823      518700.73649    402453.75648  20714027.197    20714033.817
       244.000         213.000
  22935605.391     3252731.63849   2521612.66846  22935605.840    22935612.490
       227.000         178.000
  20495099.392    -3581211.10249  -2774699.80147  20495098.928    20495104.845
       244.000         211.000
  22706010.997     3706850.37549   2872028.31646  22706011.945    22706017.229
       227.000         173.000
  22171781.771    -6170719.86349  -4792621.22846  22171782.085    22171788.015
       230.000         183.000
 03  4 15 16 49  0.0000000  0  7G 6G10G24G 9G 5G 4G30
  24368386.257    -4663365.65749  -3621461.51745  24368386.397    24368393.028
       212.000         144.000
  22727166.166    -6380495.79049  -4955823.88046  22727166.080    22727173.595
       224.000         173.000
  20721964.231      560411.76649    434955.85448  20721964.353    20721970.758
       244.000         213.000
  22951879.460     3338252.14749   2588251.92846  22951879.355    22951886.896
       225.000         177.000
  20488757.054    -3614540.03549  -2800670.39947  20488756.909    20488762.659
       245.000         212.000
  22723752.114     3800080.13549   2944674.87446  22723752.643    22723759.245
       227.000         173.000
  22155304.041    -6257310.53449  -4860094.46546  22155304.262    22155309.795
       230.000         184.000
 03  4 15 16 49 30.0000000  0  7G 6G10G24G 9G 5G 4G30
  24355522.862    -4730964.10649  -3674135.58345  24355522.303    24355530.572
       213.000         145.000
  22709634.757    -6472623.82249  -5027611.86646  22709634.577    22709643.058
       223.000         173.000
  20729978.848      602528.89849    467774.38947  20729978.884    20729985.260
       244.000         212.000
  22968190.822     3423969.13849   2655044.29346  22968190.792    22968199.080
       225.000         177.000
  20482500.802    -3647417.30249  -2826289.04647  20482500.570    20482506.486
       245.000         212.000
  22741525.851     3893481.13849   3017454.85046  22741526.319    22741533.500
       226.000         175.000
  22138870.309    -6343670.29449  -4927387.76046  22138870.389    22138876.443
       231.000         184.000
 03  4 15 16 50  0.0000000  0  7G 6G10G24G 9G 5G 4G30
  24342663.234    -4798541.69249  -3726793.39645  24342663.665    24342669.762
       212.000         146.000
  22692145.352    -6564531.02249  -5099227.79146  22692144.565    22692152.887
       221.000         173.000
  20738070.537      645051.05749    500908.53047  20738070.822    20738077.218
       243.000         212.000
  22984539.325     3509880.44949   2721988.06946  22984540.214    22984547.394
       226.000         178.000
  20476330.842    -3679840.28449  -2851553.71247  20476330.571    20476336.594
       244.000         212.000
  22759331.757     3987051.45649   3090366.74246  22759332.252    22759338.670
       227.000         178.000
  22122481.119    -6429795.79349  -4994498.52346  22122481.575    22122487.479
       229.000         184.000
 03  4 15 16 50 30.0000000  0  7G 6G10G24G 9G 5G 4G30
  24329807.671    -4866098.94049  -3779435.36945  24329807.035    24329814.526
       210.000         146.000
  22674698.472    -6656214.27749  -5170669.20946  22674697.484    22674705.937
       222.000         172.000
  20746238.914      687975.81349    534356.38448  20746239.327    20746245.650
       244.000         213.000
  23000924.091     3595982.54349   2789080.52146  23000924.381    23000932.762
       225.000         177.000
  20470247.725    -3711807.56249  -2876463.27648  20470247.842    20470253.336
       245.000         213.000
  22777169.507     4080788.32749   3163408.45346  22777170.053    22777176.085
       226.000         178.000
  22106136.836    -6515685.04549  -5061425.18746  22106137.190    22106143.193
       230.000         184.000
 03  4 15 16 51  0.0000000  0  7G 6G10G24G 9G 5G 4G30
  24316955.498    -4933636.70749  -3832062.15245  24316954.962    24316962.529
       208.000         146.000
  22657294.754    -6747670.88549  -5241934.02646  22657294.142    22657302.761
       223.000         172.000
  20754483.394      731300.48549    568115.86048  20754483.710    20754490.139
       244.000         213.000
  23017344.599     3682271.83849   2856318.83946  23017345.004    23017352.330
       226.000         176.000
  20464251.570    -3743317.96449  -2901016.83548  20464251.513    20464256.961
       245.000         213.000
  22795038.300     4174688.72049   3236577.54846  22795038.673    22795044.938
       223.000         175.000
  22089837.976    -6601336.08249  -5128166.23846  22089838.373    22089844.088
       229.000         184.000
 03  4 15 16 51 30.0000000  0  7G 6G10G24G 9G 5G 4G30
  24304107.298    -5001153.17449  -3884672.31345  24304106.817    24304115.304
       208.000         147.000
  22639935.272    -6838895.54449  -5313018.11846  22639934.420    22639943.574
       223.000         173.000
  20762803.866      775024.62449    602186.60648  20762804.150    20762810.348
       244.000         213.000
  23033800.582     3768747.13649   2923702.08646  23033801.601    23033808.287
       226.000         177.000
  20458343.021    -3774367.87849  -2925211.58348  20458342.844    20458348.283
       245.000         213.000
  22812938.001     4268752.09749   3309873.63846  22812938.591    22812944.515
       224.000         175.000
  22073585.255    -6686744.59049  -5194718.30346  22073585.845    22073591.791
       230.000         184.000
 03  4 15 16 52  0.0000000  0  7G 6G10G24G 9G 5G 4G30
  24291262.871    -5068650.79749  -3937267.77345  24291263.049    24291270.704
       208.000         148.000
  22622620.195    -6929887.02249  -5383920.49446  22622619.426    22622628.477
       226.000         175.000
  20771199.603      819144.34449    636565.60847  20771199.598    20771205.859
       243.000         212.000
  23050290.832     3855403.22049   2991226.21646  23050291.235    23050299.280
       227.000         177.000
  20452521.939    -3804958.06549  -2949048.08948  20452521.684    20452527.524
       245.000         213.000
  22830867.769     4362973.60649   3383292.96146  22830868.189    22830874.383
       222.000         174.000
  22057378.668    -6771910.41649  -5261081.26746  22057379.064    22057384.554
       230.000         184.000
 03  4 15 16 52 30.0000000  0  7G 6G10G24G 9G 5G 4G30
  24278422.299    -5136127.98249  -3989847.30545  24278421.678    24278429.574
       207.000         149.000
  22605350.409    -7020640.38249  -5454637.31946  22605350.272    22605358.104
       224.000         176.000
  20779670.433      863658.98349    671252.33547  20779670.653    20779676.834
       243.000         212.000
  23066815.261     3942238.94149   3058890.31346  23066816.125    23066823.622
       227.000         177.000
  20446788.953    -3835085.04849  -2972523.66648  20446788.723    20446794.527
       244.000         213.000
  22848827.611     4457352.83749   3456835.16446  22848828.006    22848832.835
       220.000         171.000
  22041219.175    -6856829.16549  -5327251.70946  22041219.951    22041225.385
       231.000         185.000
 03  4 15 16 53  0.0000000  0  7G 6G10G24G 9G 5G 4G30
  24265585.372    -5203585.48349  -4042411.50945  24265585.615    24265593.213
       209.000         151.000
  22588126.521    -7111152.66649  -5525166.28346  22588125.846    22588134.397
       223.000         175.000
  20788215.914      908565.71349    706244.58147  20788216.087    20788222.379
       243.000         212.000
  23083373.358     4029250.60449   3126691.51046  23083374.023    23083381.476
       227.000         178.000
  20441144.349    -3864747.78549  -2995637.49048  20441144.110    20441149.684
       244.000         213.000
  22866816.748     4551886.39249   3530497.62946  22866818.041    22866822.772
       224.000         171.000
  22025107.042    -6941498.93049  -5393228.13746  22025107.126    22025112.730
       231.000         185.000
 03  4 15 16 53 30.0000000  0  7G 6G10G24G 9G 5G 4G30
  24252752.073    -5271024.69149  -4094961.45645  24252751.649    24252760.621
       211.000         152.000
  22570948.782    -7201421.64949  -5595505.67446  22570947.168    22570956.244
       225.000         174.000
  20796835.382      953861.41649    741539.93047  20796835.480    20796842.105
       243.000         212.000
  23099963.866     4116434.10249   3194626.60346  23099963.608    23099972.027
       224.000         177.000
  20435588.126    -3893945.76749  -3018389.16948  20435587.847    20435593.535
       245.000         213.000
  22884834.610     4646571.08849   3604277.90446  22884834.759    22884840.518
       224.000         172.000
  22009042.544    -7025918.41149  -5459009.53446  22009042.897    22009048.672
       231.000         186.000
 03  4 15 16 54  0.0000000  0  7G 6G10G24G 9G 5G 4G30
  24239922.658    -5338444.00949  -4147495.93945  24239923.290    24239930.793
       214.000         154.000
  22553818.368    -7291442.32449  -5665651.58446  22553817.597    22553825.653
       225.000         174.000
  20805528.873      999545.69149    777138.05347  20805529.252    20805535.382
       244.000         212.000
  23116586.599     4203787.87649   3262694.36746  23116586.620    23116594.460
       225.000         176.000
  20430120.991    -3922675.57049  -3040776.03548  20430120.622    20430126.592
       244.000         213.000
  22902880.976     4741405.98549   3678175.19446  22902881.125    22902887.586
       222.000         169.000
  21993026.362    -7110083.47049  -5524592.68546  21993026.844    21993032.627
       232.000         187.000
 03  4 15 16 54 30.0000000  0  7G 6G10G24G 9G 5G 4G30
  24227097.168    -5405843.94649  -4200015.32345  24227097.210    24227104.208
       213.000         154.000
  22536735.745    -7381211.75149  -5735601.69146  22536735.243    22536743.981
       224.000         176.000
  20814295.916     1045616.13449    813037.08647  20814296.263    20814302.534
       244.000         212.000
  23133241.214     4291308.72649   3330892.32446  23133240.901    23133248.329
       224.000         175.000
  20424743.128    -3950935.92349  -3062797.09748  20424742.855    20424748.876
       244.000         213.000
  22920955.405     4836388.28749   3752187.34946  22920955.343    22920962.056
       226.000         167.000
  21977059.092    -7193991.93649  -5589975.88746  21977059.928    21977065.369
       232.000         187.000
 03  4 15 16 55  0.0000000  0  7G 6G10G24G 9G 5G 4G30
  24214274.891    -5473226.05649  -4252520.82445  24214274.816    24214281.322
       214.000         152.000
  22519701.389    -7470727.97049  -5805354.51546  22519701.275    22519708.865
       228.000         177.000
  20823135.597     1092068.78149    849233.94747  20823135.673    20823141.896
       243.000         212.000
  23149926.912     4378992.28649   3399217.08746  23149926.749    23149934.550
       223.000         173.000
  20419454.766    -3978726.60749  -3084452.17848  20419454.696    20419460.417
       245.000         213.000
  22939057.404     4931514.15949   3826311.41846  22939058.370    22939063.958
       225.000         167.000
  21961140.928    -7277642.69049  -5655158.27346  21961141.608    21961146.948
       233.000         187.000
 03  4 15 16 55 30.0000000  0  7G 6G10G24G 9G 5G 4G30
  24201455.963    -5540589.80749  -4305012.04045  24201455.601    24201461.958
       211.000         151.000
  22502716.072    -7559987.09549  -5874907.00646  22502715.784    22502723.320
       226.000         178.000
  20832047.763     1138902.31749    885727.60447  20832047.783    20832054.369
       244.000         212.000
  23166643.034     4466836.13349   3467666.72846  23166643.956    23166650.691
       224.000         173.000
  20414256.226    -4006045.44249  -3105739.58948  20414256.115    20414261.848
       245.000         213.000
  22957186.274     5026781.84449   3900545.94146  22957187.030    22957192.677
       222.000         167.000
  21945272.424    -7361032.59749  -5720137.40346  21945272.754    21945278.307
       232.000         187.000
 03  4 15 16 56  0.0000000  0  7G 6G10G24G 9G 5G 4G30
  24188640.673    -5607934.34749  -4357488.25745  24188640.043    24188647.889
       210.000         151.000
  22485780.303    -7648984.71049  -5944255.70046  22485779.219    22485787.809
       226.000         178.000
  20841032.202     1186115.70049    922517.24147  20841031.994    20841038.982
       243.000         212.000
  23183389.264     4554838.19449   3536239.65546  23183389.403    23183397.233
       224.000         173.000
  20409147.903    -4032889.99249  -3126657.42348  20409147.801    20409153.631
       245.000         213.000
  22975341.929     5122189.99549   3974889.90946  22975342.461    22975348.331
       225.000         169.000
  21929454.029    -7444158.25249  -5784910.63247  21929454.774    21929460.290
       233.000         188.000
 03  4 15 16 56 30.0000000  0  7G 6G10G24G 9G 5G 4G30
  24175828.812    -5675260.47249  -4409950.12545  24175828.442    24175836.319
       210.000         150.000
  22468894.846    -7737718.03549  -6013398.47946  22468893.948    22468902.941
       226.000         178.000
  20850088.355     1233706.26249    959600.78747  20850088.364    20850094.998
       243.000         211.000
  23200165.046     4642994.75649   3604932.96946  23200166.089    23200172.964
       223.000         173.000
  20404129.954    -4059259.49249  -3147205.09548  20404129.905    20404135.663
       245.000         214.000
  22993523.795     5217735.48349   4049340.92446  22993524.754    22993530.722
       226.000         171.000
  21913686.431    -7527017.73249  -5849476.44347  21913687.250    21913691.981
       233.000         188.000
 03  4 15 16 57  0.0000000  0  7G 6G10G24G 9G 5G 4G30
  24163020.354    -5742568.59149  -4462397.96845  24163020.019    24163028.591
       207.000         148.000
  22452060.187    -7826184.11749  -6082333.02546  22452059.253    22452067.551
       224.000         177.000
  20859215.674     1281670.99549    996975.89747  20859215.456    20859222.124
       243.000         211.000
  23216969.655     4731302.50949   3673744.09846  23216970.176    23216977.991
       224.000         172.000
  20399202.737    -4085152.56649  -3167381.52548  20399202.546    20399208.347
       245.000         214.000
  23011731.303     5313415.88549   4123897.05546  23011731.780    23011737.314
       222.000         169.000
  21897969.845    -7609608.74049  -5913833.05747  21897970.750    21897975.935
       233.000         188.000
 03  4 15 16 57 30.0000000  0  7G 6G10G24G 9G 5G 4G30
  24150215.492    -5809858.26449  -4514831.43445  24150214.894    24150222.071
       208.000         147.000
  22435277.160    -7914378.73949  -6151056.02046  22435276.541    22435284.218
       227.000         177.000
  20868414.035     1330008.49549   1034641.46847  20868414.467    20868420.621
       245.000         211.000
  23233802.534     4819759.14349   3742671.21446  23233802.563    23233810.580
       224.000         172.000
  20394366.539    -4110567.12349  -3187185.08548  20394366.444    20394372.184
       247.000         214.000
  23029964.031     5409229.24949   4198556.76446  23029964.347    23029969.943
       220.000         166.000
  21882305.017    -7691928.29849  -5977978.15447  21882305.995    21882310.963
       234.000         189.000
 03  4 15 16 58  0.0000000  0  7G 6G10G24G 9G 5G 4G30
  24137414.108    -5877130.07149  -4567250.98645  24137413.756    24137420.677
       207.000         146.000
  22418546.453    -8002299.32249  -6219565.49346  22418546.323    22418553.704
       227.000         178.000
  20877682.941     1378716.30549   1072595.59347  20877683.061    20877689.082
       243.000         211.000
  23250663.104     4908361.02649   3811711.54146  23250663.790    23250671.687
       223.000         172.000
  20389621.650    -4135502.09449  -3206614.94448  20389621.749    20389626.916
       246.000         214.000
  23048221.442     5505172.66049   4273317.79846  23048222.038    23048228.324
       223.000         168.000
  21866692.115    -7773974.54849  -6041910.28447  21866692.564    21866698.238
       234.000         189.000
 03  4 15 16 58 30.0000000  0  7G 6G10G24G 9G 5G 4G30
  24124615.904    -5944384.30749  -4619656.84745  24124615.376    24124624.131
       208.000         148.000
  22401868.470    -8089942.59249  -6287858.86446  22401868.329    22401875.295
       227.000         179.000
  20887021.760     1427791.96549   1110836.35347  20887021.656    20887028.131
       242.000         210.000
  23267550.653     4997105.09649   3880862.63746  23267550.650    23267558.519
       223.000         172.000
  20384968.308    -4159956.05449  -3225669.98548  20384968.070    20384973.631
       246.000         214.000
  23066503.171     5601243.47949   4348178.13646  23066503.412    23066509.481
       223.000         170.000
  21851131.716    -7855744.88849  -6105627.41947  21851132.406    21851138.037
       234.000         190.000
 03  4 15 16 59  0.0000000  0  7G 6G10G24G 9G 5G 4G30
  24111821.080    -6011620.84549  -4672048.92645  24111821.793    24111829.418
       210.000         150.000
  22385243.927    -8177304.88449  -6355933.31246  22385243.998    22385251.346
       228.000         179.000
  20896430.159     1477233.71249   1149362.37347  20896430.222    20896436.642
       243.000         210.000
  23284464.788     5085988.70549   3950122.46746  23284464.371    23284472.226
       223.000         171.000
  20380406.731    -4183927.30549  -3244348.89148  20380406.758    20380412.043
       246.000         214.000
  23084808.897     5697439.80649   4423136.27346  23084809.219    23084815.734
       222.000         170.000
  21835624.511    -7937236.58549  -6169127.42647  21835625.071    21835631.041
       234.000         190.000
 03  4 15 16 59 30.0000000  0  7G 6G10G24G 9G 5G 4G30
  24099029.816    -6078840.17749  -4724427.57945  24099030.129    24099036.471
       209.000         152.000
  22368673.412    -8264383.20649  -6423786.47746  22368672.550    22368680.777
       227.000         180.000
  20905907.868     1527039.25249   1188171.87047  20905908.011    20905914.419
       243.000         210.000
  23301404.772     5175008.42749   4019488.36546  23301404.024    23301413.284
       223.000         170.000
  20375937.252    -4207414.70849  -3262650.76848  20375937.062    20375942.547
       246.000         215.000
  23103137.969     5793759.09749   4498190.23046  23103139.279    23103143.430
       220.000         168.000
  21820170.692    -8018447.29649  -6232408.48447  21820171.669    21820177.060
       235.000         190.000
 03  4 15 17  0  0.0000000  0  7G 6G10G24G 9G 5G 4G30
  24086241.788    -6146042.23949  -4776792.77645  24086242.092    24086249.330
       212.000         153.000
  22352157.568    -8351173.82449  -6491415.45546  22352155.575    22352164.303
       223.000         178.000
  20915454.310     1577206.10349   1227262.91547  20915454.362    20915460.590
       243.000         210.000
  23318370.112     5264161.48149   4088958.17446  23318371.168    23318378.700
       223.000         170.000
  20371560.215    -4230416.61149  -3280574.33748  20371560.182    20371565.360
       246.000         215.000
  23121489.924     5890199.11249   4573338.24746  23121489.996    23121497.048
       224.000         169.000
  21804770.897    -8099374.45949  -6295468.60047  21804771.661    21804776.872
       235.000         191.000
 03  4 15 17  0 30.0000000  0  7G 6G10G24G 9G 5G 4G30
  24073457.039    -6213227.02949  -4829144.55345  24073456.513    24073464.416
       213.000         154.000
  22335697.032    -8437673.43849  -6558817.66246  22335696.549    22335703.689
       227.000         177.000
  20925069.146     1627732.16549   1266633.87447  20925068.796    20925075.367
       243.000         209.000
  23335360.245     5353444.90449   4158529.54446  23335361.006    23335368.783
       223.000         170.000
  20367275.820    -4252931.39549  -3298118.32848  20367275.549    20367281.000
       246.000         214.000
  23139864.466     5986757.78449   4648578.73746  23139864.485    23139870.934
       225.000         172.000
  21789425.447    -8180015.38949  -6358305.67247  21789425.525    21789431.227
       236.000         191.000
 03  4 15 17  1  0.0000000  0  7G 6G10G24G 9G 5G 4G30
  24060675.346    -6280394.92649  -4881483.14545  24060675.041    24060683.336
       212.000         154.000
  22319292.690    -8523879.18049  -6625990.90446  22319292.265    22319300.228
       227.000         179.000
  20934751.776     1678615.12049   1306282.92647  20934751.853    20934758.257
       242.000         209.000
  23352374.595     5442855.42249   4228199.95346  23352375.727    23352383.135
       223.000         170.000
  20363084.313    -4274957.90649  -3315281.84848  20363083.850    20363089.682
       246.000         214.000
  23158261.047     6083432.17249   4723909.39246  23158261.219    23158267.447
       224.000         172.000
  21774134.766    -8260367.92049  -6420918.02047  21774134.880    21774140.234
       235.000         192.000
 03  4 15 17  1 30.0000000  0  7G 6G10G24G 9G 5G 4G30
  24047896.992    -6347545.11549  -4933807.94245  24047897.107    24047904.533
       211.000         155.000
  22302944.910    -8609786.98049  -6692931.95246  22302943.893    22302952.600
       227.000         180.000
  20944502.090     1729853.57349   1346208.98047  20944502.153    20944508.481
       242.000         209.000
  23369412.777     5532390.87949   4297967.72846  23369412.782    23369420.029
       224.000         169.000
  20358986.102    -4296494.03449  -3332063.25348  20358985.807    20358991.411
       246.000         214.000
  23176679.431     6180220.99549   4799329.20946  23176679.089    23176685.245
       223.000         169.000
  21758899.659    -8340428.76049  -6483303.07347  21758899.877    21758905.214
       234.000         192.000
 03  4 15 17  2  0.0000000  0  7G 6G10G24G 9G 5G 4G30
  24035121.815    -6414678.09949  -4986119.34945  24035122.201    24035129.290
       212.000         154.000
  22286654.428    -8695393.93649  -6759638.60846  22286654.790    22286662.334
       229.000         181.000
  20954319.533     1781444.60449   1386409.76247  20954319.846    20954326.158
       242.000         209.000
  23386473.994     5622047.61349   4367830.00046  23386474.541    23386481.925
       223.000         169.000
  20354981.379    -4317539.04549  -3348461.97148  20354981.210    20354986.814
       246.000         214.000
  23195119.021     6277121.47849   4874836.02446  23195119.113    23195126.007
       221.000         166.000
  21743720.495    -8420195.72849  -6545459.14347  21743721.475    21743726.043
       234.000         192.000
 03  4 15 17  2 30.0000000  0  7G 6G10G24G 9G 5G 4G30
  24022350.088    -6481794.51449  -5038417.83645  24022351.012    24022356.939
       211.000         153.000
  22270421.844    -8780697.00349  -6826108.44946  22270421.418    22270429.061
       227.000         181.000
  20964203.703     1833385.96749   1426883.53847  20964203.884    20964210.253
       243.000         210.000
  23403557.791     5711822.29249   4437784.18846  23403558.843    23403564.922
       225.000         169.000
  20351070.374    -4338091.83449  -3364477.13348  20351070.147    20351075.907
       246.000         214.000
  23213579.192     6374130.99649   4950427.82146  23213579.523    23213585.596
       223.000         164.000
  21728597.691    -8499666.65649  -6607384.52147  21728597.845    21728603.030
       235.000         192.000
 03  4 15 17  3  0.0000000  0  7G 6G10G24G 9G 5G 4G30
  24009581.407    -6548895.00649  -5090703.90045  24009581.772    24009587.848
       213.000         153.000
  22254247.449    -8865693.52949  -6892339.43746  22254246.566    22254254.160
       229.000         181.000
  20974153.952     1885674.64649   1467627.95347  20974154.115    20974160.477
       244.000         210.000
  23420663.359     5801711.59049   4507827.68546  23420663.532    23420670.082
       225.000         169.000
  20347253.194    -4358151.40549  -3380107.97048  20347252.950    20347258.485
       247.000         215.000
  23232059.653     6471246.66049   5026102.35745  23232058.820    23232066.326
       223.000         162.000
  21713531.573    -8578839.57749  -6669077.68747  21713531.985    21713537.208
       235.000         193.000
 03  4 15 17  3 30.0000000  0  7G 6G10G24G 9G 5G 4G30
  23996815.863    -6615978.22449  -5142976.50845  23996815.800    23996823.373
       213.000         154.000
  22238132.354    -8950378.91349  -6958327.97046  22238131.852    22238139.954
       229.000         182.000
  20984169.956     1938309.42749   1508642.06347  20984170.091    20984176.334
       242.000         209.000
  23437790.430     5891713.91449   4577959.23846  23437791.185    23437798.115
       223.000         169.000
  20343530.319    -4377715.20249  -3395352.49448  20343530.007    20343535.684
       246.000         215.000
  23250560.273     6568467.77749   5101859.05245  23250561.501    23250566.416
       222.000         162.000
  21698522.852    -8657710.79349  -6730535.75647  21698523.055    21698528.235
       234.000         193.000
 03  4 15 17  4  0.0000000  0  7G 6G10G24G 9G 5G 4G30
  23984053.408    -6683045.59849  -5195236.76545  23984052.796    23984060.311
       211.000         154.000
  22222076.831    -9034751.04949  -7024072.41746  22222075.867    22222083.897
       227.000         181.000
  20994251.298     1991287.04949   1549923.32147  20994251.482    20994257.523
       242.000         208.000
  23454938.049     5981824.88349   4648175.45746  23454938.384    23454945.649
       223.000         169.000
  20339901.857    -4396783.13149  -3410210.63248  20339902.099    20339907.298
       246.000         215.000
  23269080.167     6665790.48849   5177694.90345  23269080.221    23269087.407
       220.000         162.000
  21683571.761    -8736278.88749  -6791757.63647  21683572.465    21683577.690
       235.000         193.000
 03  4 15 17  4 30.0000000  0  7G 6G10G24G 9G 5G 4G30
  23971294.063    -6750095.13449  -5247483.13345  23971294.078    23971300.563
       212.000         154.000
  22206081.786    -9118804.40049  -7089568.46746  22206080.800    22206089.687
       227.000         181.000
  21004397.910     2044607.65549   1591471.84347  21004397.868    21004404.388
       243.000         208.000
  23472106.150     6072043.44249   4718475.50446  23472107.558    23472114.471
       224.000         169.000
  20336368.470    -4415351.77149  -3424679.70048  20336368.145    20336373.872
       246.000         215.000
  23287619.377     6763214.54349   5253609.69345  23287619.956    23287625.448
       217.000         162.000
  21668679.307    -8814539.39649  -6852739.83247  21668679.915    21668685.200
       234.000         193.000
 03  4 15 17  5  0.0000000  0  7G 6G10G24G 9G 5G 4G30
  23958537.880    -6817129.12349  -5299717.37845  23958538.419    23958544.725
       213.000         154.000
  22190147.803    -9202537.93349  -7154815.30146  22190147.970    22190155.070
       229.000         182.000
  21014608.978     2098266.42549   1633283.85747  21014609.069    21014615.482
       243.000         208.000
  23489293.893     6162364.50149   4788855.42246  23489294.000    23489301.698
       223.000         169.000
  20332929.773    -4433422.20349  -3438760.57448  20332929.646    20332935.004
       246.000         215.000
  23306177.255     6860735.54749   5329600.01645  23306178.129    23306184.715
       220.000         162.000
  21653845.483    -8892492.04449  -6913482.13547  21653845.824    21653851.302
       234.000         193.000
 03  4 15 17  5 30.0000000  0  7G 6G10G24G 9G 5G 4G30
  23945784.596    -6884148.04449  -5351939.90245  23945785.008    23945792.103
       213.000         155.000
  22174275.300    -9285949.06549  -7219810.91146  22174274.769    22174282.185
       229.000         182.000
  21024883.898     2152261.06149   1675357.59847  21024883.856    21024890.261
       242.000         208.000
  23506500.264     6252784.70749   4859312.60846  23506499.629    23506508.824
       221.000         168.000
  20329586.182    -4450993.49849  -3452452.49748  20329585.911    20329591.292
       246.000         215.000
  23324753.089     6958350.96349   5405663.93046  23324753.389    23324760.004
       222.000         164.000
  21639070.564    -8970134.47049  -6973982.71547  21639071.213    21639076.294
       236.000         194.000
 03  4 15 17  6  0.0000000  0  7G 6G10G24G 9G 5G 4G30
  23933034.457    -6951149.71549  -5404148.97945  23933034.415    23933041.651
       214.000         156.000
  22158465.165    -9369032.10449  -7284550.87446  22158464.284    22158472.246
       229.000         183.000
  21035222.709     2206591.55449   1717693.03947  21035222.588    21035229.035
       243.000         208.000
  23523725.490     6343303.29749   4929846.43546  23523724.864    23523733.558
       220.000         167.000
  20326338.238    -4468062.02349  -3465752.65948  20326338.049    20326343.477
       246.000         215.000
  23343346.803     7056061.17249   5481801.70246  23343347.627    23343352.991
       222.000         165.000
  21624355.758    -9047462.09649  -7034237.98747  21624356.260    21624361.618
       235.000         195.000
 03  4 15 17  6 30.0000000  0  7G 6G10G24G 9G 5G 4G30
  23920287.684    -7018135.60849  -5456345.74145  23920287.839    23920294.458
       215.000         157.000
  22142717.825    -9451785.12349  -7349033.67846  22142717.865    22142724.924
       232.000         184.000
  21045624.758     2261254.09149   1760287.21347  21045624.847    21045630.763
       243.000         208.000
  23540968.383     6433915.93249   5000453.55946  23540967.667    23540977.032
       218.000         166.000
  20323185.878    -4484627.92049  -3478661.15748  20323185.551    20323190.976
       246.000         215.000
  23361957.698     7153862.00149   5558010.10846  23361958.143    23361963.214
       223.000         166.000
  21609700.907    -9124473.69049  -7094247.01347  21609701.535    21609706.414
       237.000         195.000
 03  4 15 17  7  0.0000000  0  7G 6G10G24G 9G 5G 4G30
  23907543.929    -7085105.39749  -5508529.97445  23907543.692    23907550.996
       215.000         157.000
  22127034.205    -9534204.56049  -7413256.54846  22127034.403    22127040.765
       232.000         186.000
  21056089.629     2316246.78249   1803138.65147  21056089.702    21056095.549
       243.000         208.000
  23558228.725     6524619.99949   5071131.90246  23558229.267    23558237.978
       221.000         166.000
  20320129.488    -4500689.68249  -3491176.82048  20320129.167    20320134.507
       246.000         215.000
  23380585.534     7251751.73649   5634287.78946  23380585.927    23380591.847
       223.000         165.000
  21595106.885    -9201166.46249  -7154007.59747  21595107.218    21595112.730
       236.000         195.000
 03  4 15 17  7 30.0000000  0  7G 6G10G24G 9G 5G 4G30
  23894802.979    -7152059.59449  -5560702.06845  23894802.992    23894810.148
       216.000         157.000
  22111414.330    -9616287.61249  -7477217.30346  22111412.907    22111420.852
       229.000         185.000
  21066616.609     2371566.57149   1846244.97247  21066616.585    21066622.492
       242.000         207.000
  23575506.013     6615411.97649   5141878.77046  23575506.966    23575514.227
       220.000         166.000
  20317169.152    -4516246.64449  -3503299.13148  20317168.657    20317174.112
       246.000         215.000
  23399229.806     7349727.98349   5710632.89246  23399231.099    23399236.488
       223.000         164.000
  21580573.783    -9277538.26749  -7213518.08947  21580574.419    21580579.607
       237.000         196.000
 03  4 15 17  8  0.0000000  0  7G 6G10G24G 9G 5G 4G30
  23882065.249    -7218997.91149  -5612861.77345  23882065.110    23882072.369
       215.000         157.000
  22095858.861    -9698030.67249  -7540913.11146  22095857.996    22095865.326
       230.000         184.000
  21077205.664     2427212.11349   1889605.12247  21077205.434    21077211.274
       243.000         207.000
  23592799.546     6706289.43849   5212692.24046  23592799.775    23592807.353
       221.000         167.000
  20314305.101    -4531297.20649  -3515026.85148  20314304.739    20314309.960
       246.000         215.000
  23417890.233     7447788.82949   5787043.91446  23417891.231    23417895.648
       223.000         164.000
  21566102.360    -9353586.18449  -7272776.19747  21566102.778    21566107.748
       237.000         196.000
 03  4 15 17  8 30.0000000  0  7G 6G10G24G 9G 5G 4G30
  23869330.258    -7285920.40649  -5665009.14245  23869329.717    23869337.856
       215.000         157.000
  22080368.976    -9779430.56349  -7604341.51446  22080368.409    22080375.243
       232.000         185.000
  21087856.148     2483180.86249   1933217.13847  21087855.801    21087861.953
       242.000         207.000
  23610108.754     6797249.31549   5283569.94246  23610109.042    23610117.120
       219.000         166.000
  20311537.652    -4545840.18849  -3526359.04848  20311537.115    20311542.444
       247.000         215.000
  23436566.404     7545931.92949   5863519.03346  23436566.802    23436572.301
       223.000         166.000
  21551693.053    -9429307.89349  -7331780.11447  21551693.643    21551698.909
       237.000         196.000
 03  4 15 17  9  0.0000000  0  7G 6G10G24G 9G 5G 4G30
  23856598.316    -7352827.38449  -5717144.42445  23856598.371    23856605.041
       215.000         157.000
  22064945.031    -9860484.30449  -7667500.20446  22064944.417    22064951.356
       232.000         184.000
  21098567.610     2539470.32449   1977079.04547  21098567.206    21098573.591
       242.000         207.000
  23627432.783     6888288.31449   5354509.27346  23627432.549    23627441.959
       216.000         164.000
  20308867.024    -4559874.64849  -3537295.00848  20308866.564    20308872.062
       246.000         215.000
  23455257.724     7644154.70049   5940056.20646  23455257.753    23455264.456
       222.000         168.000
  21537346.261    -9504701.09649  -7390528.05847  21537347.015    21537351.792
       237.000         196.000
 03  4 15 17  9 30.0000000  0  7G 6G10G24G 9G 5G 4G30
  23843869.392    -7419718.27349  -5769267.17645  23843869.183    23843874.701
       215.000         157.000
  22049587.541    -9941188.02149  -7730386.14746  22049586.619    22049593.966
       232.000         185.000
  21109339.778     2596078.90449   2021189.60547  21109339.708    21109345.889
       243.000         207.000
  23644771.518     6979404.32749   5425508.61546  23644771.735    23644780.417
       217.000         163.000
  20306293.460    -4573398.82149  -3547833.33548  20306292.846    20306298.584
       247.000         215.000
  23473963.717     7742455.77749   6016654.37746  23473963.603    23473970.015
       222.000         170.000
  21523062.700    -9579762.61349  -7449017.54647  21523063.133    21523068.459
       239.000         197.000
 03  4 15 17 10  0.0000000  0  7G 6G10G24G 9G 5G 4G30
  23831143.541    -7486592.79149  -5821377.16045  23831144.732    23831150.907
       215.000         157.000
  22034297.340   -10021538.11149  -7792996.54446  22034296.784    22034303.943
       232.000         185.000
  21120172.387     2653004.39649   2065547.12947  21120172.439    21120178.397
       242.000         207.000
  23662124.439     7070594.35449   5496565.64245  23662124.772    23662133.135
       218.000         162.000
  20303817.237    -4586411.30249  -3557972.93848  20303816.680    20303822.291
       246.000         215.000
  23492684.154     7840833.50049   6093312.28046  23492684.353    23492690.716
       222.000         171.000
  21508842.712    -9654489.60449  -7507246.35247  21508843.288    21508847.889
       238.000         197.000
 03  4 15 17 10 30.0000000  0  7G 6G10G24G 9G 5G 4G30
  23818420.623    -7553452.35949  -5873475.50845  23818420.700    23818426.738
       215.000         157.000
  22019074.855   -10101532.67549  -7855329.89246  22019073.772    22019082.185
       233.000         186.000
  21131064.730     2710243.45449   2110148.98347  21131064.978    21131070.561
       243.000         207.000
  23679490.933     7161854.24349   5567677.10446  23679491.269    23679498.708
       219.000         163.000
  20301438.312    -4598912.47949  -3567714.12548  20301437.917    20301443.307
       246.000         215.000
  23511418.606     7939284.07349   6170026.96246  23511419.223    23511425.313
       225.000         173.000
  21494686.568    -9728880.89249  -7565213.57547  21494686.698    21494691.637
       238.000         198.000
 03  4 15 17 11  0.0000000  0  7G 6G10G24G 9G 5G 4G30
  23805700.705    -7620296.52349  -5925561.85545  23805700.836    23805707.800
       215.000         157.000
  22003920.714   -10181168.15149  -7917383.42447  22003919.893    22003927.266
       233.000         188.000
  21142016.437     2767794.27549   2154993.76447  21142016.457    21142022.293
       243.000         207.000
  23696870.139     7253181.70149   5638841.20146  23696869.609    23696878.782
       219.000         163.000
  20299157.073    -4610900.78949  -3577055.67048  20299156.706    20299162.131
       247.000         215.000
  23530166.757     8037805.99649   6246797.24946  23530167.224    23530173.027
       227.000         174.000
  21480594.724    -9802933.64649  -7622916.99647  21480594.954    21480599.938
       238.000         198.000
 03  4 15 17 11 30.0000000  0  7G 6G10G24G 9G 5G 4G30
  23792983.710    -7687124.45049  -5977635.53445  23792983.220    23792990.480
       214.000         158.000
  21988835.610   -10260440.63149  -7979154.13046  21988834.726    21988841.725
       232.000         187.000
  21153027.083     2825655.21549   2200080.19947  21153027.084    21153033.177
       243.000         207.000
  23714261.673     7344574.52849   5710056.24045  23714261.019    23714271.377
       216.000         162.000
  20296973.760    -4622374.09449  -3585995.92448  20296973.468    20296978.893
       246.000         215.000
  23548928.290     8136397.93249   6323622.09246  23548928.236    23548934.507
       226.000         173.000
  21466567.933    -9876644.37349  -7680353.91847  21466568.174    21466573.144
       238.000         197.000
 03  4 15 17 12  0.0000000  0  7G 6G10G24G 9G 5G 4G30
  23780269.414    -7753937.20049  -6029697.39845  23780269.322    23780277.050
       214.000         157.000
  21973819.927   -10339348.01249  -8040640.31546  21973818.512    21973826.128
       231.000         186.000
  21164096.078     2883823.02749   2245405.75147  21164096.051    21164102.177
       242.000         207.000
  23731664.840     7436028.76049   5781319.11245  23731664.960    23731673.789
       217.000         161.000
  20294888.491    -4633332.53849  -3594534.97948  20294888.201    20294893.633
       247.000         215.000
  23567702.547     8235056.49649   6400498.86046  23567702.829    23567709.391
       226.000         172.000
  21452606.600    -9950011.74449  -7737523.27547  21452607.109    21452611.626
       238.000         197.000
 03  4 15 17 12 30.0000000  0  7G 6G10G24G 9G 5G 4G30
  23767558.423    -7820734.14649  -6081746.91745  23767558.482    23767565.399
       214.000         157.000
  21958874.449   -10417886.57049  -8101839.11546  21958873.558    21958880.402
       233.000         186.000
  21175223.189     2942296.24549   2290969.28347  21175222.908    21175229.405
       242.000         207.000
  23749079.451     7527541.92749   5852627.91845  23749080.204    23749088.789
       217.000         160.000
  20292901.519    -4643774.50449  -3602671.57848  20292901.237    20292906.469
       245.000         216.000
  23586489.307     8333780.46949   6477426.59446  23586489.113    23586494.829
       224.000         169.000
  21438711.190   -10023032.59849  -7794422.62747  21438711.909    21438716.365
       239.000         197.000
 03  4 15 17 13  0.0000000  0  7G 6G10G24G 9G 5G 4G30
  23754850.126    -7887516.19949  -6133784.84545  23754850.309    23754856.627
       216.000         157.000
  21943999.671   -10496053.91449  -8162748.67746  21943998.816    21944005.716
       233.000         186.000
  21186407.721     3001071.60249   2336768.24347  21186407.625    21186413.871
       242.000         207.000
  23766504.548     7619110.31449   5923979.74145  23766504.831    23766513.678
       216.000         160.000
  20291012.876    -4653699.77749  -3610405.56548  20291012.514    20291017.832
       245.000         216.000
  23605287.840     8432566.71649   6554402.84846  23605288.379    23605293.898
       221.000         166.000
  21424882.176   -10095705.34549  -7851050.72547  21424882.542    21424887.281
       240.000         198.000
 03  4 15 17 13 30.0000000  0  7G 6G10G24G 9G 5G 4G30
  23742145.180    -7954282.40749  -6185810.43345  23742145.854    23742151.153
       216.000         158.000
  21929196.372   -10573845.74749  -8223365.62147  21929195.184    21929203.121
       233.000         188.000
  21197649.480     3060147.63449   2382801.50347  21197649.363    21197655.242
       243.000         207.000
  23783939.681     7710731.99449   5995373.08145  23783939.741    23783949.312
       216.000         161.000
  20289222.904    -4663106.40849  -3617735.41848  20289222.484    20289227.737
       245.000         216.000
  23624098.064     8531414.22749   6631426.82946  23624097.897    23624103.675
       219.000         163.000
  21411120.075   -10168026.40349  -7907404.78047  21411120.300    21411125.394
       239.000         198.000
 03  4 15 17 14  0.0000000  0  7G 6G10G24G 9G 5G 4G30
  23729442.899    -8021033.41949  -6237824.18745  23729442.899    23729449.104
       217.000         159.000
  21914464.926   -10651259.46949  -8283687.93647  21914463.952    21914471.184
       233.000         188.000
  21208947.990     3119521.40749   2429066.77047  21208947.671    21208953.631
       242.000         206.000
  23801384.250     7802403.57049   6066805.30745  23801383.615    23801393.843
       217.000         161.000
  20287531.664    -4671993.99649  -3624660.82348  20287531.025    20287536.487
       245.000         216.000
  23642919.356     8630320.35349   6708496.48945  23642920.667    23642925.087
       217.000         161.000
  21397425.050   -10239993.79649  -7963483.26947  21397425.001    21397430.142
       238.000         198.000
 03  4 15 17 14 30.0000000  0  7G 6G10G24G 9G 5G 4G30
  23716743.595    -8087768.48549  -6289825.50545  23716743.330    23716749.386
       217.000         159.000
  21899806.162   -10728291.37149  -8343712.74647  21899805.330    21899812.895
       234.000         188.000
  21220302.885     3179191.68049   2475563.06747  21220303.000    21220308.597
       243.000         206.000
  23818837.934     7894122.75249   6138274.61045  23818837.742    23818847.338
       218.000         161.000
  20285939.488    -4680360.91349  -3631180.51148  20285939.037    20285944.701
       246.000         216.000
  23661751.346     8729283.59049   6785610.64745  23661751.230    23661757.564
       216.000         158.000
  21383797.839   -10311604.55949  -8019283.86347  21383798.115    21383803.546
       239.000         198.000
 03  4 15 17 15  0.0000000  0  7G 6G10G24G 9G 5G 4G30
  23704047.276    -8154488.01649  -6341814.70345  23704046.580    23704054.147
       215.000         159.000
  21885220.720   -10804938.85049  -8403437.98547  21885219.648    21885227.134
       233.000         189.000
  21231713.642     3239155.60049   2522288.19647  21231713.431    21231719.355
       242.000         206.000
  23836300.182     7985886.29249   6209778.49345  23836300.383    23836309.148
       216.000         160.000
  20284446.479    -4688206.97749  -3637294.33148  20284445.920    20284451.532
       245.000         216.000
  23680593.863     8828301.62149   6862767.50545  23680594.266    23680600.008
       213.000         154.000
  21370238.958   -10382856.59749  -8074804.92647  21370239.281    21370244.296
       239.000         199.000
 03  4 15 17 15 30.0000000  0  7G 6G10G24G 9G 5G 4G30
  23691353.783    -8221191.96249  -6393791.77645  23691353.907    23691360.158
       216.000         160.000
  21870708.872   -10881198.57849  -8462861.10547  21870708.374    21870715.394
       233.000         189.000
  21243179.885     3299411.19349   2569240.59547  21243179.653    21243185.619
       242.000         205.000
  23853770.093     8077691.35249   6281314.72245  23853770.878    23853780.180
       215.000         160.000
  20283052.736    -4695530.84949  -3643001.25148  20283052.305    20283057.722
       245.000         216.000
  23699446.525     8927372.38249   6939965.45645  23699446.804    23699453.712
       211.000         149.000
  21356748.874   -10453747.24749  -8130044.38947  21356748.830    21356754.405
       238.000         199.000
 03  4 15 17 16  0.0000000  0  7G 6G10G24G 9G 5G 4G30
  23678663.284    -8287880.89749  -6445757.13445  23678663.302    23678670.105
       218.000         160.000
  21856271.373   -10957068.05949  -8521980.12447  21856270.489    21856277.890
       234.000         189.000
  21254701.090     3359955.30149   2616417.81047  21254701.097    21254706.987
       243.000         206.000
  23871247.441     8169534.36349   6352880.53145  23871248.089    23871256.892
       217.000         160.000
  20281758.529    -4702332.31849  -3648301.10648  20281758.101    20281763.421
       246.000         216.000
  23718308.825     9026493.27149   7017202.47245  23718308.427    23718314.727
       208.000         144.000
  21343327.935   -10524274.64749  -8185000.79247  21343328.261    21343333.356
       239.000         200.000
 03  4 15 17 16 30.0000000  0  7G 6G10G24G 9G 5G 4G30
  23665975.711    -8354554.27249  -6497710.36545  23665975.426    23665981.974
       218.000         160.000
  21841908.892   -11032543.58549  -8580792.17147  21841907.732    21841915.383
       233.000         190.000
  21266276.857     3420786.12749   2663818.44147  21266276.533    21266282.774
       241.000         206.000
  23888731.450     8261412.91749   6424474.03445  23888732.165    23888741.051
       217.000         160.000
  20280563.965    -4708610.00449  -3653192.81948  20280563.488    20280568.753
       245.000         216.000
  23737180.242     9125662.67349   7094477.28945  23737181.291    23737186.547
       203.000         138.000
  21329976.756   -10594435.84149  -8239671.83347  21329976.884    21329982.312
       239.000         200.000
 03  4 15 17 17  0.0000000  0  7G 6G10G24G 9G 5G 4G30
  23653291.096    -8421211.75549  -6549651.22545  23653290.548    23653297.587
       217.000         159.000
  21827621.757   -11107622.02249  -8639294.79147  21827620.163    21827628.173
       233.000         189.000
  21277906.656     3481901.43049   2711440.73647  21277906.652    21277912.897
       241.000         206.000
  23906221.990     8353324.40349   6496093.17645  23906222.537    23906232.406
       217.000         161.000
  20279469.189    -4714362.91849  -3657675.61448  20279468.586    20279474.243
       244.000         216.000
  23756060.278     9224878.83449   7171788.52344  23756061.921    23756064.303
       197.000         131.000
  21316695.659   -10664228.23049  -8294055.49947  21316696.138    21316700.815
       239.000         200.000
 03  4 15 17 17 30.0000000  0  7G 6G10G24G 9G 5G 4G30
  23640609.573    -8487854.09549  -6601580.27145  23640609.117    23640616.508
       216.000         160.000
  21813410.785   -11182301.11049  -8697486.23747  21813410.510    21813417.237
       235.000         190.000
  21289590.180     3543298.59749   2759282.66947  21289590.193    21289596.106
       242.000         205.000
  23923718.053     8445265.09149   6567735.07145  23923718.814    23923728.202
       217.000         161.000
  20278474.320    -4719590.81349  -3661749.31048  20278474.025    20278479.431
       245.000         216.000
  23774948.304     9324138.82349   7249133.94244  23774949.505    23774956.452
       195.000         125.000
  21303485.182   -10733649.97649  -8348150.35447  21303485.514    21303490.492
       240.000         201.000
 03  4 15 17 18  0.0000000  0  7G 6G10G24G 9G 5G 4G30
  23627931.255    -8554479.44049  -6653496.06245  23627930.924    23627938.300
       217.000         161.000
  21799276.693   -11256576.06149  -8755362.76647  21799275.326    21799282.936
       234.000         190.000
  21301327.288     3604977.07449   2807343.81047  21301327.068    21301333.268
       241.000         205.000
  23941219.226     8537233.83849   6639398.82445  23941219.439    23941230.000
       218.000         161.000
  20277579.929    -4724290.88849  -3665411.71548  20277579.384    20277585.007
       245.000         216.000
  23793844.834     9423442.81048   7326513.59444  23793844.314    23793846.990
       190.000         118.000
  21290346.031   -10802696.77049  -8401953.04047  21290346.180    21290351.399
       239.000         201.000
 03  4 15 17 18 30.0000000  0  7G 6G10G24G 9G 5G 4G30
  23615255.808    -8621089.65649  -6705400.08445  23615255.759    23615262.384
       216.000         161.000
  21785219.590   -11330445.73749  -8812923.49047  21785218.747    21785226.322
       232.000         190.000
  21313117.049     3666932.71249   2855620.92347  21313116.856    21313123.420
       241.000         204.000
  23958724.918     8629226.05249   6711080.86645  23958725.549    23958735.149
       216.000         161.000
  20276785.640    -4728464.54449  -3668663.92548  20276785.324    20276791.036
       244.000         216.000
  23812749.211     9522786.63548   7403924.31844                  23812746.828
       186.000         111.000
  21277278.228   -10871368.21349  -8455463.24247  21277278.736    21277283.720
       240.000         202.000
 03  4 15 17 19  0.0000000  0  7G 6G10G24G 9G 5G 4G30
  23602583.151    -8687684.18449  -6757291.89445  23602583.172    23602588.924
       218.000         161.000
  21771240.484   -11403906.29349  -8870165.43247  21771239.934    21771247.092
       234.000         191.000
  21324959.168     3729163.68849   2904112.58147  21324959.018    21324965.278
       241.000         204.000
  23976234.719     8721239.56149   6782779.50645  23976235.737    23976245.137
       216.000         159.000
  20276091.907    -4732110.46249  -3671504.91048  20276091.724    20276097.213
       245.000         217.000
  23831661.043     9622169.13248   7481365.21344                  23831661.814
       185.000         106.000
  21264282.602   -10939661.25249  -8508678.58947  21264283.063    21264287.732
       241.000         202.000
 03  4 15 17 19 30.0000000  0  7G 6G10G24G 9G 5G 4G30
  23589913.608    -8754262.89849  -6809171.36145  23589912.324    23589920.217
       221.000         161.000
  21757339.977   -11476954.36649  -8927085.95847  21757339.547    21757345.978
       233.000         190.000
  21336853.305     3791667.68349   2952816.96847  21336853.164    21336859.460
       241.000         204.000
  23993747.919     8813271.34949   6854492.39245  23993748.893    23993757.546
       215.000         158.000
  20275498.831    -4735227.59449  -3673933.85548  20275498.435    20275504.121
       245.000         217.000
  23850579.970     9721588.17148   7558834.46744                  23850579.467
       183.000         103.000
  21251359.414   -11007573.27149  -8561597.04047  21251359.460    21251364.411
       241.000         202.000
 03  4 15 17 20  0.0000000  0  7G 6G10G24G 9G 5G 4G30
  23577247.032    -8820826.47449  -6861039.02945  23577247.741    23577253.003
       219.000         162.000
  21743518.196   -11549588.08249  -8983683.59747  21743517.136    21743524.412
       233.000         190.000
  21348798.849     3854441.92249   3001731.94847  21348798.514    21348804.620
       240.000         204.000
  24011264.149     8905318.14549   6926216.95245  24011266.006    24011274.216
       217.000         158.000
  20275006.296    -4737816.13549  -3675950.90848  20275005.696    20275011.279
       245.000         216.000
                   9821041.215 8   1340999.224 1
       173.000
  21238508.992   -11075102.60949  -8614217.29847  21238509.066    21238513.785
       240.000         202.000
 03  4 15 17 20 30.0000000  0  7G 6G10G24G 9G 5G 4G30
  23564583.625    -8887374.19949  -6912894.35745  23564583.278    23564590.110
       219.000         162.000
  21729775.962   -11621803.68449  -9039955.44447  21729775.040    21729782.649
       233.000         190.000
  21360795.443     3917484.73149   3050856.19747  21360795.159    21360801.530
       241.000         204.000
  24028783.020     8997377.62949   6997951.40045  24028784.049    24028792.032
       218.000         158.000
  20274614.545    -4739874.65449  -3677554.96148  20274614.017    20274619.304
       244.000         215.000
                   9920527.08048   -273363.71743
       173.000          74.000
  21225731.912   -11142246.07449  -8666536.87847  21225732.091    21225737.087
       240.000         202.000
 03  4 15 17 21  0.0000000  0  7G 6G10G24G 9G 5G 4G30
  23551922.824    -8953906.71349  -6964737.83245  23551922.593    23551928.922
       217.000         161.000
  21716113.767   -11693598.88749  -9095899.70247  21716112.658    21716119.851
       233.000         190.000
  21372842.735     3980793.16849   3100187.41547  21372842.949    21372848.612
       241.000         204.000
  24046303.558     9089445.95349   7069692.72845  24046304.160    24046312.845
       219.000         158.000
  20274323.589    -4741403.24149  -3678746.08348  20274323.008    20274328.466
       244.000         215.000
                  10020042.63548   -195876.38143
       172.000          74.000
  21213028.574   -11209002.15349  -8718554.59547  21213028.986    21213033.973
       241.000         203.000
 03  4 15 17 21 30.0000000  0  7G 6G10G24G 9G 5G 4G30
  23539264.860    -9020424.91049  -7016570.15045  23539264.846    23539270.778
       219.000         162.000
  21702531.958   -11764971.65749  -9151514.80447  21702531.220    21702538.027
       235.000         190.000
  21384939.903     4044363.89449   3149723.03847  21384939.844    21384945.601
       241.000         203.000
  24063824.953     9181519.57549   7141438.16045  24063824.991    24063833.064
       217.000         158.000
  20274133.438    -4742402.23749  -3679524.52948  20274132.820    20274138.575
       244.000         215.000
                  10119585.26248   -118367.93243
       175.000          74.000
  21200399.391   -11275369.35849  -8770269.28647  21200399.809    21200404.278
       241.000         203.000
 03  4 15 17 22  0.0000000  0  7G 6G10G24G 9G 5G 4G30
  23526609.754    -9086927.88849  -7068390.62145  23526609.797    23526615.838
       220.000         162.000
  21689031.198   -11835918.32449  -9206797.86647  21689030.397    21689037.818
       234.000         191.000
  21397086.659     4108195.51849   3199461.95847  21397086.475    21397092.675
       241.000         202.000
  24081346.760     9273596.35049   7213186.07445  24081346.331    24081354.804
       217.000         157.000
  20274044.366    -4742870.06749  -3679889.08848  20274043.782    20274049.708
       244.000         215.000
                  10219153.74257   -272314.67543
       164.000          74.000
  21187844.780   -11341344.47149  -8821678.45047  21187845.100    21187850.022
       241.000         203.000
 03  4 15 17 22 30.0000000  0  7G 6G10G24G 9G 5G 4G30
  23513958.049    -9153411.88449  -7120196.29245  23513957.146    23513963.807
       219.000         162.000
  21675612.696   -11906432.34749  -9261743.80747  21675611.536    21675619.145
       234.000         191.000
  21409283.343     4172289.11049   3249405.00947  21409283.322    21409289.574
       241.000         202.000
  24098869.056     9365677.08049   7284937.08845  24098868.271    24098877.698
       214.000         155.000
  20274057.296    -4742802.35349  -3679836.33548  20274056.972    20274062.635
       244.000         215.000
                  10318749.99348   -194681.49943
       169.000          74.000
  21175365.951   -11406921.36949  -8872777.31647  21175366.089    21175370.971
       241.000         204.000
 03  4 15 17 23  0.0000000  0  7G 6G10G24G 9G 5G 4G30
  23501309.805    -9219878.11349  -7171988.13245  23501310.581    23501316.043
       218.000         162.000
  21662276.917   -11976512.13649  -9316351.40047  21662275.809    21662282.528
       234.000         191.000
  21421529.211     4236641.44949   3299549.67347  21421528.824    21421535.590
       240.000         203.000
  24116391.329     9457757.77749   7356688.05345  24116390.540    24116401.759
       213.000         155.000
  20274171.943    -4742199.96049  -3679366.95448  20274171.463    20274177.452
       244.000         215.000
                  10418370.80758   -117029.22343
       167.000          74.000
  21162963.061   -11472099.00449  -8923565.07847  21162963.555    21162968.357
       241.000         204.000
 03  4 15 17 23 30.0000000  0  7G 6G10G24G 9G 5G 4G30
  23488665.050    -9286327.50049  -7223766.84945  23488664.436    23488670.842
       219.000         162.000
  21649024.284   -12046155.78949  -9370619.13047  21649023.513    21649030.422
       235.000         192.000
  21433823.673     4301249.03349   3349893.21947  21433823.613    21433829.972
       241.000         203.000
  24133913.011     9549834.43449   7428435.85845  24133913.709    24133922.734
       212.000         154.000
  20274388.219    -4741063.35949  -3678481.29848  20274387.823    20274393.716
       244.000         215.000
                  10518012.70257   -271744.10443
       161.000          74.000
  21150636.442   -11536876.01749  -8974040.66347  21150636.929    21150641.827
       242.000         204.000
 03  4 15 17 24  0.0000000  0  7G 6G10G24G 9G 5G 4G30
  23476023.116    -9352761.01749  -7275533.19545  23476023.027    23476029.337
       219.000         162.000
  21635854.903   -12115361.02249  -9424545.21947  21635853.930    21635861.061
       234.000         192.000
  21446166.207     4366108.95049   3400433.39947  21446166.008    21446172.290
       240.000         203.000
  24151433.242     9641903.28149   7500177.57345  24151432.981    24151443.447
       212.000         154.000
  20274706.128    -4739392.95549  -3677179.69948  20274705.693    20274711.699
       244.000         216.000
                  10617672.25057   -194206.53943
       158.000          74.000
  21138386.364   -11601251.03649  -9024203.01447  21138386.869    21138391.563
       242.000         204.000
 03  4 15 17 24 30.0000000  0  7G 6G10G24G 9G 5G 4G30
  23463384.302    -9419178.38649  -7327286.96746  23463384.917    23463390.885
       220.000         164.000
  21622769.578   -12184125.02049  -9478127.51647  21622768.829    21622775.696
       236.000         193.000
  21458556.141     4431218.83849   3451168.36447  21458555.951    21458562.506
       240.000         202.000
  24168951.625     9733961.61349   7571911.10245  24168950.903    24168961.304
       214.000         154.000
  20275125.761    -4737188.00949  -3675461.57348  20275125.283    20275131.220
       245.000         216.000
                  10717349.52157   -116655.14543
       164.000          74.000
  21126213.239   -11665221.51949  -9074050.14147  21126213.377    21126218.447
       242.000         205.000
 03  4 15 17 25  0.0000000  0  7G 6G10G24G 9G 5G 4G30
  23450748.542    -9485579.72949  -7379028.24546  23450748.275    23450754.881
       221.000         164.000
  21609768.658   -12252445.00149  -9531363.81847  21609767.579    21609774.781
       234.000         192.000
  21470993.223     4496576.18749   3502096.14947  21470993.291    21470999.187
       239.000         201.000
  24186467.257     9826006.46949   7643634.11645  24186467.567    24186478.224
       213.000         154.000
  20275647.227    -4734448.03349  -3673326.54748  20275646.952    20275652.526
       245.000         216.000
                  10817042.66257   -272836.01143
       163.000          74.000
  21114117.493   -11728785.18649  -9123580.26447  21114117.651    21114122.450
       241.000         205.000
 03  4 15 17 25 30.0000000  0  6G 6G10G24G 9G 5G30
  23438116.448    -9551962.10049  -7430754.72046  23438115.920    23438123.062
       220.000         165.000
  21596853.282   -12320315.29749  -9584249.69647  21596852.190    21596859.398
       235.000         192.000
  21483477.539     4562181.73849   3553217.34547  21483477.398    21483483.411
       240.000         201.000
  24203980.408     9918038.03349   7715346.78545  24203980.603    24203990.118
       213.000         154.000
  20276271.189    -4731169.49949  -3670771.85948  20276271.240    20276276.236
       246.000         216.000
  21102099.946   -11791936.95149  -9172789.43047  21102100.230    21102104.967
       242.000         205.000
 03  4 15 17 26  0.0000000  0  6G 6G10G24G 9G 5G30
  23425487.557    -9618326.26449  -7482467.02446  23425487.852    23425493.157
       219.000         165.000
  21584023.934   -12387733.99749  -9636783.71647  21584023.471    21584029.792
       235.000         192.000
  21496008.472     4628032.18849   3604529.37647  21496008.303    21496014.394
       239.000         200.000
  24221490.285    10010052.62949   7787046.24045  24221491.630    24221500.090
       215.000         153.000
  20276997.608    -4727353.03949  -3667798.00748  20276997.187    20277002.568
       245.000         216.000
  21090161.251   -11854675.13749  -9221676.31847  21090161.445    21090166.550
       242.000         205.000
 03  4 15 17 26 30.0000000  0  6G 6G10G24G 9G 5G30
  23412862.162    -9684673.50549  -7534166.14346  23412862.722    23412867.888
       223.000         166.000
  21571280.858   -12454699.37849  -9688964.47947  21571279.564    21571286.704
       235.000         193.000
  21508585.226     4694123.77049   3656029.29147  21508585.196    21508591.361
       239.000         200.000
  24238996.414    10102046.06249   7858729.20545  24238997.351    24239007.256
       215.000         153.000
  20277826.066    -4722999.58449  -3664405.72448  20277825.783    20277831.048
       245.000         216.000
  21078301.521   -11916998.93549  -9270240.30947  21078301.985    21078306.853
       242.000         205.000
 03  4 15 17 27  0.0000000  0  6G 6G10G24G 9G 5G30
  23400239.799    -9751005.26949  -7585853.18446  23400240.201    23400246.068
       220.000         166.000
  21558624.115   -12521210.58049  -9740791.34547  21558623.016    21558630.125
       236.000         193.000
  21521207.209     4760452.84449   3707714.26747  21521207.058    21521213.086
       238.000         200.000
  24256497.622    10194013.77749   7930392.12245  24256498.276    24256507.853
       214.000         153.000
  20278756.504    -4718110.37549  -3660595.96448  20278756.129    20278761.361
       245.000         216.000
  21066520.822   -11978907.60249  -9318480.81547  21066521.191    21066525.865
       242.000         205.000
 03  4 15 17 27 30.0000000  0  6G 6G10G24G 9G 5G30
  23387620.555    -9817319.27849  -7637526.40246  23387620.527    23387626.766
       221.000         166.000
  21546054.824   -12587262.75049  -9792260.52247  21546053.737    21546060.478
       236.000         194.000
  21533874.375     4827019.25349   3759584.17447  21533874.129    21533880.582
       240.000         200.000
  24273993.550    10285955.13149   8002034.47345  24273992.635    24274003.470
       214.000         152.000
  20279789.252    -4712683.03549  -3656366.89248  20279788.764    20279794.008
       246.000         215.000
  21054819.824   -12040396.75349  -9366394.43147  21054819.961    21054824.784
       243.000         205.000
 03  4 15 17 28  0.0000000  0  6G 6G10G24G 9G 5G30
  23375004.604    -9883615.77049  -7689185.96146  23375004.631    23375010.485
       221.000         165.000
  21533573.319   -12652853.36149  -9843370.04747  21533572.568    21533578.416
       236.000         194.000
  21546586.222     4893820.11549   3811636.77247  21546586.618    21546592.503
       240.000         201.000
  24291484.062    10377867.03549   8073653.89745  24291484.415    24291494.232
       212.000         152.000
  20280924.511    -4706717.48749  -3651718.42948  20280923.899    20280929.155
       245.000         215.000
  21043198.967   -12101464.41449  -9413979.61147  21043199.556    21043204.029
       242.000         205.000
 03  4 15 17 28 30.0000000  0  6G 6G10G24G 9G 5G30
  23362392.017    -9949895.29149  -7740832.32246  23362391.223    23362397.917
       221.000         165.000
  21521180.107   -12717980.38649  -9894118.33747  21521179.957    21521186.111
       237.000         195.000
  21559342.188     4960852.67549   3863869.92147  21559342.488    21559348.173
       240.000         201.000
  24308968.108    10469745.93749   8145247.58845  24308968.341    24308978.978
       213.000         153.000
  20282162.084    -4700214.08849  -3646650.86148  20282161.292    20282166.650
       245.000         215.000
  21031658.709   -12162108.93549  -9461235.07647  21031658.836    21031663.244
       242.000         205.000
 03  4 15 17 29  0.0000000  0  6G 6G10G24G 9G 5G30
  23349783.179   -10016155.95849  -7792463.97646  23349783.301    23349790.029
       222.000         165.000
  21508876.123   -12782639.16449  -9944501.74947  21508875.425    21508881.685
       237.000         196.000
  21572142.136     5028116.51449   3916283.28447  21572142.217    21572148.074
       240.000         200.000
  24326445.896    10561590.99749   8216814.91745  24326446.931    24326455.590
       215.000         153.000
  20283502.350    -4693170.59949  -3641162.44948  20283501.754    20283507.455
       246.000         216.000
  21020199.580   -12222326.44349  -9508157.80747  21020199.898    21020204.664
       242.000         205.000
 03  4 15 17 29 30.0000000  0  6G 6G10G24G 9G 5G30
  23337177.431   -10082400.34449  -7844082.92746  23337176.459    23337183.156
       222.000         167.000
  21496660.970   -12846829.88549  -9994520.44447  21496659.812    21496666.303
       236.000         195.000
  21584985.181     5095606.91349   3968873.18947  21584985.296    21584991.002
       240.000         199.000
  24343916.172    10653396.57449   8288351.46645  24343917.067    24343927.352
       214.000         152.000
  20284945.059    -4685589.37449  -3635255.02048  20284944.805    20284950.204
       246.000         216.000
  21008821.809   -12282117.11149  -9554747.93547  21008822.265    21008826.791
       243.000         205.000
 03  4 15 17 30  0.0000000  0  6G 6G10G24G 9G 5G30
  23324574.940   -10148625.54549  -7895686.94346  23324574.563    23324580.302
       221.000         166.000
  21484536.013   -12910546.88549 -10044170.01547  21484535.426    21484542.310
       238.000         197.000
  21597871.350     5163323.89949   4021639.65547  21597871.275    21597877.187
       239.000         199.000
  24361378.937    10745162.96149   8359857.48345  24361379.498    24361389.284
       213.000         151.000
  20286490.669    -4677467.44449  -3628926.26148  20286490.265    20286495.843
       245.000         216.000
  20997526.195   -12341476.08449  -9601001.67547  20997525.965    20997531.122
       242.000         205.000
 03  4 15 17 30 30.0000000  0  6G 6G10G24G 9G 5G30
  23311976.152   -10214831.95249  -7947276.32546  23311976.385    23311981.969
       222.000         166.000
  21472501.614   -12973788.10249 -10093448.84447  21472500.467    21472507.481
       237.000         197.000
  21610800.095     5231264.95649   4074580.72247  21610800.004    21610806.211
       239.000         199.000
  24378833.546    10836886.47449   8431330.07745  24378833.475    24378843.732
       212.000         151.000
  20288139.035    -4668805.20649  -3622176.48048  20288138.824    20288144.122
       246.000         216.000
  20986312.971   -12400401.50649  -9646917.58747  20986313.188    20986318.099
       242.000         205.000
 03  4 15 17 31  0.0000000  0  6G 6G10G24G 9G 5G30
  23299381.018   -10281020.12049  -7998851.48146  23299381.624    23299386.446
       220.000         166.000
  21460558.084   -13036551.29749 -10142355.19047  21460557.425    21460564.118
       237.000         197.000
  21623770.922     5299426.97949   4127693.97547  21623770.945    21623777.187
       240.000         200.000
  24396279.446    10928563.97449   8502766.82445  24396279.807    24396289.498
       211.000         152.000
  20289890.214    -4659603.03549  -3615005.97148  20289889.912    20289895.218
       246.000         216.000
  20975182.600   -12458891.74449  -9692494.38647  20975182.823    20975187.655
       242.000         205.000
 03  4 15 17 31 30.0000000  0  6G 6G10G24G 9G 5G30
  23286789.439   -10347189.27249  -8050411.83446  23286789.171    23286795.508
       220.000         167.000
  21448706.175   -13098833.77049 -10190886.93847  21448705.370    21448712.280
       238.000         198.000
  21636783.528     5367808.46149   4180978.23647  21636783.287    21636789.442
       240.000         201.000
  24413716.085    11020193.23949   8574165.98745  24413717.505    24413727.405
       212.000         151.000
  20291744.228    -4649860.23349  -3607414.19448  20291743.648    20291749.127
       245.000         216.000
  20964135.643   -12516944.17549  -9737730.03447  20964136.220    20964140.632
       243.000         206.000
 03  4 15 17 32  0.0000000  0  6G 6G10G24G 9G 5G30
  23274201.455   -10413339.84949  -8101957.69946  23274201.396    23274207.829
       221.000         166.000
  21436946.152   -13160633.17649 -10239042.27247  21436945.202    21436951.991
       238.000         197.000
  21649837.261     5436406.38449   4234431.13647  21649837.270    21649843.437
       240.000         201.000
  24431143.048    11111770.77749   8645524.83445  24431143.002    24431153.680
       213.000         150.000
  20293701.041    -4639576.98849  -3599401.29648  20293700.723    20293705.999
       246.000         216.000
  20953172.302   -12574557.18449  -9782623.28447  20953172.570    20953177.133
       244.000         206.000
 03  4 15 17 32 30.0000000  0  6G 6G10G24G 9G 5G30
  23261617.062   -10479471.07449  -8153488.49746  23261616.378    23261622.752
       220.000         166.000
  21425278.588   -13221946.40849 -10286818.78747  21425277.969    21425284.224
       238.000         198.000
  21662931.900     5505219.12549   4288051.43147  21662931.934    21662937.413
       239.000         199.000
  24448559.823    11203294.65149   8716841.86145  24448561.123    24448569.699
       213.000         150.000
  20295760.880    -4628752.55549  -3590966.69148  20295760.537    20295765.929
       246.000         216.000
  20942293.065   -12631727.83049  -9827171.84047  20942293.402    20942298.052
       243.000         206.000
 03  4 15 17 33  0.0000000  0  6G 6G10G24G 9G 5G30
  23249036.285   -10545582.56249  -8205003.91446  23249036.697    23249042.085
       221.000         167.000
  21413704.039   -13282770.66649 -10334214.27047  21413703.252    21413710.114
       238.000         198.000
  21676067.070     5574244.51449   4341837.44347  21676067.041    21676073.056
       239.000         199.000
  24465965.890    11294762.14749   8788114.97645  24465965.515    24465976.799
       212.000         150.000
  20297923.718    -4617386.57949  -3582110.10848  20297923.420    20297929.000
       246.000         216.000
  20931498.498   -12688453.78149  -9871373.88147  20931498.775    20931503.579
       243.000         207.000
 03  4 15 17 33 30.0000000  0  6G 6G10G24G 9G 5G30
  23236459.405   -10611674.47349  -8256504.06646  23236458.994    23236465.844
       222.000         168.000
  21402223.011   -13343103.68849 -10381226.98447  21402222.310    21402228.348
       239.000         199.000
  21689242.226     5643480.54849   4395787.58747  21689242.290    21689247.738
       239.000         198.000
  24483360.265    11386170.28749   8859341.81845  24483360.732    24483370.268
       213.000         151.000
  20300189.673    -4605479.13649  -3572831.59748  20300189.281    20300195.024
       246.000         217.000
  20920788.824   -12744733.03249  -9915227.83847  20920789.019    20920794.254
       242.000         207.000
 03  4 15 17 34  0.0000000  0  6G 6G10G24G 9G 5G30
  23223886.533   -10677746.20349  -8307988.48246  23223886.538    23223892.583
       223.000         169.000
  21390836.184   -13402942.42649 -10427854.55147  21390835.323    21390841.800
       239.000         199.000
  21702457.143     5712925.03549   4449900.15247  21702457.411    21702462.907
       240.000         198.000
  24500743.196    11477516.84949   8930520.69045  24500742.909    24500753.890
       212.000         151.000
  20302558.702    -4593029.88949  -3563130.90348  20302558.331    20302563.918
       246.000         217.000
  20910164.725   -12800562.99349  -9958731.70847  20910165.214    20910169.817
       244.000         207.000
 03  4 15 17 34 30.0000000  0  6G 6G10G24G 9G 5G30
  23211317.379   -10743797.43249  -8359456.93746  23211317.140    23211323.180
       222.000         169.000
  21379543.745   -13462284.29949 -10474094.92847  21379542.920    21379549.333
       238.000         199.000
  21715711.374     5782576.01349   4504173.63547  21715711.236    21715717.529
       239.000         198.000
  24518113.718    11568799.24249   9001649.54245  24518114.353    24518124.497
       210.000         150.000
  20305030.788    -4580038.81349  -3553008.00148  20305030.300    20305036.269
       245.000         216.000
  20899626.641   -12855941.59649 -10001883.86047  20899627.239    20899631.876
       244.000         208.000
 03  4 15 17 35  0.0000000  0  6G 6G10G24G 9G 5G30
  23198752.016   -10809828.63749  -8410909.79046  23198751.788    23198758.049
       222.000         168.000
  21368346.290   -13521127.20549 -10519946.51147  21368345.552    21368352.156
       238.000         199.000
  21729004.185     5852430.56949   4558605.74847  21729004.153    21729010.150
       238.000         197.000
  24535471.535    11660014.16549   9072725.83545  24535471.047    24535482.293
       210.000         149.000
  20307605.964    -4566506.26149  -3542463.17548  20307605.697    20307611.221
       246.000         217.000
  20889174.731   -12910867.15249 -10044682.99047  20889175.215    20889179.843
       244.000         209.000
 03  4 15 17 35 30.0000000  0  6G 6G10G24G 9G 5G30
  23186190.543   -10875838.96649  -8462346.36146  23186189.975    23186196.460
       221.000         168.000
  21357244.354   -13579468.02149 -10565406.84247  21357243.398    21357250.255
       238.000         199.000
  21742335.478     5922486.93949   4613195.11347  21742334.935    21742341.297
       237.000         197.000
  24552816.148    11751159.67849   9143748.02545  24552815.989    24552826.971
       213.000         148.000
  20310284.405    -4552431.56849  -3531495.89648  20310283.743    20310289.617
       245.000         217.000
  20878809.580   -12965336.73049 -10087126.81447  20878810.011    20878814.548
       243.000         209.000
 03  4 15 17 36  0.0000000  0  7G 6G10G17G24G 9G 5G30
  23173632.307   -10941832.86949  -8513770.15146  23173632.208    23173638.016
       222.000         168.000
  21346237.618   -13637308.81549 -10610477.56947  21346236.578    21346243.675
       239.000         199.000
  25035254.482     -956716.80749   -731898.62645  25035254.214    25035265.852
       204.000         137.000
  21755703.960     5992738.55649   4667936.59747  21755704.179    21755710.260
       239.000         198.000
  24570146.314    11842228.40949   9214710.40945  24570146.811    24570157.129
       213.000         147.000
  20313065.016    -4537819.27649  -3520109.71848  20313064.558    20313070.329
       246.000         217.000
  20868530.614   -13019352.96449 -10129217.38047  20868531.147    20868535.631
       244.000         209.000
 03  4 15 17 36 30.0000000  0  7G 6G10G17G24G 9G 5G30
  23161078.229   -11007805.33149  -8565177.22146  23161078.219    23161083.971
       222.000         168.000
  21335327.268   -13694642.39149 -10655153.04847  21335326.201    21335333.106
       239.000         199.000
  25018357.276    -1045510.73449   -801088.40845  25018356.322    25018369.344
       206.000         137.000
  21769110.187     6063187.74249   4722832.04247  21769109.939    21769116.082
       237.000         197.000
  24587462.002    11933222.35249   9285614.52145  24587461.894    24587472.541
       210.000         145.000
  20315948.861    -4522664.69549  -3508300.96848  20315948.561    20315953.966
       248.000         216.000
  20858339.253   -13072909.01649 -10170949.36247  20858339.462    20858344.420
       244.000         209.000
 03  4 15 17 37  0.0000000  0  7G 6G10G17G24G 9G 5G30
  23148528.242   -11073756.04049  -8616567.35446  23148528.457    23148533.292
       222.000         169.000
  21324514.086   -13751466.46849 -10699431.51247  21324513.377    21324519.513
       239.000         199.000
  25001486.329    -1134167.39049   -870171.28645  25001485.712    25001496.792
       208.000         138.000
  21782553.425     6133832.26449   4777879.70947  21782552.932    21782559.592
       236.000         196.000
  24604762.849    12024138.60649   9356458.08645  24604762.707    24604775.615
       208.000         144.000
  20318935.882    -4506967.84949  -3496069.67648  20318935.514    20318941.002
       247.000         216.000
  20848235.802   -13126002.77749 -10212321.10947  20848235.647    20848240.795
       243.000         209.000
 03  4 15 17 37 30.0000000  0  7G 6G10G17G24G 9G 5G30
  23135982.888   -11139683.46049  -8667939.32546  23135982.293    23135987.861
       222.000         169.000
  21313798.464   -13807777.08149 -10743309.88347  21313797.415    21313803.793
       238.000         198.000
  24984642.189    -1222683.96049   -939145.00245  24984640.793    24984653.213
       200.000         137.000
  21796033.571     6204671.61849   4833079.18447  21796032.681    21796039.243
       235.000         194.000
  24622048.732    12114976.16149   9427240.27645  24622050.089    24622060.244
       209.000         145.000
  20322026.394    -4490727.29249  -3483414.71548  20322026.134    20322031.592
       248.000         217.000
  20838220.910   -13178630.55149 -10253329.76047  20838220.930    20838225.977
       242.000         209.000
 03  4 15 17 38  0.0000000  0  7G 6G10G17G24G 9G 5G30
  23123441.626   -11205587.55249  -8719293.14446  23123442.244    23123447.688
       224.000         170.000
  21303180.956   -13863572.17649 -10786786.55047  21303179.905    21303186.315
       238.000         199.000
  24967824.233    -1311060.42349  -1008009.47945  24967822.346    24967834.352
       202.000         135.000
  21809550.220     6275703.01449   4888428.32047  21809550.173    21809556.178
       236.000         193.000
  24639319.413    12205731.97749   9497958.82245  24639320.683    24639330.583
       211.000         147.000
  20325220.310    -4473943.45149  -3470336.40848  20325219.733    20325225.320
       248.000         217.000
  20828295.053   -13230790.72849 -10293974.04447  20828295.101    20828300.189
       242.000         209.000
 03  4 15 17 38 30.0000000  0  7G 6G10G17G24G 9G 5G30
  23110904.937   -11271469.31849  -8770629.54346  23110904.684    23110910.524
       223.000         170.000
  21292661.691   -13918850.90949 -10829860.85647  21292661.147    21292667.602
       239.000         199.000
  24951033.109    -1399296.76849  -1076764.81545  24951032.320    24951044.320
       207.000         137.000
  21823102.914     6346923.10849   4943924.48547  21823102.560    21823109.252
       237.000         193.000
  24656573.711    12296402.27349   9568610.72345  24656574.788    24656585.467
       213.000         148.000
  20328517.277    -4456617.70749  -3456835.84648  20328516.881    20328522.292
       248.000         216.000
  20818458.398   -13282482.28049 -10334253.16147  20818458.851    20818463.661
       243.000         209.000
 03  4 15 17 39  0.0000000  0  7G 6G10G17G24G 9G 5G30
  23098372.682   -11337327.18149  -8821947.32246  23098371.860    23098377.865
       222.000         169.000
  21282241.489   -13973609.17849 -10872529.61547  21282240.661    21282247.446
       239.000         200.000
  24934269.564    -1487390.53349  -1145409.06045  24934267.536    24934280.978
       205.000         138.000
  21836691.429     6418331.06549   4999567.02247  21836691.373    21836697.726
       236.000         194.000
  24673811.672    12386985.72149   9639194.95145  24673812.555    24673823.205
       212.000         150.000
  20331917.608    -4438748.78149  -3442912.03348  20331917.127    20331922.479
       247.000         216.000
  20808711.631   -13333702.00349 -10374164.62947  20808712.178    20808716.855
       244.000         210.000
 03  4 15 17 39 30.0000000  0  7G 6G10G17G24G 9G 5G30
  23085844.360   -11403162.67949  -8873247.68346  23085842.814    23085850.097
       221.000         169.000
  21271920.509   -14027846.51149 -10914792.43447  21271919.377    21271926.672
       240.000         200.000
  24917532.537    -1575342.74749  -1213942.98945  24917530.513    24917543.858
       205.000         137.000
  21850314.911     6489922.98549   5055352.90447  21850315.172    21850321.138
       238.000         195.000
  24691031.989    12477478.03949   9709708.16445  24691032.394    24691043.713
       213.000         150.000
  20335420.922    -4420338.57049  -3428566.42748  20335420.291    20335426.075
       248.000         216.000
  20799054.722   -13384449.61449 -10413708.21047  20799055.384    20799060.071
       245.000         210.000
 03  4 15 17 40  0.0000000  0  7G 6G10G17G24G 9G 5G30
  23073320.513   -11468974.01649  -8924529.20546  23073320.393    23073326.613
       221.000         170.000
  21261699.343   -14081558.99349 -10956646.30047  21261698.163    21261705.166
       239.000         200.000
  24900823.154    -1663150.66349  -1282364.47145  24900821.700    24900834.708
       203.000         138.000
  21863973.408     6561698.26649   5111281.65547  21863973.656    21863979.607
       239.000         196.000
  24708234.730    12567877.99149   9780149.40845  24708234.845    24708247.212
       209.000         149.000
  20339027.584    -4401385.61449  -3413797.91248  20339027.184    20339032.684
       248.000         216.000
  20789488.450   -13434721.31149 -10452880.95447  20789488.976    20789493.570
       245.000         210.000
 03  4 15 17 40 30.0000000  0  7G 6G10G17G24G 9G 5G30
  23060801.577   -11534760.91849  -8975791.69046  23060801.839    23060807.206
       222.000         170.000
  21251578.375   -14134744.46849 -10998089.50547  21251577.799    21251584.006
       239.000         200.000
  24884141.126    -1750813.49949  -1350672.88745  24884140.858    24884153.011
       206.000         139.000
  21877666.453     6633654.63449   5167351.53347  21877666.227    21877672.624
       238.000         196.000
  24725419.100    12658183.00849   9850516.68745  24725418.499    24725431.447
       208.000         146.000
  20342737.498    -4381890.23049  -3398606.73148  20342737.386    20342742.489
       248.000         216.000
  20780013.016   -13484515.27449 -10491681.44847  20780013.436    20780017.972
       244.000         210.000
 03  4 15 17 41  0.0000000  0  7G 6G10G17G24G 9G 5G30
  23048287.034   -11600525.30549  -9027036.64346  23048287.423    23048292.425
       223.000         171.000
  21241557.901   -14187402.58849 -11039121.77147  21241557.296    21241563.557
       240.000         200.000
  24867486.661    -1838332.30149  -1418869.09445  24867485.888    24867497.237
       204.000         140.000
  21891393.038     6705787.81549   5223559.19947  21891392.944    21891398.609
       237.000         194.000
  24742584.588    12748388.09249   9920806.07345  24742584.465    24742596.360
       206.000         144.000
  20346550.214    -4361854.85949  -3382994.77248  20346549.697    20346555.188
       247.000         216.000
  20770628.451   -13533831.43749 -10530109.62347  20770629.093    20770633.582
       244.000         210.000
 03  4 15 17 41 30.0000000  0  7G 6G10G17G24G 9G 5G30
  23035777.521   -11666263.50249  -9078261.17946  23035777.473    23035783.172
       222.000         170.000
  21231638.943   -14239527.76249 -11079738.75547  21231638.602    21231644.734
       241.000         202.000
  24850860.604    -1925703.50949  -1486950.30145  24850859.698    24850870.515
       207.000         139.000
  21905153.409     6778099.14549   5279905.66547  21905153.238    21905159.515
       238.000         194.000
  24759731.323    12838494.21049   9991018.34545  24759731.814    24759744.037
       210.000         144.000
  20350466.147    -4341276.40649  -3366959.63948  20350465.856    20350471.141
       248.000         216.000
  20761335.811   -13582664.53649 -10568161.38747  20761336.126    20761341.019
       245.000         210.000
 03  4 15 17 42  0.0000000  0  7G 6G10G17G24G 9G 5G30
  23023272.241   -11731979.05049  -9129468.07846  23023272.290    23023277.672
       223.000         171.000
  21221821.042   -14291121.71049 -11119941.79847  21221820.130    21221826.692
       240.000         202.000
  24834262.175    -2012929.41449  -1554918.29145  24834262.048    24834271.006
       206.000         140.000
  21918946.612     6850582.63649   5336386.29147  21918946.119    21918952.519
       238.000         195.000
  24776858.273    12928495.00649  10061148.56845  24776858.388    24776870.498
       208.000         143.000
  20354484.759    -4320158.80049  -3350504.37848  20354484.274    20354490.065
       248.000         216.000
  20752134.724   -13631016.46449 -10605838.21547  20752135.016    20752140.041
       245.000         210.000
 03  4 15 17 42 30.0000000  0  7G 6G10G17G24G 9G 5G30
  23010771.649   -11797670.87149  -9180656.47246  23010771.604    23010776.916
       222.000         171.000
  21212104.672   -14342181.19249 -11159728.37347  21212104.336    21212110.146
       241.000         202.000
  24817691.556    -2100008.22449  -1622771.65845  24817688.951    24817699.811
       205.000         138.000
  21932772.338     6923236.87249   5392999.96347  21932772.128    21932778.355
       238.000         195.000
  24793964.501    13018388.42349  10131195.09545  24793963.286    24793977.156
       209.000         143.000
  20358606.030    -4298501.48549  -3333628.56948  20358605.551    20358611.381
       247.000         217.000
  20743025.751   -13678884.30949 -10643137.83947  20743026.272    20743031.066
       245.000         210.000
 03  4 15 17 43  0.0000000  0  7G 6G10G17G24G 9G 5G30
  22998275.940   -11863335.54749  -9231823.71646  22998275.415    22998281.926
       223.000         171.000
  21202491.207   -14392701.08549 -11199094.50647  21202490.261    21202496.101
       240.000         202.000
  24801149.311    -2186936.12349  -1690507.45245  24801148.412    24801158.734
       205.000         139.000
  21946630.617     6996062.65349   5449747.31347  21946629.944    21946636.741
       236.000         194.000
  24811050.507    13108175.09049  10201158.47145  24811051.337    24811062.420
       207.000         144.000
  20362830.531    -4276301.77049  -3316330.11648  20362830.166    20362835.781
       248.000         217.000
  20734009.879   -13726263.24949 -10680056.49247  20734010.283    20734015.102
       245.000         210.000
 03  4 15 17 43 30.0000000  0  7G 6G10G17G24G 9G 5G30
  22985785.496   -11928973.31049  -9282969.99546  22985785.402    22985792.028
       225.000         172.000
  21192980.432   -14442679.79749 -11238038.93247  21192979.466    21192985.550
       239.000         201.000
  24784635.931    -2273712.51649  -1758125.19245  24784635.994    24784645.379
       204.000         139.000
  21960520.914     7069057.23349   5506626.19147  21960520.378    21960527.010
       235.000         193.000
  24828115.549    13197852.03449  10271036.34745  24828116.483    24828127.984
       210.000         144.000
  20367158.109    -4253560.53249  -3298609.69248  20367157.640    20367163.255
       247.000         217.000
  20725087.277   -13773151.80349 -10716593.03247  20725087.830    20725092.501
       244.000         210.000
 03  4 15 17 44  0.0000000  0  7G 6G10G17G24G 9G 5G30
  22973299.992   -11994585.77649  -9334096.56246  22973299.736    22973305.792
       224.000         172.000
  21183572.830   -14492116.86349 -11276561.30047  21183572.128    21183578.354
       240.000         201.000
  24768151.273    -2360338.41449  -1825625.65445  24768149.867    24768161.746
       206.000         141.000
  21974442.563     7142216.68349   5563633.54547  21974442.200    21974448.780
       235.000         191.000
  24845159.024    13287414.84249  10340825.26545  24845160.343    24845171.883
       211.000         145.000
  20371588.233    -4230280.04949  -3280469.07348  20371587.703    20371593.251
       247.000         216.000
  20716258.088   -13819549.86249 -10752747.36147  20716258.643    20716263.208
       245.000         210.000
 03  4 15 17 44 30.0000000  0  7G 6G10G17G24G 9G 5G30
  22960819.454   -12060171.53849  -9385202.31746  22960818.866    22960824.575
       224.000         172.000
  21174268.912   -14541009.30149 -11314659.28047  21174267.620    21174274.544
       238.000         202.000
  24751695.955    -2446811.77349  -1893007.27945  24751694.948    24751705.838
       206.000         140.000
  21988395.466     7215540.08549   5620768.63747  21988395.201    21988402.435
       235.000         192.000
  24862180.596    13376861.93149  10410524.00645  24862181.510    24862193.631
       211.000         145.000
  20376121.125    -4206459.38849  -3261907.53948  20376120.625    20376126.385
       247.000         216.000
  20707522.762   -13865454.37949 -10788517.10947  20707523.110    20707527.870
       245.000         210.000
 03  4 15 17 45  0.0000000  0  7G 6G10G17G24G 9G 5G30
  22948343.937   -12125730.92949  -9436287.53846  22948343.662    22948349.636
       225.000         172.000
  21165068.707   -14589355.76249 -11352331.82047  21165067.349    21165074.654
       238.000         201.000
  24735269.236    -2533133.00749  -1960270.37545  24735267.730    24735278.515
       205.000         142.000
  22002379.064     7289024.72349   5678029.38547  22002378.930    22002385.801
       236.000         193.000
  24879179.667    13466190.16049  10480130.14845  24879180.672    24879193.962
       214.000         145.000
  20380756.664    -4182099.60549  -3242925.91448  20380756.286    20380761.908
       247.000         216.000
  20698881.595   -13910864.09049 -10823901.29547  20698881.862    20698886.773
       244.000         211.000
 03  4 15 17 45 30.0000000  0  7G 6G10G17G24G 9G 5G30
  22935873.462   -12191262.92949  -9487351.41446  22935873.255    22935879.490
       223.000         172.000
  21155973.053   -14637153.16949 -11389576.52647  21155972.245    21155978.513
       239.000         201.000
  24718871.781    -2619300.08049  -2027413.34545  24718870.852    24718882.207
       206.000         141.000
  22016393.157     7362668.94649   5735414.47847  22016393.298    22016399.652
       236.000         193.000
  24896155.702    13555397.60249  10549642.19245  24896154.741    24896168.812
       209.000         145.000
  20385494.881    -4157200.72249  -3223524.21548  20385494.716    20385500.065
       248.000         217.000
  20690334.998   -13955776.62849 -10858898.07947  20690335.589    20690340.043
       245.000         211.000
 03  4 15 17 46  0.0000000  0  7G 6G10G17G24G 9G 5G30
  22923408.239   -12256767.31349  -9538393.75546  22923407.585    22923414.017
       222.000         172.000
  21146982.458   -14684399.24449 -11426391.59747  21146981.559    21146988.600
       239.000         202.000
  24702504.324    -2705312.15549  -2094435.54345  24702504.852    24702514.203
       207.000         143.000
  22030437.324     7436470.83249   5792922.42047  22030437.436    22030443.892
       235.000         192.000
  24913107.768    13644481.65249  10619058.04045  24913107.674    24913121.315
       209.000         144.000
  20390335.587    -4131763.11649  -3203702.71748  20390334.985    20390340.934
       247.000         217.000
  20681883.488   -14000190.12049 -10893505.98747  20681884.140    20681888.247
       246.000         211.000
 03  4 15 17 46 30.0000000  0  7G 6G10G17G24G 9G 5G30
  22910948.344   -12322244.04849  -9589414.56846  22910948.390    22910953.647
       223.000         172.000
  21138096.961   -14731092.61649 -11462776.01147  21138096.161    21138102.445
       239.000         202.000
  24686166.565    -2791168.92049  -2161336.74845  24686166.283    24686176.526
       208.000         143.000
  22044510.916     7510427.61649   5850551.06247  22044510.953    22044516.611
       235.000         190.000
  24930035.989    13733439.46649  10688375.53445  24930036.655    24930049.525
       207.000         144.000
  20395278.560    -4105787.61049  -3183462.08748  20395278.083    20395283.687
       248.000         217.000
  20673527.285   -14044102.99949 -10927723.81147  20673527.605    20673531.872
       245.000         211.000
 03  4 15 17 47  0.0000000  0  7G 6G10G17G24G 9G 5G30
  22898493.881   -12387692.53849  -9640413.36346  22898493.693    22898499.521
       225.000         172.000
  21129317.081   -14777231.20649 -11498728.13647  21129316.289    21129322.597
       239.000         202.000
  24669858.443    -2876869.13749  -2228115.94545  24669857.603    24669867.755
       208.000         144.000
  22058613.648     7584537.51549   5908299.01947  22058613.640    22058619.070
       234.000         190.000
  24946939.822    13822268.74249  10757592.85945  24946940.183    24946953.693
       209.000         144.000
  20400323.901    -4079274.48249  -3162802.52348  20400323.380    20400328.951
       248.000         217.000
  20665266.633   -14087513.08649 -10961549.85447  20665266.734    20665271.087
       245.000         211.000
 03  4 15 17 47 30.0000000  0  7G 6G10G17G24G 9G 5G30
  22886044.937   -12453112.82149  -9691390.17746  22886044.511    22886051.155
       225.000         173.000
  21120643.092   -14822813.48449 -11534246.76147  21120642.124    21120648.377
       240.000         202.000
  24653580.082    -2962412.40249  -2294772.85545  24653578.273    24653589.001
       206.000         144.000
  22072745.040     7658798.14449   5966164.42947  22072745.017    22072750.943
       236.000         190.000
  24963818.754    13910966.44149  10826707.67045  24963819.577    24963832.447
       209.000         144.000
  20405471.310    -4052224.71849  -3141724.80448  20405470.817    20405476.487
       247.000         216.000
  20657101.812   -14130419.26649 -10994983.24147  20657102.036    20657106.714
       246.000         211.000
 03  4 15 17 48  0.0000000  0  7G 6G10G17G24G 9G 5G30
  22873601.463   -12518503.40749  -9742343.87446  22873601.685    22873606.638
       224.000         174.000
  21112075.441   -14867836.30149 -11569329.46047  21112074.295    21112081.117
       239.000         202.000
  24637331.519    -3047797.05949  -2361306.16545  24637330.301    24637340.489
       205.000         142.000
  22086904.953     7733208.57849   6024146.56147  22086904.724    22086911.107
       235.000         190.000
  24980672.415    13999531.25049  10895718.93245  24980673.160    24980686.553
       207.000         143.000
  20410720.970    -4024637.47949  -3120228.27748  20410720.212    20410726.261
       247.000         216.000
  20649033.525   -14172818.34249 -11028021.48547  20649033.871    20649038.405
       246.000         212.000
 03  4 15 17 48 30.0000000  0  7G 6G10G17G24G 9G 5G30
  22861163.649   -12583864.47449  -9793274.54346  22861163.416    22861168.876
       226.000         174.000
  21103614.568   -14912298.08049 -11603974.96647  21103613.882    21103620.517
       240.000         202.000
  24621113.484    -3133022.48649  -2427715.41945  24621112.129    24621122.717
       209.000         142.000
  22101092.793     7807766.07549   6082243.29647  22101092.372    22101098.262
       234.000         190.000
  24997499.838    14087959.95149  10964624.12545  24997500.331    24997512.473
       210.000         141.000
  20416072.621    -3996513.93449  -3098313.85048  20416072.017    20416077.714
       247.000         216.000
  20641061.932   -14214709.29849 -11060663.78947  20641062.180    20641066.843
       245.000         212.000
 03  4 15 17 49  0.0000000  0  7G 6G10G17G24G 9G 5G30
  22848731.744   -12649194.77349  -9844181.23446  22848731.053    22848737.058
       225.000         173.000
  21095261.088   -14956196.09349 -11638181.17647  21095260.315    21095267.050
       240.000         203.000
  24604926.101    -3218087.17249  -2493999.41545  24604924.805    24604935.439
       207.000         143.000
  22115308.304     7882469.36149   6140453.63947  22115307.931    22115313.623
       234.000         189.000
  25014301.093    14176251.23349  11033422.25645  25014301.989    25014315.061
       202.000         139.000
  20421526.504    -3967853.78549  -3075981.29648  20421526.411    20421531.796
       247.000         216.000
  20633187.572   -14256089.37549 -11092908.00447  20633188.161    20633192.562
       246.000         212.000
 03  4 15 17 49 30.0000000  0  7G 6G10G17G24G 9G 5G30
  22836305.652   -12714493.93449  -9895063.67746  22836305.135    22836311.575
       225.000         174.000
  21087015.143   -14999528.64349 -11671946.76147  21087014.344    21087020.880
       241.000         203.000
  24588769.355    -3302990.16549  -2560157.40245  24588766.681    24588778.481
       205.000         143.000
  22129551.226     7957316.38349   6198775.98647  22129551.190    22129557.188
       236.000         189.000
  25031075.587    14264402.42649  11102111.21445  25031075.197    25031088.493
       203.000         135.000
  20427082.386    -3938657.83549  -3053231.22248  20427081.806    20427087.500
       248.000         216.000
  20625410.787   -14296956.96249 -11124752.87248  20625411.095    20625415.466
       248.000         213.000
 03  4 15 17 50  0.0000000  0  7G 6G10G17G24G 9G 5G30
  22823885.425   -12779761.98549  -9945921.88646  22823885.543    22823892.076
       223.000         175.000
  21078877.154   -15042294.20749 -11705270.55747  21078876.178    21078883.044
       240.000         203.000
  24572643.421    -3387731.01649  -2626189.04445  24572641.774    24572653.838
       208.000         145.000
  22143821.156     8032304.72449   6257208.44647  22143821.132    22143827.332
       235.000         189.000
  25047823.075    14352410.59149  11170688.72245  25047822.773    25047836.835
       204.000         134.000
  20432739.887    -3908927.15849  -3030064.49248  20432739.489    20432745.197
       248.000         216.000
  20617731.720   -14337310.62849 -11156197.29448  20617731.851    20617736.679
       247.000         213.000
 03  4 15 17 50 30.0000000  0  7G 6G10G17G24G 9G 5G30
  22811471.223   -12844998.26549  -9996755.31446  22811470.867    22811477.246
       224.000         175.000
  21070847.388   -15084490.40549 -11738150.68747  21070846.596    21070853.208
       239.000         204.000
  24556548.483    -3472308.95849  -2692093.75445  24556547.146    24556559.020
       208.000         145.000
  22158117.439     8107432.66049   6315749.69247  22158116.225    22158123.234
       232.000         189.000
  25064543.111    14440273.48549  11239153.06345  25064544.057    25064556.894
       207.000         135.000
  20438499.176    -3878661.98349  -3006481.25848  20438498.862    20438504.738
       247.000         216.000
  20610150.759   -14377148.42849 -11187239.73248  20610150.819    20610155.980
       246.000         213.000
 03  4 15 17 51  0.0000000  0  7G 6G10G17G24G 9G 5G30
  22799063.236   -12910202.49649 -10047563.77146  22799063.027    22799069.480
       224.000         175.000
  21062926.371   -15126115.54949 -11770585.84347  21062925.450    21062931.821
       240.000         204.000
  24540484.651    -3556723.13249  -2757870.85145  24540483.397    24540494.472
       206.000         146.000
  22172439.772     8182698.04649   6374398.02047  22172439.380    22172446.381
       231.000         189.000
  25081234.921    14527988.48949  11307502.18845  25081236.231    25081248.909
       208.000         137.000
  20444359.995    -3847863.13849  -2982482.18448  20444359.594    20444365.520
       248.000         216.000
  20602668.241   -14416468.63849 -11217878.85747  20602668.479    20602673.403
       247.000         212.000
 03  4 15 17 51 30.0000000  0  6G 6G10G17G24G 5G30
  22786661.579   -12975372.84149 -10098345.82446  22786661.453    22786667.793
       224.000         175.000
  21055114.498   -15167166.55249 -11802573.59747  21055113.428    21055120.143
       239.000         203.000
  24524452.430    -3640971.66149  -2823518.88745  24524451.516    24524461.943
       207.000         145.000
  22186788.295     8258100.14949   6433152.87547  22186788.316    22186794.710
       233.000         189.000
  20450322.489    -3816529.92649  -2958066.71748  20450322.137    20450327.903
       247.000         216.000
  20595284.865   -14455268.38549 -11248112.42348  20595285.131    20595290.177
       247.000         213.000
 03  4 15 17 52  0.0000000  0  6G 6G10G17G24G 5G30
  22774266.594   -13040509.53649 -10149101.67346  22774267.643    22774272.649
       225.000         176.000
  21047412.245   -15207642.16449 -11834112.99347  21047411.610    21047417.781
       240.000         204.000
  24508452.137    -3725053.88749  -2889037.32845  24508452.401    24508462.013
       208.000         146.000
  22201162.406     8333636.34849   6492012.22247  22201162.945    22201168.575
       234.000         190.000
  20456386.422    -3784663.56749  -2933235.81048  20456386.039    20456391.607
       247.000         216.000
  20588000.721   -14493546.41849 -11277939.46848  20588000.864    20588005.974
       246.000         213.000
 03  4 15 17 52 30.0000000  0  6G 6G10G17G24G 5G30
  22761877.290   -13105615.39149 -10199833.49246  22761877.580    22761883.648
       225.000         176.000
  21039819.122   -15247544.06149 -11865205.35147  21039818.167    21039824.334
       240.000         204.000
  24492482.941    -3808972.48549  -2954428.26345  24492482.517    24492491.801
       207.000         146.000
  22215561.004     8409301.25949   6550971.88147  22215560.507    22215567.054
       233.000         190.000
  20462551.002    -3752268.10349  -2907992.61348  20462550.701    20462556.289
       247.000         216.000
  20580815.519   -14531304.52049 -11307361.37148  20580815.858    20580820.823
       247.000         213.000
 03  4 15 17 53  0.0000000  0  6G 6G10G17G24G 5G30
  22749494.889   -13170685.94149 -10250537.79146  22749494.353    22749501.193
       224.000         176.000
  21032336.175   -15286866.61249 -11895846.27647  21032335.497    21032342.331
       240.000         204.000
  24476545.533    -3892722.65249  -3019687.94545  24476543.991    24476554.584
       207.000         145.000
  22229984.377     8485097.08749   6610033.56247  22229983.822    22229990.313
       233.000         189.000
  20468817.004    -3719340.12949  -2882334.47848  20468816.573    20468822.595
       247.000         216.000
  20573730.463   -14568536.84049 -11336373.57248  20573731.132    20573735.811
       247.000         213.000
 03  4 15 17 53 30.0000000  0  6G 6G10G17G24G 5G30
  22737118.866   -13235722.18849 -10301215.35046  22737118.680    22737124.478
       225.000         176.000
  21024963.582   -15325609.55149 -11926035.54547  21024962.821    21024969.644
       240.000         204.000
  24460640.269    -3976305.58449  -3084817.32045  24460639.252    24460649.679
       211.000         146.000
  22244432.072     8561020.27749   6669194.48846  22244432.530    22244438.009
       234.000         187.000
  20475183.832    -3685882.11549  -2856263.32248  20475183.715    20475189.307
       247.000         216.000
  20566745.493   -14605243.36649 -11364976.06448  20566745.998    20566751.004
       247.000         213.000
 03  4 15 17 54  0.0000000  0  6G 6G10G17G24G 5G30
  22724749.319   -13300724.28249 -10351866.31346  22724748.734    22724754.625
       226.000         176.000
  21017701.602   -15363771.67449 -11955772.23647  21017701.038    21017707.673
       240.000         205.000
  24444767.100    -4059720.44249  -3149815.74845  24444767.040    24444776.192
       210.000         147.000
  22258903.520     8637068.25349   6728452.63246  22258903.722    22258910.174
       232.000         187.000
  20481651.406    -3651895.22349  -2829780.05548  20481651.288    20481656.720
       248.000         216.000
  20559860.749   -14641422.95849 -11393167.95748  20559861.174    20559866.010
       247.000         213.000
 03  4 15 17 54 30.0000000  0  6G 6G10G17G24G 5G30
  22712386.699   -13365691.11449 -10402489.79546  22712386.732    22712392.630
       226.000         176.000
  21010550.649   -15401350.86649 -11985054.69647  21010550.329    21010556.668
       241.000         206.000
  24428926.021    -4142966.29149  -3214682.44845  24428925.677    24428935.692
       211.000         148.000
  22273398.520     8713239.44349   6787806.78647  22273398.297    22273405.150
       232.000         188.000
  20488219.598    -3617379.69049  -2802884.85648  20488219.621    20488225.176
       248.000         216.000
  20553076.695   -14677073.57749 -11420947.65848  20553077.261    20553081.749
       248.000         213.000
 03  4 15 17 55  0.0000000  0  6G 6G10G17G24G 5G30
  22700030.855   -13430621.94749 -10453085.22346  22700030.576    22700036.055
       225.000         176.000
  21003510.922   -15438345.13549 -12013881.37547  21003509.913    21003516.490
       240.000         206.000
  24413117.415    -4226042.21549  -3279416.74745  24413116.511    24413126.983
       209.000         149.000
  22287916.695     8789532.28149   6847255.72947  22287916.826    22287923.533
       234.000         189.000
  20494888.238    -3582336.20449  -2775578.26548  20494887.874    20494893.661
       247.000         216.000
  20546393.719   -14712193.42649 -11448313.77748  20546394.287    20546398.739
       247.000         213.000
 03  4 15 17 55 30.0000000  0  7G 6G10G17G21G24G 5G30
  22687681.724   -13495517.24849 -10503652.96546  22687681.825    22687687.615
       227.000         176.000
  20996582.545   -15474753.70749 -12042251.66647  20996581.859    20996588.219
       241.000         205.000
  24397340.887    -4308948.36849  -3344018.75545  24397339.363    24397349.048
       212.000         148.000
  24924366.273    -5951891.70149  -4615280.55145  24924364.641    24924375.195
       209.000         136.000
  22302457.394     8865943.79149   6906797.13247  22302457.600    22302463.902
       233.000         188.000
  20501656.965    -3546766.46249  -2747861.61248  20501656.888    20501662.303
       248.000         216.000
  20539811.829   -14746781.67549 -11475265.66648  20539812.674    20539817.087
       248.000         214.000
 03  4 15 17 56  0.0000000  0  7G 6G10G17G21G24G 5G30
  22675339.517   -13560375.89449 -10554192.14346  22675339.429    22675345.509
       225.000         177.000
  20989766.236   -15510574.01449 -12070163.58047  20989765.598    20989771.551
       241.000         205.000
  24381596.796    -4391683.19649  -3408487.29445  24381594.623    24381604.419
       206.000         147.000
  24907412.323    -6040984.93849  -4684703.58345  24907410.329    24907419.689
       208.000         137.000
  22317020.411     8942472.66449   6966429.99847  22317020.678    22317026.188
       233.000         188.000
  20508525.860    -3510670.65349  -2719735.03248  20508525.313    20508530.914
       247.000         216.000
  20533331.677   -14780836.14249 -11501801.61448  20533332.270    20533336.658
       248.000         214.000
 03  4 15 17 56 30.0000000  0  7G 6G10G17G21G24G 5G30
  22663004.754   -13625194.42549 -10604700.06946  22663004.738    22663011.249
       224.000         178.000
  20983062.505   -15545802.16449 -12097614.05647  20983061.729    20983068.288
       240.000         205.000
  24365885.703    -4474242.85349  -3472819.31345  24365884.269    24365894.401
       208.000         146.000
  24890485.586    -6129932.84549  -4754013.37245  24890484.676    24890494.766
       208.000         137.000
  22331606.039     9019119.95349   7026155.14646  22331606.061    22331612.041
       233.000         187.000
  20515495.102    -3474046.81849  -2691197.00948  20515494.679    20515500.386
       246.000         215.000
  20526953.799   -14814352.36849 -11527918.16148  20526954.125    20526958.729
       247.000         214.000
 03  4 15 17 57  0.0000000  0  7G 6G10G17G21G24G 5G30
  22650677.593   -13689973.89249 -10655177.55746  22650677.003    22650683.403
       226.000         178.000
  20976471.619   -15580437.95749 -12124602.96747  20976471.451    20976476.902
       242.000         206.000
  24350207.856    -4556628.55749  -3537015.78945  24350205.214    24350217.378
       206.000         146.000
  24873586.877    -6218736.15849  -4823210.50145  24873584.266    24873594.623
       209.000         137.000
  22346213.467     9095882.15149   7085969.81246  22346213.209    22346219.828
       232.000         187.000
  20522564.399    -3436897.52049  -2662249.52448  20522564.025    20522569.869
       247.000         215.000
  20520678.247   -14847330.62849 -11553615.50748  20520678.570    20520683.229
       248.000         214.000
 03  4 15 17 57 30.0000000  0  7G 6G10G17G21G24G 5G30
  22638358.030   -13754713.85249 -10705624.25746  22638358.381    22638364.156
       228.000         180.000
  20969993.694   -15614479.82249 -12151129.06747  20969992.516    20969998.616
       241.000         206.000
  24334563.275    -4638839.50249  -3601076.07845  24334562.493    24334572.903
       210.000         147.000
  24856715.695    -6307394.14249  -4892294.36245  24856714.675    24856723.670
       207.000         135.000
  22360842.290     9172757.07049   7145872.34346  22360842.691    22360847.992
       234.000         187.000
  20529733.542    -3399223.61449  -2632893.25848  20529733.201    20529738.905
       247.000         215.000
  20514505.408   -14879769.35649 -11578892.43848  20514505.573    20514510.290
       247.000         214.000
 03  4 15 17 58  0.0000000  0  7G 6G10G17G21G24G 5G30
  22626046.103   -13819414.78249 -10756040.54246  22626045.545    22626051.137
       227.000         180.000
  20963628.869   -15647927.44749 -12177192.14347  20963628.372    20963633.892
       241.000         206.000
  24318952.178    -4720876.25649  -3665000.66345  24318950.981    24318960.685
       210.000         147.000
  24839872.529    -6395904.52849  -4961263.23445  24839870.655    24839880.858
       206.000         135.000
  22375492.062     9249741.70649   7205860.34046  22375491.899    22375497.952
       233.000         187.000
  20537002.208    -3361027.20249  -2603129.84548  20537001.849    20537007.611
       248.000         216.000
  20508435.253   -14911668.19749 -11603748.67948  20508435.316    20508440.137
       247.000         213.000
 03  4 15 17 58 30.0000000  0  7G 6G10G17G21G24G 5G30
  22613741.558   -13884075.61849 -10806425.59846  22613741.582    22613746.225
       227.000         180.000
  20957377.475   -15680778.98249 -12202790.72647  20957376.410    20957382.806
       241.000         206.000
  24303374.350    -4802737.44749  -3728788.44045  24303374.064    24303382.915
       211.000         147.000
  24823057.047    -6484268.80549  -5030118.26945  24823057.905    24823065.225
       206.000         135.000
  22390162.492     9326835.03149   7265933.03746  22390162.063    22390168.866
       232.000         186.000
  20544370.169    -3322308.74849  -2572959.65348  20544369.759    20544375.351
       247.000         215.000
  20502468.202   -14943025.07649 -11628182.62548  20502468.456    20502473.097
       247.000         214.000
 03  4 15 17 59  0.0000000  0  7G 6G10G17G21G24G 5G30
  22601444.817   -13948695.24249 -10856778.53546  22601444.306    22601450.427
       227.000         180.000
  20951239.824   -15713032.49749 -12227923.31447  20951239.119    20951245.094
       241.000         206.000
  24287830.190    -4884422.07549  -3792438.63045  24287829.525    24287838.236
       210.000         149.000
  24806269.746    -6572486.08649  -5098858.77045  24806269.257    24806278.294
       209.000         135.000
  22404853.333     9404035.72049   7326089.38046  22404853.333    22404859.401
       232.000         187.000
  20551837.309    -3283068.70649  -2542383.01948  20551837.079    20551842.247
       248.000         215.000
  20496604.689   -14973837.99949 -11652192.70248  20496605.116    20496609.815
       248.000         214.000
 03  4 15 17 59 30.0000000  0  7G 6G10G17G21G24G 5G30
  22589155.983   -14013273.99449 -10907099.62046  22589155.663    22589161.803
       228.000         181.000
  20945216.090   -15744687.33549 -12252589.40347  20945215.299    20945221.302
       242.000         206.000
  24272319.633    -4965930.23349  -3855951.33645  24272319.043    24272328.042
       212.000         150.000
  24789510.555    -6660556.09549  -5167484.46545  24789509.929    24789517.080
       205.000         136.000
  22419563.911     9481340.63849   7386326.95246  22419563.909    22419569.865
       230.000         184.000
  20559403.357    -3243309.00349  -2511401.45948  20559402.942    20559408.364
       248.000         215.000
  20490844.786   -15004106.60149 -11675778.63348  20490845.293    20490849.825
       249.000         214.000
 03  4 15 18  0  0.0000000  0  7G 6G10G17G21G24G 5G30
  22576875.045   -14077810.30149 -10957387.62846  22576874.935    22576881.738
       227.000         181.000
  20939306.738   -15775741.00049 -12276787.03347  20939305.940    20939312.039
       241.000         206.000
  24256842.931    -5047260.18049  -3919325.18045  24256841.328    24256851.581
       209.000         150.000
  24772779.588    -6748476.91949  -5235993.94745  24772778.362    24772786.927
       204.000         136.000
  22434294.295     9558749.24849   7446645.31346  22434293.852    22434300.255
       230.000         184.000
  20567068.320    -3203029.47749  -2480014.83748  20567067.885    20567073.306
       248.000         214.000
  20485189.095   -15033828.35949 -11698938.45148  20485189.648    20485193.793
       249.000         214.000
 03  4 15 18  0 30.0000000  0  7G 6G10G17G21G24G 5G30
  22564602.403   -14142303.32949 -11007641.92246  22564602.241    22564608.635
       229.000         181.000
  20933512.100   -15806191.88949 -12300514.96947  20933511.222    20933517.436
       241.000         206.000
  24241400.024    -5128410.85049  -3982559.32245  24241399.408    24241408.959
       210.000         150.000
  24756077.111    -6836247.44149  -5304386.30245  24756076.085    24756085.088
       205.000         137.000
  22449044.205     9636259.79349   7507043.11546  22449044.150    22449049.789
       233.000         184.000
  20574832.151    -3162230.75649  -2448223.64448  20574831.640    20574837.103
       248.000         215.000
  20479637.625   -15063001.49149 -11721670.76848  20479637.672    20479642.436
       248.000         214.000
 03  4 15 18  1  0.0000000  0  7G 6G10G17G21G24G 5G30
  22552338.207   -14206752.59249 -11057862.10346  22552338.061    22552344.387
       228.000         182.000
  20927832.372   -15836038.85349 -12323772.32247  20927831.264    20927837.662
       241.000         206.000
  24225991.551    -5209381.97549  -4045653.56945  24225991.305    24226000.524
       210.000         151.000
  24739403.030    -6923870.04749  -5372663.41545  24739401.838    24739411.859
       208.000         139.000
  22463813.010     9713870.16749   7567518.70446  22463811.987    22463819.334
       231.000         185.000
  20582694.509    -3120914.20749  -2416028.95648  20582694.057    20582699.419
       248.000         215.000
  20474190.643   -15091624.96049 -11743974.77648  20474190.773    20474195.324
       247.000         214.000
 03  4 15 18  1 30.0000000  0  7G 6G10G17G21G24G 5G30
  22540082.277   -14271157.48849 -11108047.71446  22540082.186    22540088.392
       228.000         182.000
  20922267.826   -15865280.51849 -12346558.01247  20922266.966    20922273.469
       241.000         206.000
  24210617.521    -5290173.02349  -4108607.48945  24210617.258    24210626.203
       212.000         151.000
  24722757.908    -7011340.77649  -5440822.19145  24722757.031    24722765.517
       211.000         140.000
  22478600.423     9791578.66849   7628070.75846  22478600.509    22478606.661
       231.000         184.000
  20590655.183    -3079080.97949  -2383431.66348  20590654.716    20590660.121
       247.000         215.000
  20468848.596   -15119697.40249 -11765849.41548  20468849.011    20468853.600
       247.000         214.000
 03  4 15 18  2  0.0000000  0  7G 6G10G17G21G24G 5G30
  22527834.883   -14335517.79149 -11158198.57846  22527834.555    22527839.859
       227.000         182.000
  20916818.719   -15893916.01049 -12368871.36347  20916817.818    20916823.979
       240.000         206.000
  24195278.037    -5370783.78349  -4171420.94145  24195277.598    24195287.117
       213.000         151.000
  24706141.384    -7098658.81049  -5508861.98045  24706139.625    24706149.120
       206.000         140.000
  22493406.049     9869382.68849   7688697.23146  22493405.759    22493412.903
       230.000         184.000
  20598713.838    -3036732.43249  -2350432.81748  20598713.198    20598718.985
       247.000         214.000
  20463611.744   -15147217.81749 -11787293.90148  20463612.266    20463616.641
       249.000         214.000
 03  4 15 18  2 30.0000000  0  7G 6G10G17G21G24G 5G30
  22515596.025   -14399832.21349 -11208313.69746  22515596.037    22515602.091
       228.000         182.000
  20911485.183   -15921943.26349 -12390710.75647  20911484.301    20911490.659
       241.000         206.000
  24179973.055    -5451212.66549  -4234092.65845  24179972.084    24179981.237
       213.000         152.000
  24689554.249    -7185822.78449  -5576781.73745  24689553.758    24689561.749
       207.000         140.000
  22508229.697     9947281.45149   7749397.53346  22508229.327    22508235.819
       228.000         183.000
  20606870.421    -2993869.10549  -2317032.84948  20606869.621    20606875.575
       247.000         214.000
  20458480.304   -15174184.18149 -11808306.65848  20458480.539    20458485.342
       248.000         214.000
 03  4 15 18  3  0.0000000  0  7G 6G10G17G21G24G 5G30
  22503365.968   -14464101.65149 -11258393.75946  22503366.424    22503372.154
       228.000         183.000
  20906267.476   -15949362.60249 -12412076.45947  20906266.953    20906273.061
       242.000         207.000
  24164702.393    -5531460.71549  -4296623.47845  24164701.555    24164710.250
       213.000         153.000
  24672996.354    -7272833.52249  -5644582.10645  24672994.152    24673004.995
       206.000         139.000
  22523070.835    10025271.78649   7810169.17346  22523070.703    22523077.165
       229.000         182.000
  20615124.426    -2950493.72449  -2283233.89148  20615124.167    20615129.696
       247.000         214.000
  20453454.081   -15200596.83349 -11828887.95848  20453454.368    20453458.908
       248.000         214.000
 03  4 15 18  3 30.0000000  0  7G 6G10G17G21G24G 5G30
  22491144.795   -14528324.97049 -11308437.88946  22491145.264    22491150.519
       228.000         183.000
  20901165.808   -15976172.54949 -12432967.30747  20901164.815    20901171.245
       241.000         208.000
  24149466.304    -5611526.51249  -4359012.28445  24149464.843    24149474.148
       212.000         152.000
  24656468.072    -7359689.81549  -5712262.12045  24656467.852    24656474.955
       207.000         138.000
  22537929.042    10103352.03949   7871010.88846  22537929.346    22537934.663
       230.000         182.000
  20623475.949    -2906606.76849  -2249036.30148  20623476.145    20623481.053
       246.000         215.000
  20448533.628   -15226453.89949 -11849036.33148  20448533.965    20448538.511
       248.000         214.000
 03  4 15 18  4  0.0000000  0  7G 6G10G17G21G24G 5G30
  22478932.717   -14592500.68549 -11358444.91046  22478932.889    22478938.201
       229.000         183.000
  20896180.395   -16002371.09649 -12453381.73847  20896179.116    20896185.754
       241.000         207.000
  24134265.044    -5691408.57449  -4421257.94545  24134264.077    24134273.420
       213.000         152.000
  24639969.387    -7446390.43849  -5779820.81345  24639968.205    24639976.137
       211.000         139.000
  22552804.348    10181521.67849   7931922.27246  22552804.149    22552810.016
       231.000         182.000
  20631924.809    -2862208.62849  -2214440.37748  20631924.266    20631929.899
       246.000         214.000
  20443719.293   -15251753.42849 -11868750.25348  20443719.537    20443724.199
       248.000         214.000
 03  4 15 18  4 30.0000000  0  7G 6G10G17G21G24G 5G30
  22466729.672   -14656628.58549 -11408414.67546  22466728.488    22466735.029
       228.000         183.000
  20891311.444   -16027957.57349 -12473319.23747  20891310.846    20891317.092
       242.000         208.000
  24119098.982    -5771107.05549  -4483360.55045  24119098.086    24119106.768
       215.000         152.000
  24623500.480    -7532935.25149  -5847258.14945  24623499.826    24623507.487
       208.000         141.000
  22567696.199    10259778.13649   7992901.30746  22567695.679    22567701.752
       231.000         181.000
  20640470.456    -2817301.19749  -2179447.60448  20640469.760    20640475.770
       245.000         214.000
  20439011.243   -15276494.66249 -11888029.14648  20439011.597    20439016.312
       248.000         214.000
 03  4 15 18  5  0.0000000  0  7G 6G10G17G21G24G 5G30
  22454535.500   -14720707.77849 -11458346.50546  22454534.849    22454540.796
       227.000         183.000
  20886559.206   -16052930.83449 -12492778.89547  20886558.297    20886564.055
       241.000         208.000
  24103968.085    -5850621.20749  -4545319.54145  24103967.111    24103974.515
       214.000         153.000
  24607061.226    -7619323.41749  -5914573.39345  24607059.477    24607068.165
       210.000         142.000
  22582604.083    10338119.45249   8053946.46346  22582603.189    22582610.783
       229.000         182.000
  20649112.700    -2771885.45649  -2144058.74948  20649111.847    20649117.744
       245.000         214.000
  20434409.653   -15300676.24649 -11906871.94048  20434409.782    20434414.562
       248.000         214.000
 03  4 15 18  5 30.0000000  0  7G 6G10G17G21G24G 5G30
  22442350.925   -14784737.69749 -11508239.92946  22442350.894    22442356.190
       230.000         184.000
  20881923.889   -16077289.43849 -12511759.61147  20881923.235    20881929.214
       243.000         208.000
  24088872.065    -5929950.56149  -4607134.50245  24088870.822    24088879.598
       214.000         154.000
  24590651.941    -7705554.00049  -5981765.84845  24590650.427    24590658.993
       211.000         142.000
  22597527.725    10416544.23549   8115056.62746  22597527.457    22597534.141
       229.000         182.000
  20657851.501    -2725962.44849  -2108274.62448  20657850.917    20657857.032
       246.000         214.000
  20429914.825   -15324296.82349 -11925277.59448  20429915.084    20429919.755
       248.000         214.000
 03  4 15 18  6  0.0000000  0  7G 6G10G17G21G24G 5G30
  22430176.093   -14848716.99849 -11558093.91546  22430176.112    22430181.870
       229.000         184.000
  20877405.970   -16101031.54649 -12530259.93847  20877404.943    20877411.289
       242.000         208.000
  24073811.483    -6009093.67449  -4668804.35145  24073810.178    24073820.441
       214.000         154.000
  24574272.920    -7791625.64749  -6048834.47845  24574273.305    24574279.911
       209.000         142.000
  22612467.003    10495051.29449   8176230.93546  22612467.375    22612472.655
       228.000         181.000
  20666686.733    -2679532.90049  -2072095.79548  20666686.311    20666692.200
       245.000         214.000
  20425527.044   -15347354.64849 -11943244.73548  20425527.142    20425531.878
       248.000         214.000
 03  4 15 18  6 30.0000000  0  7G 6G10G17G21G24G 5G30
  22418011.043   -14912645.19249 -11607908.07146  22418011.344    22418016.446
       230.000         185.000
  20873005.395   -16124156.37949 -12548279.26747  20873005.009    20873010.737
       243.000         208.000
  24058786.642    -6088049.85149  -4730328.54445  24058785.449    24058794.820
       215.000         154.000
  24557924.093    -7877538.24849  -6115779.20545  24557922.054    24557930.939
       207.000         141.000
  22627421.652    10573638.85049   8237467.93346  22627421.472    22627428.200
       227.000         181.000
  20675618.165    -2632598.23949  -2035523.37048  20675617.758    20675623.670
       245.000         214.000
  20421246.546   -15369848.70249 -11960772.58048  20421246.555    20421251.580
       247.000         214.000
 03  4 15 18  7  0.0000000  0  7G 6G10G17G21G24G 5G30
  22405855.709   -14976521.64349 -11657681.91546  22405855.539    22405861.360
       229.000         185.000
  20868722.605   -16146663.23149 -12565817.05347  20868721.815    20868727.651
       242.000         209.000
  24043797.373    -6166819.21049  -4791707.17745  24043796.306    24043805.455
       214.000         154.000
  24541605.359    -7963291.06649  -6182599.38045  24541603.392    24541612.339
       209.000         141.000
  22642391.188    10652304.77449   8298766.02846  22642391.309    22642398.619
       228.000         181.000
  20684645.360    -2585159.89449  -1998558.45548  20684644.658    20684650.635
       244.000         213.000
  20417073.349   -15391778.18149 -11977860.48948  20417073.474    20417078.288
       247.000         214.000
 03  4 15 18  7 30.0000000  0  7G 6G10G17G21G24G 5G30
  22393710.174   -15040346.38749 -11707415.46446  22393710.047    22393716.119
       229.000         185.000
  20864557.165   -16168551.94349 -12582873.16947  20864556.018    20864563.236
       242.000         209.000
  24028843.259    -6245401.40749  -4852939.97345  24028841.819    24028851.300
       212.000         155.000
  24525317.132    -8048884.37249  -6249295.29945  24525315.787    24525324.879
       209.000         142.000
  22657375.197    10731046.69949   8360123.32946  22657374.336    22657381.989
       227.000         180.000
  20693767.994    -2537219.77049  -1961202.54948  20693767.493    20693773.725
       244.000         213.000
  20413007.742   -15413142.70549 -11994508.18248  20413008.288    20413012.943
       248.000         214.000
 03  4 15 18  8  0.0000000  0  7G 6G10G17G21G24G 5G30
  22381575.138   -15104116.44149 -11757106.39546  22381574.748    22381580.684
       230.000         186.000
  20860510.096   -16189819.26649 -12599445.10347  20860509.150    20860514.690
       241.000         209.000
  24013925.465    -6323794.10349  -4914025.09545  24013925.196    24013933.886
       215.000         154.000
  24509060.149    -8134314.98949  -6315864.43245  24509059.661    24509067.171
       211.000         142.000
  22672373.825    10809865.12449   8421540.24546  22672373.822    22672380.386
       230.000         181.000
  20702986.348    -2488777.05249  -1923455.00548  20702985.691    20702991.949
       243.000         213.000
  20409050.457   -15433938.69949 -12010712.85648  20409051.118    20409055.905
       248.000         215.000
 03  4 15 18  8 30.0000000  0  7G 6G10G17G21G24G 5G30
  22369450.329   -15167833.43549 -11806755.98746  22369450.422    22369455.670
       230.000         186.000
  20856580.948   -16210466.64449 -12615533.95747  20856580.250    20856586.586
       242.000         209.000
  23999043.754    -6401999.03049  -4974963.89745  23999042.658    23999052.257
       215.000         155.000
  24492833.688    -8219584.69949  -6382308.21345  24492832.435    24492841.241
       210.000         143.000
  22687386.298    10888755.83949   8483013.50046  22687385.870    22687392.476
       226.000         180.000
  20712299.536    -2439835.47649  -1885318.74948  20712299.164    20712304.948
       244.000         213.000
  20405201.113   -15454167.72649 -12026475.73548  20405201.513    20405206.427
       248.000         215.000
 03  4 15 18  9  0.0000000  0  7G 6G10G17G21G24G 5G30
  22357335.700   -15231495.89849 -11856363.08946  22357335.029    22357341.788
       229.000         186.000
  20852770.216   -16230492.31649 -12631138.37047  20852769.378    20852775.548
       241.000         209.000
  23984197.921    -6480014.67049  -5035755.19045  23984196.666    23984205.347
       214.000         155.000
  24476638.363    -8304692.02849  -6448625.44445  24476637.646    24476645.359
       210.000         142.000
  22702412.216    10967717.90049   8544542.33446  22702412.457    22702419.164
       227.000         180.000
  20721707.516    -2390396.00149  -1846794.51747  20721707.041    20721713.114
       243.000         212.000
  20401459.866   -15473827.78149 -12041795.26748  20401459.953    20401464.878
       247.000         215.000
 03  4 15 18  9 30.0000000  0  7G 6G10G17G21G24G 5G30
  22345231.353   -15295103.27249 -11905927.25846  22345231.088    22345237.767
       230.000         186.000
  20849077.882   -16249895.27149 -12646257.55047  20849076.864    20849082.970
       240.000         208.000
  23969387.896    -6557840.96249  -5096398.94745  23969387.608    23969395.641
       215.000         156.000
  24460474.289    -8389635.36149  -6514814.89245  24460473.317    24460480.706
       211.000         143.000
  22717451.485    11046749.58249   8606125.42946  22717450.946    22717458.277
       227.000         179.000
  20731210.034    -2340459.89049  -1807883.28648  20731209.742    20731215.761
       244.000         213.000
  20397827.012   -15492918.10249 -12056670.84548  20397827.188    20397832.577
       248.000         215.000
 03  4 15 18 10  0.0000000  0  7G 6G10G17G21G24G 5G30
  22333137.357   -15358658.17549 -11955450.19546  22333137.970    22333143.526
       229.000         186.000
  20845503.660   -16268677.48349 -12660893.46547  20845503.188    20845509.888
       241.000         207.000
  23954613.643    -6635481.38249  -5156897.74845  23954613.086    23954621.980
       215.000         156.000
  24444340.310    -8474419.49249  -6580880.84545  24444339.956    24444343.475
       212.000         137.000
  22732503.235    11125846.85849   8667760.19646  22732503.615    22732510.513
       226.000         176.000
  20740806.040    -2290033.05749  -1768589.56447  20740806.369    20740812.653
       244.000         212.000
  20394302.562   -15511439.15549 -12071103.06848  20394303.008    20394308.257
       247.000         215.000
 03  4 15 18 10 30.0000000  0  7G 6G10G17G21G24G 5G30
  22321055.178   -15422150.96449 -12004925.07346  22321055.225    22321060.902
       230.000         186.000
  20842049.176   -16286831.21549 -12675039.21647  20842048.680    20842054.921
       241.000         208.000
  23939876.670    -6712924.62549  -5217243.02045  23939874.720    23939883.987
       213.000         157.000
  24428238.638    -8559035.06449  -6646814.79845  24428237.893    24428245.431
       211.000         142.000
  22747568.544    11205015.24849   8729449.83246  22747568.876    22747575.430
       225.000         176.000
  20750497.384    -2239105.89649  -1728906.09248  20750497.729    20750503.663
       245.000         213.000
  20390887.632   -15529385.02149 -12085086.86748  20390888.162    20390892.834
       248.000         215.000
 03  4 15 18 11  0.0000000  0  7G 6G10G17G21G24G 5G30
  22308984.022   -15485585.79649 -12054354.79046  22308984.501    22308990.307
       231.000         187.000
  20838713.689   -16304359.75149 -12688697.80147  20838713.399    20838719.671
       242.000         209.000
  23925175.702    -6790176.29349  -5277439.01245  23925173.497    23925184.343
       213.000         156.000
  24412168.221    -8643485.34149  -6712620.07945  24412166.499    24412175.578
       211.000         144.000
  22762646.144    11284248.75949   8791190.18446  22762646.338    22762653.533
       226.000         177.000
  20760282.535    -2187685.81249  -1688838.52248  20760282.805    20760288.798
       245.000         213.000
  20387581.717   -15546757.81749 -12098624.11648  20387582.171    20387586.877
       248.000         215.000
 03  4 15 18 11 30.0000000  0  7G 6G10G17G21G24G 5G30
  22296924.024   -15548961.93349 -12103738.76846  22296924.360    22296929.863
       231.000         187.000
  20835497.366   -16321262.01049 -12701868.37547  20835496.686    20835503.130
       241.000         209.000
  23910511.538    -6867235.82949  -5337485.28645  23910510.498    23910520.136
       212.000         156.000
  24396129.091    -8727769.78949  -6778296.10945  24396127.602    24396136.076
       210.000         145.000
  22777735.813    11363545.61449   8852979.90646  22777736.151    22777743.138
       227.000         180.000
  20770161.142    -2135774.17749  -1648387.93148  20770161.057    20770167.013
       245.000         213.000
  20384385.057   -15563556.36349 -12111713.90748  20384385.544    20384390.544
       248.000         215.000
 03  4 15 18 12  0.0000000  0  7G 6G10G17G21G24G 5G30
  22284875.296   -15612278.43149 -12153076.27746  22284875.462    22284881.538
       231.000         187.000
  20832400.211   -16337537.28049 -12714550.39047  20832399.710    20832406.037
       241.000         209.000
  23895884.073    -6944102.59349  -5397381.34945  23895883.444    23895892.434
       214.000         156.000
  24380121.589    -8811887.70749  -6843842.37345  24380121.173    24380127.777
       212.000         144.000
  22792837.357    11442904.45849   8914817.91746  22792837.357    22792844.438
       226.000         180.000
  20780132.888    -2083372.48449  -1607555.47247  20780132.693    20780138.711
       244.000         212.000
  20381297.866   -15579779.70849 -12124355.48248  20381298.221    20381303.284
       247.000         215.000
 03  4 15 18 12 30.0000000  0  7G 6G10G17G21G24G 5G30
  22272838.091   -15675534.65849 -12202366.83047  22272838.495    22272843.710
       230.000         188.000
  20829422.534   -16353185.38349 -12726743.69047  20829422.111    20829428.142
       241.000         210.000
  23881293.654    -7020776.38849  -5457127.04745  23881293.564    23881303.218
       214.000         158.000
  24364146.510    -8895838.64149  -6909258.56645  24364147.092    24364153.681
       211.000         143.000
  22807950.232    11522323.29749   8976702.67646  22807951.094    22807957.458
       228.000         180.000
  20790197.595    -2030482.66349  -1566342.65647  20790197.266    20790203.193
       244.000         212.000
  20378320.152   -15595427.34049 -12136548.45148  20378320.322    20378325.788
       246.000         215.000
 03  4 15 18 13  0.0000000  0  7G 6G10G17G21G24G 5G30
  22260812.272   -15738731.25149 -12251610.91847  22260812.650    22260817.759
       231.000         188.000
  20826564.181   -16368206.70949 -12738448.60547  20826563.890    20826569.446
       241.000         209.000
  23866739.652    -7097258.17949  -5516723.13945  23866738.581    23866748.191
       215.000         158.000
  24348202.617    -8979623.18349  -6974545.06145  24348202.540    24348209.549
       209.000         142.000
  22823074.237    11601799.30649   9038632.00546  22823075.024    22823081.626
       228.000         180.000
  20800354.577    -1977107.47649  -1524751.64347  20800354.474    20800360.304
       244.000         212.000
  20375451.918   -15610499.76849 -12148293.21148  20375452.328    20375457.571
       247.000         215.000
 03  4 15 18 13 30.0000000  0  7G 6G10G17G21G24G 5G30
  22248798.415   -15801865.41349 -12300806.35147  22248798.467    22248803.830
       232.000         188.000
  20823825.542   -16382598.37249 -12749662.86647  20823824.566    20823831.147
       241.000         209.000
  23852222.563    -7173545.30949  -5576167.53745  23852221.371    23852230.480
       215.000         158.000
  24332290.809    -9063239.13649  -7039700.24245  24332289.796    24332298.136
       211.000         142.000
  22838209.203    11681332.93249   9100606.21146  22838210.046    22838216.321
       226.000         179.000
  20810604.128    -1923246.27449  -1482781.91347  20810603.809    20810609.922
       244.000         212.000
  20372693.853   -15624993.89449 -12159587.33748  20372694.387    20372699.398
       248.000         215.000
 03  4 15 18 14  0.0000000  0  7G 6G10G17G21G24G 5G30
  22236796.485   -15864936.82849 -12349952.89547  22236796.246    22236802.159
       232.000         188.000
  20821206.676   -16396360.40449 -12760386.51447  20821205.999    20821212.764
       241.000         209.000
  23837742.642    -7249637.65949  -5635460.17245  23837742.534    23837750.990
       215.000         159.000
  24316411.419    -9146686.40749  -7104723.94545  24316410.749    24316418.935
       211.000         144.000
  22853354.486    11760921.72649   9162623.41246  22853354.722    22853361.020
       227.000         178.000
  20820945.718    -1868901.10649  -1440435.07647  20820945.359    20820951.745
       244.000         212.000
  20370045.831   -15638909.59949 -12170430.75248  20370046.350    20370051.310
       247.000         216.000
 03  4 15 18 14 30.0000000  0  7G 6G10G17G21G24G 5G30
  22224806.348   -15927945.25549 -12399050.35747  22224805.927    22224811.558
       232.000         189.000
  20818707.560   -16409492.92049 -12770619.63147  20818706.389    20818713.296
       241.000         209.000
  23823299.997    -7325535.53849  -5694601.25945  23823299.643    23823307.577
       216.000         159.000
  24300563.768    -9229965.00949  -7169616.23545  24300561.441    24300570.975
       208.000         144.000
  22868509.923    11840564.00749   9224682.29046  22868510.010    22868516.412
       225.000         176.000
  20831378.988    -1814074.21049  -1397712.85747  20831378.707    20831384.667
       245.000         212.000
  20367507.928   -15652246.70749 -12180823.30948  20367508.337    20367513.235
       248.000         216.000
 03  4 15 18 15  0.0000000  0  7G 6G10G17G21G24G 5G30
  22212828.686   -15990887.84949 -12448096.51347  22212828.439    22212834.661
       232.000         188.000
  20816328.778   -16421993.38049 -12780360.23947  20816328.256    20816334.581
       242.000         209.000
  23808894.420    -7401237.01149  -5753589.29945  23808893.476    23808902.185
       217.000         159.000
  24284748.276    -9313072.49949  -7234375.17345  24284746.400    24284755.747
       204.000         143.000
  22883675.607    11920259.81249   9286782.89046  22883675.371    22883681.500
       226.000         174.000
  20841903.978    -1758765.24949  -1354615.00547  20841904.060    20841909.596
       245.000         212.000
  20365080.563   -15665002.49049 -12190762.88748  20365081.008    20365085.913
       248.000         215.000
 03  4 15 18 15 30.0000000  0  7G 6G10G17G21G24G 5G30
  22200863.529   -16053764.81249 -12497091.53447  22200863.242    22200869.323
       232.000         188.000
  20814070.222   -16433862.46349 -12789608.84847  20814069.260    20814075.538
       241.000         209.000
  23794526.337    -7476741.97449  -5812424.24245  23794525.683    23794534.116
       215.000         160.000
  24268965.614    -9396009.00949  -7299000.90745  24268964.485    24268974.354
       208.000         142.000
  22898850.979    12000006.66849   9348923.27946  22898850.865    22898857.472
       226.000         174.000
  20852520.282    -1702976.79849  -1311143.52847  20852520.071    20852525.866
       245.000         211.000
  20362763.722   -15677177.15749 -12200249.65048  20362764.092    20362769.082
       247.000         215.000
 03  4 15 18 16  0.0000000  0  7G 6G10G17G21G24G 5G30
  22188910.767   -16116576.34449 -12546035.56947  22188910.427    22188916.113
       231.000         188.000
  20811931.564   -16445100.68549 -12798365.88847  20811931.110    20811936.999
       241.000         209.000
  23780195.356    -7552051.42149  -5871106.80945  23780194.554    23780202.964
       217.000         159.000
  24253215.917    -9478774.41049  -7363493.31845  24253215.728    24253223.054
       209.000         142.000
  22914035.393    12079801.65149   9411101.13446  22914036.043    22914042.314
       227.000         175.000
  20863227.223    -1646711.62949  -1267300.58047  20863226.769    20863232.553
       244.000         211.000
  20360557.482   -15688771.19049 -12209283.97148  20360558.159    20360562.992
       248.000         216.000
 03  4 15 18 16 30.0000000  0  7G 6G10G17G21G24G 5G30
  22176971.026   -16179319.50549 -12594926.33347  22176971.072    22176976.927
       232.000         189.000
  20809913.525   -16455705.46749 -12806629.34447  20809912.727    20809919.411
       241.000         208.000
  23765902.038    -7627163.07549  -5929635.26045  23765901.109    23765909.353
       216.000         159.000
  24237499.040    -9561367.12149  -7427851.14245  24237498.599    24237505.881
       212.000         144.000
  22929229.194    12159645.04949   9473316.72946  22929229.225    22929236.063
       228.000         176.000
  20874024.958    -1589969.35149  -1223085.85947  20874024.603    20874030.643
       244.000         211.000
  20358462.310   -15699781.68749 -12217863.59248  20358462.700    20358467.613
       249.000         216.000
 03  4 15 18 17  0.0000000  0  7G 6G10G17G21G24G 5G30
  22165044.205   -16241995.36949 -12643764.64147  22165044.429    22165050.156
       232.000         190.000
  20808015.676   -16465678.23249 -12814400.31347  20808015.131    20808020.919
       241.000         208.000
  23751645.831    -7702078.43449  -5988010.75045  23751644.149    23751654.433
       216.000         160.000
  24221814.997    -9643788.36449  -7492075.36745  24221815.076    24221821.883
       213.000         147.000
  22944431.691    12239533.86849   9535567.73446  22944432.300    22944438.841
       225.000         175.000
  20884912.701    -1532753.51849  -1178502.13247  20884912.046    20884918.734
       243.000         211.000
  20356477.863   -15710209.98649 -12225989.54848  20356478.403    20356483.472
       248.000         216.000
 03  4 15 18 17 30.0000000  0  7G 6G10G17G21G24G 5G30
  22153130.473   -16304601.92349 -12692548.95747  22153130.437    22153136.505
       231.000         190.000
  20806238.411   -16475017.68549 -12821677.79847  20806237.272    20806244.088
       240.000         208.000
  23737427.496    -7776795.41849  -6046231.67345  23737426.282    23737435.522
       215.000         160.000
  24206163.814    -9726036.63749  -7556164.79145  24206163.722    24206171.017
       213.000         148.000
  22959642.585    12319467.33949   9597853.52546  22959642.360    22959649.668
       226.000         175.000
  20895890.433    -1475064.80349  -1133549.93147  20895889.996    20895896.454
       243.000         211.000
  20354604.568   -15720054.41849 -12233660.54948  20354604.880    20354610.126
       248.000         216.000
 03  4 15 18 18  0.0000000  0  7G 6G10G17G21G24G 5G30
  22141230.177   -16367137.82749 -12741278.21747  22141230.385    22141236.242
       232.000         190.000
  20804581.780   -16483722.90349 -12828461.06547  20804581.458    20804587.336
       242.000         208.000
  23723247.002    -7851313.51449  -6104297.63345  23723245.799    23723254.541
       216.000         160.000
  24190545.866    -9808111.03549  -7620118.72545  24190545.734    24190552.833
       215.000         149.000
  22974861.891    12399444.58049   9660173.41846  22974862.074    22974869.268
       228.000         176.000
  20906957.999    -1416904.38249  -1088230.16747  20906958.094    20906964.156
       245.000         211.000
  20352842.540   -15729313.92849 -12240875.76748  20352842.760    20352847.988
       248.000         216.000
 03  4 15 18 18 30.0000000  0  7G 6G10G17G21G24G 5G30
  22129343.317   -16429603.75749 -12789952.94747  22129343.404    22129349.240
       233.000         190.000
  20803045.880   -16491794.89449 -12834750.92147  20803045.381    20803051.372
       243.000         209.000
  23709104.111    -7925634.04749  -6162209.64145  23709102.580    23709111.988
       215.000         161.000
  24174960.852    -9890011.94249  -7683937.48645  24174959.943    24174966.780
       215.000         150.000
  22990088.871    12479462.38949   9722524.92746  22990089.162    22990095.401
       225.000         175.000
  20918114.770    -1358275.52649  -1042545.38947  20918114.541    20918121.067
       243.000         211.000
  20351191.624   -15737989.41649 -12247635.90248  20351192.433    20351197.504
       248.000         216.000
 03  4 15 18 19  0.0000000  0  7G 6G10G17G21G24G 5G30
  22117470.214   -16491997.28249 -12838571.25247  22117470.184    22117476.013
       232.000         191.000
  20801630.667   -16499231.98049 -12840546.02747  20801629.971    20801635.954
       242.000         209.000
  23694999.165    -7999755.00749  -6219966.14645  23694998.424    23695006.039
       215.000         160.000
  24159408.807    -9971737.99349  -7747619.99245  24159407.970    24159415.591
       213.000         149.000
  23005323.406    12559520.57849   9784907.90146  23005322.607    23005329.625
       223.000         173.000
  20929360.558    -1299178.38449   -996495.70547  20929360.205    20929366.368
       243.000         210.000
  20349652.261   -15746078.82449 -12253939.34448  20349652.519    20349657.848
       247.000         216.000
 03  4 15 18 19 30.0000000  0  7G 6G10G17G21G24G 5G30
  22105611.144   -16554316.93749 -12887132.00647  22105611.384    22105617.039
       233.000         191.000
  20800336.423   -16506033.21949 -12845845.68347  20800335.258    20800342.001
       240.000         208.000
  23680932.342    -8073675.35449  -6277566.33645  23680931.712    23680940.197
       215.000         160.000
  24143889.994   -10053287.69349  -7811165.05745  24143888.464    24143896.153
       211.000         149.000
  23020565.547    12639618.54549   9847321.85746  23020565.614    23020572.260
       226.000         176.000
  20940695.256    -1239614.24349   -950082.13647  20940695.088    20940701.131
       243.000         210.000
  20348224.662   -15753580.94949 -12259785.17648  20348225.117    20348230.113
       248.000         215.000
 03  4 15 18 20  0.0000000  0  7G 6G10G17G21G24G 5G30
  22093766.378   -16616561.70749 -12935634.41747  22093766.104    22093772.496
       233.000         191.000
  20799163.130   -16512198.37849 -12850649.68647  20799162.529    20799168.801
       241.000         208.000
  23666903.793    -8147394.81449  -6335009.98145  23666904.063    23666911.861
       216.000         161.000
  24128404.780   -10134660.43749  -7874572.26645  24128404.543    24128411.002
       212.000         149.000
  23035814.917    12719754.78949   9909765.63446  23035815.217    23035821.239
       223.000         175.000
  20952118.519    -1179584.63949   -903305.86647  20952118.200    20952124.430
       242.000         209.000
  20346908.901   -15760495.31049 -12265173.00548  20346909.418    20346914.372
       248.000         215.000
 03  4 15 18 20 30.0000000  0  7G 6G10G17G21G24G 5G30
  22081935.802   -16678731.88849 -12984078.70447  22081936.234    22081941.647
       234.000         192.000
  20798110.833   -16517728.37949 -12854958.77247  20798110.018    20798116.328
       241.000         208.000
  23652913.522    -8220914.22949  -6392297.75345  23652912.959    23652921.630
       215.000         160.000
  24112953.403   -10215857.22049  -7937842.35745  24112952.640    24112960.703
       216.000         151.000
  23051071.041    12799926.52049   9972237.07646  23051070.726    23051078.072
       225.000         175.000
  20963629.709    -1119092.68549   -856169.32247  20963629.301    20963635.912
       243.000         209.000
  20345704.942   -15766822.48649 -12270103.28548  20345705.541    20345710.526
       248.000         216.000
 03  4 15 18 21  0.0000000  0  7G 6G10G17G21G24G 5G30
  22070119.661   -16740826.86249 -13032464.38447  22070119.584    22070125.373
       235.000         191.000
  20797179.290   -16522623.50449 -12858773.15147  20797178.803    20797185.369
       241.000         209.000
  23638961.121    -8294233.62049  -6449429.65945  23638961.038    23638969.361
       216.000         161.000
  24097535.825   -10296878.00449  -8000975.31345  24097536.083    24097542.552
       216.000         151.000
  23066333.818    12880132.31949  10034735.07146  23066333.819    23066341.135
       225.000         174.000
  20975228.562    -1058140.69649   -808674.30947  20975228.452    20975234.997
       243.000         209.000
  20344612.751   -15772562.52649 -12274576.06048  20344613.547    20344618.460
       249.000         216.000
 03  4 15 18 21 30.0000000  0  7G 6G10G17G21G24G 5G30
  22058317.978   -16802845.31049 -13080790.43847  22058317.864    22058324.052
       234.000         191.000
  20796368.705   -16526883.06349 -12862092.28747  20796368.344    20796374.392
       242.000         209.000
  23625047.147    -8367352.01449  -6506404.94645  23625046.681    23625055.416
       218.000         161.000
  24082151.691   -10377721.68249  -8063970.24245  24082150.914    24082158.863
       212.000         151.000
  23081602.784    12960370.92349  10097258.62446  23081602.609    23081609.156
       224.000         173.000
  20986914.732     -996729.89649   -760821.78447  20986914.601    20986921.050
       242.000         210.000
  20343632.471   -15777714.48649 -12278590.59048  20343633.166    20343637.729
       248.000         216.000
 03  4 15 18 22  0.0000000  0  7G 6G10G17G21G24G 5G30
  22046531.057   -16864785.90649 -13129055.82847  22046531.224    22046537.187
       234.000         192.000
  20795679.241   -16530506.77749 -12864915.95847  20795678.671    20795684.831
       242.000         209.000
  23611171.600    -8440268.85849  -6563223.17846  23611171.296    23611179.933
       219.000         163.000
  24066801.480   -10458386.96649  -8126826.17045  24066800.371    24066807.643
       214.000         151.000
  23096877.695    13040640.96349  10159806.67646  23096877.724    23096884.219
       224.000         171.000
  20998687.819     -934861.89749   -712613.00447  20998687.691    20998694.324
       243.000         210.000
  20342764.140   -15782277.60349 -12282146.28048  20342764.487    20342769.715
       247.000         216.000
 03  4 15 18 22 30.0000000  0  7G 6G10G17G21G24G 5G30
  22034758.917   -16926649.16349 -13177260.93547  22034759.064    22034764.622
       234.000         192.000
  20795110.370   -16533495.96649 -12867245.17947  20795109.575    20795116.203
       242.000         209.000
  23597334.209    -8512985.32049  -6619885.27046  23597333.356    23597343.434
       216.000         164.000
  24051485.056   -10538875.46849  -8189544.35745  24051483.974    24051491.777
       214.000         152.000
  23112157.939    13120939.23849  10222376.73046  23112158.476    23112165.254
       226.000         171.000
  21010547.369     -872540.01249   -664050.52547  21010547.151    21010553.778
       243.000         209.000
  20342007.628   -15786253.06549 -12285244.05048  20342007.961    20342013.106
       247.000         215.000
 03  4 15 18 23  0.0000000  0  7G 6G10G17G21G24G 5G30
  22023002.268   -16988430.96549 -13225402.59547  22023002.912    22023007.874
       236.000         192.000
  20794663.008   -16535847.26449 -12869077.35147  20794662.615    20794668.331
       243.000         209.000
  23583535.279    -8585497.98449  -6676388.55746  23583534.719    23583543.967
       217.000         163.000
  24036202.666   -10619183.54449  -8252121.96045  24036201.634    24036208.549
       212.000         151.000
  23127444.046    13201267.92049  10284970.48546  23127443.634    23127452.084
       224.000         171.000
  21022493.604     -809762.79549   -615133.26347  21022493.431    21022499.987
       243.000         209.000
  20341363.630   -15789637.15449 -12287881.02348  20341364.396    20341368.968
       248.000         215.000
 03  4 15 18 23 30.0000000  0  7G 6G10G17G21G24G 5G30
  22011260.820   -17050133.51549 -13273482.49047  22011260.881    22011266.880
       235.000         193.000
  20794336.415   -16537563.80449 -12870414.91147  20794335.781    20794341.522
       242.000         209.000
  23569774.706    -8657809.64249  -6732735.22946  23569774.245    23569782.844
       221.000         163.000
  24020954.368   -10699313.69949  -8314560.92345  24020953.050    24020961.247
       215.000         151.000
  23142734.975    13281622.40649  10347584.32846  23142735.268    23142742.442
       223.000         171.000
  21034525.453     -746535.41149   -565865.22347  21034525.391    21034531.345
       243.000         209.000
  20340831.724   -15792432.76349 -12290059.44048  20340832.295    20340836.836
       247.000         215.000
 03  4 15 18 24  0.0000000  0  7G 6G10G17G21G24G 5G30
  21999535.100   -17111752.39849 -13321497.19247  21999534.889    21999540.974
       235.000         193.000
  20794131.171   -16538642.13249 -12871255.14447  20794130.753    20794136.896
       243.000         210.000
  23556053.439    -8729916.32849  -6788922.17346  23556052.894    23556061.371
       221.000         164.000
  24005740.740   -10779262.41249  -8376858.50945  24005740.472    24005748.510
       213.000         151.000
  23158031.213    13362004.18249  10410219.44346  23158030.829    23158038.346
       223.000         170.000
  21046643.255     -682856.21749   -516245.11347  21046643.062    21046649.224
       242.000         208.000
  20340412.414   -15794636.02849 -12291776.28648  20340413.005    20340417.679
       247.000         215.000
 03  4 15 18 24 30.0000000  0  7G 6G10G17G21G24G 5G30
  21987824.628   -17173290.69249 -13369449.09447  21987824.396    21987830.690
       234.000         193.000
  20794046.699   -16539086.44949 -12871601.35647  20794045.972    20794052.430
       242.000         211.000
  23542370.205    -8801822.13849  -6844952.58546  23542369.557    23542378.850
       220.000         164.000
  23990560.586   -10859033.14249  -8439017.40945  23990559.851    23990567.612
       212.000         150.000
  23173331.572    13442408.50249  10472872.12146  23173330.917    23173338.700
       221.000         171.000
  21058845.805     -618731.22049   -466277.62547  21058845.275    21058852.164
       242.000         208.000
  20340105.128   -15796250.83749 -12293034.58948  20340105.898    20340110.285
       247.000         215.000
 03  4 15 18 25  0.0000000  0  7G 6G10G17G21G24G 5G30
  21976130.730   -17234741.82149 -13417333.09047  21976130.601    21976136.356
       234.000         193.000
  20794083.855   -16538891.16049 -12871449.18147  20794083.266    20794089.613
       243.000         211.000
  23528726.264    -8873521.15349  -6900821.86646  23528725.882    23528734.292
       220.000         165.000
  23975415.552   -10938619.99149  -8501033.01445  23975415.595    23975420.982
       211.000         149.000
  23188636.874    13522839.44249  10535545.53546  23188636.701    23188643.714
       221.000         170.000
  21071133.934     -554156.89749   -415960.01747  21071133.828    21071140.049
       242.000         208.000
  20339911.017   -15797271.37049 -12293829.82848  20339911.512    20339916.382
       248.000         215.000
 03  4 15 18 25 30.0000000  0  7G 6G10G17G21G24G 5G30
  21964452.890   -17296109.36349 -13465151.93947  21964453.056    21964458.485
       237.000         193.000
  20794241.776   -16538061.05449 -12870802.33647  20794241.196    20794247.869
       244.000         211.000
  23515120.826    -8945017.53349  -6956533.23346  23515120.761    23515129.083
       221.000         165.000
  23960304.900   -11018026.91949  -8562908.41445  23960303.387    23960309.252
       214.000         148.000
  23203946.165    13603290.54849  10598234.67546  23203945.873    23203952.894
       220.000         168.000
  21083506.402     -489139.75049   -365297.34447  21083506.382    21083512.295
       244.000         208.000
  20339829.132   -15797701.88749 -12294165.31648  20339829.849    20339834.379
       249.000         215.000
 03  4 15 18 26  0.0000000  0  7G 6G10G17G21G24G 5G30
  21952791.470   -17357391.04749 -13512903.88647  21952791.309    21952796.919
       236.000         193.000
  20794520.787   -16536594.77149 -12869659.77547  20794519.764    20794526.055
       241.000         211.000
  23501554.391    -9016309.84549  -7012085.60946  23501554.432    23501562.108
       221.000         166.000
  23945228.624   -11097252.45349  -8624642.49245  23945227.994    23945233.833
       214.000         149.000
  23219259.363    13683762.06649  10660939.70746  23219259.061    23219266.031
       219.000         168.000
  21095962.945     -423680.50749   -314290.18347  21095962.759    21095968.695
       243.000         207.000
  20339859.765   -15797541.14649 -12294040.07948  20339860.248    20339865.059
       247.000         215.000
 03  4 15 18 26 30.0000000  0  7G 6G10G17G21G24G 5G30
  21941146.213   -17418586.82049 -13560588.89047  21941145.991    21941152.175
       235.000         193.000
  20794920.526   -16534493.40549 -12868022.33847  20794919.597    20794926.468
       242.000         210.000
  23488026.659    -9087398.80149  -7067479.51346  23488025.878    23488035.037
       223.000         167.000
  23930186.972   -11176296.64549  -8686235.24545  23930185.128    23930193.727
       213.000         151.000
  23234576.020    13764251.69049  10723658.84046  23234576.178    23234583.063
       222.000         170.000
  21108503.005     -357782.14449   -262940.85447  21108502.328    21108508.457
       242.000         207.000
  20340002.645   -15796789.69149 -12293454.53948  20340002.799    20340008.098
       247.000         215.000
 03  4 15 18 27  0.0000000  0  7G 6G10G17G21G24G 5G30
  21929517.957   -17479693.30249 -13608204.32647  21929518.210    21929523.832
       236.000         193.000
  20795441.634   -16531754.99949 -12865888.51847  20795440.786    20795447.568
       241.000         210.000
  23474538.132    -9158281.84049  -7122712.96246  23474537.886    23474545.149
       222.000         167.000
  23915179.877   -11255157.78349  -8747685.35545  23915179.046    23915186.383
       211.000         152.000
  23249896.316    13844760.03949  10786392.56646  23249896.831    23249903.184
       223.000         172.000
  21121126.640     -291444.31749   -211249.09447  21121126.648    21121132.419
       243.000         207.000
  20340258.448   -15795445.15949 -12292406.87148  20340258.852    20340264.226
       247.000         215.000
 03  4 15 18 27 30.0000000  0  7G 6G10G17G21G24G 5G30
  21917906.742   -17540710.94549 -13655750.52947  21917906.499    21917912.174
       236.000         194.000
  20796083.513   -16528381.08649 -12863259.48847  20796082.911    20796089.440
       241.000         209.000
  23461088.349    -9228960.44149  -7177787.10946  23461087.847    23461096.027
       221.000         167.000
  23900207.384   -11333836.06949  -8808993.00645  23900207.321    23900214.542
       213.000         153.000
  23265219.772    13925284.25349  10849138.66746  23265220.003    23265226.744
       223.000         173.000
  21133833.313     -224670.45249   -159217.56147  21133833.232    21133839.064
       242.000         207.000
  20340626.944   -15793508.85549 -12290898.07748  20340627.567    20340632.334
       247.000         215.000
 03  4 15 18 28  0.0000000  0  7G 6G10G17G21G24G 5G30
  21906312.581   -17601638.75349 -13703226.72347  21906312.206    21906318.332
       235.000         194.000
  20796846.509   -16524372.05449 -12860135.57147  20796846.393    20796851.745
       242.000         209.000
  23447677.556    -9299434.37049  -7232701.78946  23447677.021    23447684.436
       221.000         167.000
  23885270.161   -11412331.07849  -8870157.84145  23885270.311    23885277.039
       217.000         154.000
  23280545.957    14005823.34849  10911896.36546  23280545.694    23280552.739
       221.000         171.000
  21146622.579     -157462.64549   -106847.89247  21146622.288    21146628.486
       242.000         206.000
  20341108.065   -15790980.60149 -12288928.02048  20341108.344    20341113.503
       247.000         215.000
 03  4 15 18 28 30.0000000  0  7G 6G10G17G21G24G 5G30
  21894735.731   -17662475.32749 -13750631.83647  21894736.020    21894741.440
       237.000         194.000
  20797730.293   -16519727.92049 -12856516.75147  20797729.491    20797735.698
       241.000         208.000
  23434305.689    -9369703.27049  -7287456.68246  23434304.988    23434312.902
       220.000         167.000
  23870368.055   -11490642.69649  -8931179.76745  23870368.228    23870373.833
       214.000         154.000
  23295874.582    14086375.90649  10974664.54146  23295876.360    23295881.263
       223.000         169.000
  21159493.993      -89822.65249    -54141.45347  21159493.817    21159500.248
       241.000         206.000
  20341701.820   -15787860.34749 -12286496.67348  20341702.233    20341707.317
       248.000         215.000
 03  4 15 18 29  0.0000000  0  7G 6G10G17G21G24G 5G30
  21883176.900   -17723217.52049 -13797963.40647  21883177.252    21883182.216
       236.000         194.000
  20798735.224   -16514446.80749 -12852401.59147  20798734.576    20798740.955
       242.000         209.000
  23420973.397    -9439764.39249  -7342049.66046  23420971.839    23420980.499
       220.000         166.000
  23855501.199   -11568768.09449  -8992056.60145  23855500.980    23855507.919
       216.000         154.000
  23311206.067    14166942.50349  11037443.67446  23311206.158    23311213.153
       225.000         169.000
  21172447.740      -21750.51649     -1098.28347  21172447.610    21172453.986
       242.000         207.000
  20342408.770   -15784145.78049 -12283602.22648  20342409.173    20342414.111
       248.000         215.000
 03  4 15 18 29 30.0000000  0  7G 6G10G17G21G24G 5G30
  21871635.635   -17783867.11249 -13845222.81547  21871635.692    21871641.344
       236.000         194.000
  20799860.875   -16508531.75149 -12847792.44447  20799860.266    20799866.292
       242.000         209.000
  23407680.065    -9509620.29549  -7396482.74446  23407678.891    23407688.025
       221.000         167.000
  23840669.492   -11646709.72349  -9052790.22545  23840668.119    23840676.576
       215.000         154.000
  23326539.408    14247519.72849  11100231.08646  23326540.302    23326546.896
       226.000         169.000
  21185482.861       46749.05649     52277.95747  21185482.586    21185489.347
       242.000         207.000
  20343228.214   -15779839.60549 -12280246.78448  20343228.506    20343233.597
       248.000         215.000
 03  4 15 18 30  0.0000000  0  7G 6G10G17G21G24G 5G30
  21860112.357   -17844421.98249 -13892408.41847  21860112.449    21860117.862
       235.000         194.000
  20801107.199   -16501982.16449 -12842688.86647  20801106.683    20801112.568
       242.000         209.000
  23394426.135    -9579270.00049  -7450755.15246  23394426.236    23394434.171
       221.000         167.000
  23825872.702   -11724466.58249  -9113379.85845  23825872.162    23825879.863
       216.000         155.000
  23341874.704    14328106.84449  11163026.20846  23341874.836    23341882.082
       223.000         168.000
  21198599.106      115675.01449    105986.43847  21198599.255    21198605.520
       242.000         206.000
  20344160.437   -15774940.63049 -12276429.42748  20344160.920    20344165.828
       248.000         215.000
 03  4 15 18 30 30.0000000  0  7G 6G10G17G21G24G 5G30
  21848607.100   -17904882.06449 -13939520.16247  21848607.194    21848612.914
       236.000         194.000
  20802474.082   -16494799.23449 -12837091.76947  20802473.827    20802480.032
       243.000         210.000
  23381211.168    -9648714.37249  -7504867.55846  23381210.485    23381219.623
       219.000         167.000
  23811110.930   -11802039.33749  -9173826.05045  23811110.531    23811118.551
       216.000         154.000
  23357211.445    14408701.71349  11225827.36046  23357211.439    23357218.453
       220.000         166.000
  21211795.902      185024.26749    160024.77447  21211795.520    21211802.263
       241.000         206.000
  20345205.248   -15769450.00549 -12272151.03348  20345205.817    20345210.685
       248.000         215.000
 03  4 15 18 31  0.0000000  0  7G 6G10G17G21G24G 5G30
  21837120.227   -17965245.93749 -13986556.93947  21837120.466    21837126.217
       237.000         194.000
  20803961.542   -16486983.26249 -12831001.40047  20803960.978    20803967.063
       243.000         210.000
  23368035.568    -9717952.68949  -7558819.41446  23368034.996    23368042.789
       222.000         167.000
  23796384.268   -11879427.78649  -9234128.63645  23796383.916    23796391.106
       215.000         153.000
  23372549.467    14489303.08349  11288633.57046  23372549.900    23372556.930
       220.000         164.000
  21225072.817      254794.87649    214391.42647  21225072.368    21225078.854
       241.000         205.000
  20346362.713   -15763367.58249 -12267411.50348  20346363.226    20346368.510
       249.000         216.000
 03  4 15 18 31 30.0000000  0  7G 6G10G17G21G24G 5G30
  21825652.555   -18025509.14749 -14033515.27447  21825652.535    21825658.624
       236.000         195.000
  20805569.835   -16478531.44749 -12824415.55647  20805569.154    20805574.870
       243.000         210.000
  23354899.637    -9786981.61049  -7612608.09646  23354899.290    23354906.513
       221.000         167.000
  23781693.187   -11956629.02349  -9294285.32245  23781692.377    23781700.166
       217.000         154.000
  23387889.146    14569913.03449  11351446.47746  23387889.111    23387896.370
       221.000         163.000
  21238430.001      324987.84449    269087.20247  21238429.471    21238436.127
       240.000         204.000
  20347633.404   -15756690.04649 -12262208.24148  20347634.046    20347638.972
       248.000         216.000
 03  4 15 18 32  0.0000000  0  7G 6G10G17G21G24G 5G30
  21814204.057   -18085672.00849 -14080395.41447  21814204.121    21814209.868
       237.000         195.000
  20807298.824   -16469445.50049 -12817335.59347  20807298.147    20807304.435
       242.000         209.000
  23341803.221    -9855802.47349  -7666234.66346  23341802.616    23341811.350
       222.000         167.000
  23767038.100   -12033642.65449  -9354295.84145  23767038.042    23767044.757
       218.000         156.000
  23403229.859    14650528.82449  11414263.94945  23403230.031    23403237.414
       221.000         161.000
  21251866.938      395599.81249    324109.45747  21251866.409    21251873.034
       240.000         204.000
  20349017.085   -15749418.89649 -12256542.43048  20349017.558    20349022.548
       248.000         216.000
 03  4 15 18 32 30.0000000  0  7G 6G10G17G21G24G 5G30
  21802774.570   -18145734.60849 -14127197.42747  21802774.623    21802780.204
       237.000         195.000
  20809148.172   -16459726.98149 -12809762.71947  20809147.087    20809154.134
       241.000         209.000
  23328746.401    -9924416.17849  -7719699.79846  23328746.175    23328754.086
       222.000         168.000
  23752418.504   -12110469.43649  -9414160.75645  23752417.344    23752425.938
       214.000         156.000
  23418571.341    14731148.48749  11477084.43445  23418571.071    23418578.843
       220.000         162.000
  21265383.169      466627.59549    379455.72247  21265383.511    21265389.805
       242.000         205.000
  20350513.465   -15741555.42549 -12250415.07348  20350514.062    20350519.342
       247.000         216.000
 03  4 15 18 33  0.0000000  0  7G 6G10G17G21G24G 5G30
  21791364.228   -18205696.61049 -14173921.04647  21791364.312    21791369.171
       238.000         195.000
  20811117.617   -16449377.29549 -12801698.03547  20811117.293    20811123.489
       243.000         210.000
  23315728.867    -9992823.55749  -7773004.16746  23315728.917    23315736.380
       223.000         168.000
  23737834.042   -12187110.07249  -9473880.62445  23737833.310    23737839.963
       217.000         155.000
  23433913.092    14811769.72649  11539906.12246  23433913.459    23433920.750
       220.000         164.000
  21278978.047      538068.20049    435123.67747  21278978.290    21278984.256
       242.000         205.000
  20352122.413   -15733100.47349 -12243826.81748  20352122.839    20352128.303
       248.000         216.000
 03  4 15 18 33 30.0000000  0  7G 6G10G17G21G24G 5G30
  21779973.560   -18265555.29049 -14220564.15847  21779973.368    21779978.535
       237.000         195.000
  20813207.409   -16438395.46149 -12793140.76347  20813206.547    20813213.172
       241.000         210.000
  23302751.104   -10061023.10249  -7826146.60646  23302751.501    23302758.185
       224.000         168.000
  23723286.013   -12263562.18249  -9533453.58845  23723286.451    23723291.789
       220.000         156.000
  23449255.079    14892392.81849  11602729.24746  23449254.919    23449262.035
       216.000         164.000
  21292651.216      609920.94949    491112.78147  21292650.865    21292657.458
       240.000         204.000
  20353844.153   -15724052.79649 -12236776.69548  20353844.786    20353849.987
       248.000         216.000
 03  4 15 18 34  0.0000000  0  7G 6G10G17G21G24G 5G30
  21768602.520   -18325310.47349 -14267126.62147  21768602.630    21768607.802
       237.000         196.000
  20815417.082   -16426783.11549 -12784092.17547  20815416.587    20815422.781
       243.000         210.000
  23289812.769   -10129014.98849  -7879127.21846  23289811.679    23289819.612
       222.000         169.000
  23708773.452   -12339827.70449  -9592881.17945  23708773.258    23708778.797
       218.000         157.000
  23464597.030    14973015.37849  11665551.95346  23464597.487    23464604.799
       219.000         164.000
  21306402.073      682182.60849    547420.51347  21306401.685    21306408.184
       240.000         203.000
  20355678.557   -15714413.51849 -12229265.58848  20355679.067    20355684.302
       248.000         216.000
 03  4 15 18 34 30.0000000  0  7G 6G10G17G21G24G 5G30
  21757251.503   -18384960.31049 -14313607.00047  21757250.959    21757257.434
       236.000         196.000
  20817746.908   -16414539.97749 -12774552.06447  20817746.544    20817752.886
       243.000         210.000
  23276913.852   -10196798.63149  -7931945.57246  23276913.468    23276921.634
       221.000         169.000
  23694296.295   -12415904.73049  -9652161.87645  23694295.770    23694302.623
       217.000         157.000
  23479938.932    15053636.96349  11728373.90946  23479939.366    23479946.802
       221.000         166.000
  21320230.537      754851.55549    604045.61847  21320230.182    21320237.089
       240.000         204.000
  20357625.450   -15704182.30649 -12221293.23448  20357625.859    20357631.252
       247.000         216.000
 03  4 15 18 35  0.0000000  0  7G 6G10G17G21G24G 5G30
  21745920.739   -18444503.27149 -14360004.10847  21745920.123    21745926.889
       235.000         196.000
  20820196.723   -16401666.54349 -12764520.81047  20820196.058    20820202.229
       242.000         210.000
  23264054.531   -10264373.63049  -7984601.35346  23264053.391    23264062.022
       222.000         168.000
  23679855.273   -12491792.78449  -9711295.32045  23679853.748    23679860.600
       215.000         156.000
  23495280.255    15134256.68049  11791194.40846  23495279.746    23495287.628
       222.000         167.000
  21334136.219      827926.15749    660986.81147  21334135.995    21334142.768
       240.000         203.000
  20359685.081   -15693358.90349 -12212859.43548  20359685.703    20359690.734
       248.000         216.000
 03  4 15 18 35 30.0000000  0  7G 6G10G17G21G24G 5G30
  21734610.468   -18503938.44849 -14406317.22247  21734610.392    21734616.322
       236.000         196.000
  20822766.217   -16388163.51349 -12753998.95847  20822765.579    20822771.763
       243.000         210.000
  23251235.144   -10331740.38849  -8037094.85946  23251234.595    23251242.240
       223.000         168.000
  23665449.954   -12567491.87049  -9770281.53045  23665448.841    23665455.769
       219.000         155.000
  23510621.086    15214873.13449  11854012.38546  23510621.925    23510628.783
       224.000         167.000
  21348118.593      901403.74049    718242.01747  21348118.255    21348125.096
       240.000         203.000
  20361857.313   -15681943.89049 -12203964.63948  20361857.999    20361863.172
       248.000         216.000
 03  4 15 18 36  0.0000000  0  7G 6G10G17G21G24G 5G30
  21723320.903   -18563265.31249 -14452545.93447  21723320.688    21723326.517
       235.000         196.000
  20825455.314   -16374032.22649 -12742987.56647  20825454.328    20825461.257
       241.000         209.000
  23238455.220   -10398899.32849  -8089426.43346  23238454.922    23238462.226
       222.000         170.000
  23651080.706   -12643002.27349  -9829120.72045  23651078.889    23651086.444
       216.000         156.000
  23525960.986    15295484.59649  11916826.47646  23525960.896    23525968.202
       224.000         167.000
  21362177.080      975281.43949    775809.00247  21362177.172    21362183.509
       241.000         203.000
  20364141.974   -15669938.19549 -12194609.57248  20364142.597    20364147.687
       248.000         216.000
 03  4 15 18 36 30.0000000  0  7G 6G10G17G21G24G 5G30
  21712052.608   -18622480.25449 -14498687.43547  21712052.449    21712058.426
       236.000         197.000
  20828264.159   -16359271.41949 -12731485.63647  20828263.533    20828269.889
       242.000         210.000
  23225715.160   -10465847.93749  -8141594.11746  23225714.343    23225723.046
       221.000         170.000
  23636747.749   -12718321.58449  -9887810.97845  23636747.490    23636753.375
       219.000         157.000
  23541300.002    15376091.97849  11979637.38246  23541299.448    23541307.505
       223.000         166.000
  21376311.878     1049559.35449    833687.84647  21376311.577    21376318.282
       239.000         202.000
  20366539.351   -15657339.82749 -12184792.67548  20366539.738    20366544.886
       248.000         216.000
 03  4 15 18 37  0.0000000  0  7G 6G10G17G21G24G 5G30
  21700805.362   -18681585.02949 -14544743.09747  21700805.315    21700811.011
       236.000         197.000
  20831192.204   -16343884.54149 -12719495.85547  20831191.726    20831197.805
       242.000         210.000
  23213014.641   -10532588.88049  -8193599.98546  23213013.275    23213022.142
       222.000         171.000
  23622450.984   -12793452.65149  -9946354.54845  23622449.668    23622456.638
       218.000         159.000
  23556637.675    15456691.02749  12042441.79646  23556638.089    23556644.564
       222.000         165.000
  21390521.660     1124232.25049    891874.46547  21390521.200    21390528.179
       240.000         202.000
  20369048.908   -15644152.11449 -12174516.54948  20369049.391    20369054.747
       248.000         216.000
 03  4 15 18 37 30.0000000  0  7G 6G10G17G21G24G 5G30
  21689579.504   -18740577.54349 -14590711.27547  21689579.676    21689585.024
       237.000         198.000
  20834239.352   -16327871.55049 -12707018.20647  20834239.266    20834244.969
       243.000         209.000
  23200353.756   -10599121.12549  -8245443.23746  23200353.579    23200361.875
       222.000         171.000
  23608190.061   -12868394.06149 -10004750.37045  23608189.770    23608195.770
       220.000         159.000
  23571973.627    15537281.58349  12105239.58546  23571974.122    23571980.840
       220.000         164.000
  21404806.412     1199298.81349    950367.83247  21404806.191    21404813.140
       240.000         202.000
  20371670.685   -15630374.45249 -12163780.73148  20371671.375    20371676.564
       248.000         216.000
 03  4 15 18 38  0.0000000  0  7G 6G10G17G21G24G 5G30
  21678375.429   -18799455.09749 -14636589.88347  21678375.713    21678381.632
       237.000         198.000
  20837405.824   -16311231.73449 -12694052.11247  20837405.165    20837411.349
       242.000         209.000
  23187733.007   -10665443.18849  -8297122.71546  23187732.017    23187741.108
       223.000         172.000
  23593965.527   -12943144.34049 -10062997.23845  23593965.518    23593971.622
       220.000         159.000
  23587307.952    15617864.17649  12168031.15046  23587307.817    23587315.332
       220.000         164.000
  21419165.912     1274758.45349   1009167.49847  21419165.770    21419172.448
       240.000         202.000
  20374405.030   -15616005.75049 -12152584.35648  20374405.483    20374410.731
       248.000         215.000
 03  4 15 18 38 30.0000000  0  7G 6G10G17G21G24G 5G30
  21667193.328   -18858218.39149 -14682379.44547  21667193.364    21667198.992
       238.000         199.000
  20840691.031   -16293967.53949 -12680599.49447  20840690.410    20840696.412
       242.000         209.000
  23175152.034   -10731556.96349  -8348639.88646  23175151.496    23175160.036
       222.000         173.000
  23579777.017   -13017704.82349 -10121096.21245  23579776.281    23579782.333
       220.000         159.000
  23602640.246    15698436.06549  12230814.38546  23602640.252    23602648.188
       220.000         165.000
  21433599.453     1350606.87949   1068270.11247  21433599.188    21433606.097
       239.000         202.000
  20377251.315   -15601048.08849 -12140929.05248  20377251.802    20377257.115
       247.000         215.000
 03  4 15 18 39  0.0000000  0  7G 6G10G17G21G24G 5G30
  21656033.166   -18916865.37949 -14728078.38747  21656032.990    21656038.618
       237.000         198.000
  20844095.086   -16276079.18349 -12666660.51347  20844094.943    20844100.589
       243.000         209.000
  23162610.732   -10797461.83849  -8399994.27346  23162609.799    23162618.602
       222.000         173.000
  23565624.807   -13092074.58949 -10179046.58145  23565623.708    23565630.415
       217.000         160.000
  23617970.491    15778996.73349  12293588.88146  23617970.769    23617977.677
       220.000         166.000
  21448106.603     1426842.45949   1127674.40547  21448106.565    21448113.282
       239.000         201.000
  20380209.785   -15585501.49449 -12128814.83948  20380210.454    20380215.666
       248.000         216.000
 03  4 15 18 39 30.0000000  0  7G 6G10G17G21G24G 5G30
  21644895.680   -18975392.40849 -14773683.85447  21644895.341    21644901.493
       236.000         198.000
  20847618.277   -16257565.16849 -12652234.01047  20847617.864    20847623.936
       243.000         209.000
  23150109.731   -10863154.91149  -8451183.63246  23150109.862    23150116.977
       222.000         173.000
  23551509.113   -13166251.16449 -10236846.41245  23551507.681    23551515.578
       218.000         159.000
  23633298.727    15859547.12449  12356355.35646  23633298.258    23633305.932
       223.000         167.000
  21462687.482     1503465.36749   1187380.50547  21462687.421    21462694.039
       239.000         201.000
  20383280.716   -15569363.91649 -12116240.12748  20383281.378    20383286.441
       248.000         216.000
 03  4 15 18 40  0.0000000  0  7G 6G10G17G21G24G 5G30
  21633781.022   -19033800.06649 -14819196.30347  21633781.165    21633786.902
       237.000         199.000
  20851259.978   -16238428.06649 -12637321.98747  20851259.473    20851265.781
       242.000         209.000
  23137648.656   -10928637.86949  -8502209.26646  23137648.479    23137656.270
       223.000         173.000
  23537430.098   -13240235.95049 -10294496.81545  23537430.026    23537435.767
       220.000         159.000
  23648624.517    15940084.42049  12419111.63246  23648623.948    23648632.752
       222.000         168.000
  21477341.271     1580471.45649   1247385.19647  21477341.096    21477347.898
       239.000         200.000
  20386463.680   -15552637.55449 -12103206.62148  20386464.574    20386469.518
       248.000         216.000
 03  4 15 18 40 30.0000000  0  7G 6G10G17G21G24G 5G30
  21622689.095   -19092088.67149 -14864615.98247  21622689.384    21622694.958
       237.000         199.000
  20855019.617   -16218670.67249 -12621926.62047  20855018.691    20855025.085
       241.000         209.000
  23125227.271   -10993912.65949  -8553072.68746  23125226.699    23125234.664
       223.000         173.000
  23523387.415   -13314030.47849 -10351998.95945  23523386.638    23523393.596
       219.000         159.000
  23663947.279    16020605.90349  12481855.60046  23663947.330    23663954.592
       222.000         169.000
  21492067.197     1657856.69549   1307685.32347  21492067.142    21492073.872
       238.000         200.000
  20389758.270   -15535324.62749 -12089716.05248  20389758.874    20389763.856
       247.000         215.000
 03  4 15 18 41  0.0000000  0  7G 6G10G17G21G24G 5G30
  21611620.490   -19150254.89249 -14909940.29747  21611620.387    21611626.535
       238.000         199.000
  20858897.534   -16198292.02849 -12606047.17147  20858897.076    20858903.297
       242.000         209.000
  23112845.859   -11058976.96249  -8603772.09546  23112845.720    23112853.282
       223.000         173.000
  23509381.310   -13387632.42049 -10409351.01945  23509380.814    23509386.978
       219.000         159.000
  23679267.174    16101112.75149  12544588.15746  23679267.234    23679275.398
       223.000         169.000
  21506865.204     1735620.77349   1368280.64547  21506865.317    21506871.984
       237.000         199.000
  20393164.742   -15517423.59149 -12075767.21448  20393165.086    20393170.485
       247.000         215.000
 03  4 15 18 41 30.0000000  0  7G 6G10G17G21G24G 5G30
  21600575.271   -19208298.11549 -14955168.76747  21600574.983    21600581.153
       237.000         200.000
  20862893.416   -16177293.42549 -12589684.62947  20862892.770    20862899.009
       241.000         209.000
  23100504.480   -11123831.50049  -8654308.06546  23100505.123    23100512.168
       223.000         174.000
  23495411.791   -13461042.29149 -10466553.43245  23495410.816    23495417.163
       219.000         159.000
  23694584.065    16181603.01849  12607307.78946  23694583.751    23694591.776
       222.000         169.000
  21521734.699     1813760.59049   1429168.75347  21521734.453    21521741.318
       237.000         199.000
  20396682.795   -15498935.87249 -12061361.22448  20396683.300    20396688.506
       247.000         215.000
 03  4 15 18 42  0.0000000  0  7G 6G10G17G21G24G 5G30
  21589553.423   -19266217.67549 -15000300.88547  21589553.203    21589559.434
       237.000         200.000
  20867006.902   -16155676.47849 -12572840.26447  20867006.312    20867012.856
       242.000         209.000
  23088202.769   -11188477.03149  -8704681.14446  23088203.140    23088210.601
       222.000         174.000
  23481478.701   -13534260.45449 -10523606.46745  23481478.141    23481484.295
       218.000         159.000
  23709897.378    16262075.32249  12670013.43146  23709897.030    23709905.195
       223.000         169.000
  21536675.194     1892273.45549   1490347.54747  21536675.510    21536681.724
       238.000         199.000
  20400312.338   -15479862.46549 -12046498.85048  20400312.677    20400317.916
       247.000         215.000
 03  4 15 18 42 30.0000000  0  7G 6G10G17G21G24G 5G30
  21578555.496   -19324011.79149 -15045335.24847  21578555.527    21578561.331
       237.000         200.000
  20871238.115   -16133441.79749 -12555514.55147  20871237.433    20871243.588
       241.000         209.000
  23075940.891   -11252912.64849  -8754890.65646  23075940.909    23075948.030
       223.000         173.000
  23467582.268   -13607286.54249 -10580509.81645  23467581.351    23467586.755
       221.000         158.000
  23725207.270    16342529.11649  12732704.64546  23725207.581    23725215.190
       222.000         169.000
  21551686.450     1971157.44549   1551815.53247  21551686.478    21551693.106
       238.000         198.000
  20404053.294   -15460203.45949 -12031180.16648  20404053.758    20404058.796
       247.000         215.000
 03  4 15 18 43  0.0000000  0  7G 6G10G17G21G24G 5G30
  21567581.771   -19381679.13949 -15090270.83947  21567581.744    21567587.432
       237.000         200.000
  20875586.452   -16110590.65349 -12537708.47447  20875585.983    20875592.092
       242.000         209.000
  23063719.116   -11317138.91249  -8804937.04546  23063718.880    23063726.455
       224.000         174.000
  23453722.768   -13680120.00049 -10637263.07445  23453722.576    23453727.095
       223.000         160.000
  23740513.482    16422963.13349  12795380.45746  23740513.485    23740520.467
       221.000         167.000
  21566767.850     2050410.10649   1613570.79847  21566767.478    21566774.818
       236.000         198.000
  20407905.539   -15439959.61849 -12015405.77048  20407906.240    20407911.272
       247.000         215.000
 03  4 15 18 43 30.0000000  0  7G 6G10G17G21G24G 5G30
  21556632.228   -19439218.86849 -15135106.99147  21556632.244    21556638.041
       237.000         200.000
  20880051.985   -16087124.41549 -12519423.10947  20880051.691    20880058.027
       242.000         209.000
  23051536.986   -11381155.94549  -8854820.39546  23051536.603    23051544.997
       223.000         174.000
  23439899.721   -13752761.08049 -10693866.44045  23439898.366    23439905.099
       220.000         160.000
  23755815.541    16503375.73149  12858039.57446  23755815.011    23755822.356
       220.000         165.000
  21581918.712     2130028.55549   1675611.08947  21581918.838    21581925.813
       237.000         198.000
  20411868.936   -15419131.96349 -11999176.45248  20411869.497    20411874.973
       247.000         215.000
 03  4 15 18 44  0.0000000  0  7G 6G10G17G21G24G 5G30
  21545707.616   -19496628.14649 -15179841.48047  21545707.687    21545713.498
       238.000         200.000
  20884634.632   -16063042.58549 -12500658.05447  20884633.809    20884640.532
       242.000         209.000
  23039394.933   -11444962.05149  -8904539.37746  23039394.949    23039402.777
       224.000         175.000
  23426113.294   -13825208.24249 -10750318.68845  23426111.930    23426119.389
       220.000         160.000
  23771113.620    16583767.57849  12920682.51745  23771113.421    23771121.043
       217.000         161.000
  21597139.077     2210011.88549   1737935.70647  21597139.212    21597145.890
       237.000         197.000
  20415943.582   -15397719.70649 -11982491.60248  20415944.276    20415949.607
       247.000         215.000
 03  4 15 18 44 30.0000000  0  7G 6G10G17G21G24G 5G30
  21534808.071   -19553905.73249 -15224473.35547  21534808.163    21534814.008
       238.000         201.000
  20889334.175   -16038346.40149 -12481414.27747  20889333.685    20889339.491
       242.000         209.000
  23027293.219   -11508557.04949  -8954093.86446  23027292.537    23027301.480
       224.000         175.000
  23412363.713   -13897461.25649 -10806619.65045  23412363.478    23412369.471
       221.000         161.000
  23786407.480    16664137.67749  12983308.51145  23786406.613    23786414.412
       216.000         158.000
  21612428.377     2290357.61049   1800542.70447  21612428.147    21612435.007
       236.000         196.000
  20420129.286   -15375723.63949 -11965351.83148  20420129.858    20420135.206
       247.000         215.000
 03  4 15 18 45  0.0000000  0  7G 6G10G17G21G24G 5G30
  21523933.610   -19611051.26449 -15269002.33247  21523933.821    21523939.395
       238.000         201.000
  20894150.160   -16013037.93549 -12461693.39947  20894149.072    20894155.608
       241.000         208.000
  23015231.312   -11571942.13349  -9003484.78746  23015231.107    23015239.041
       224.000         175.000
  23398651.034   -13969520.95249 -10862769.98046  23398650.371    23398656.972
       222.000         163.000
  23801697.237    16744484.29649  13045916.21245  23801696.928    23801704.831
       215.000         154.000
  21627785.986     2371062.47249   1863429.53347  21627785.646    21627793.159
       236.000         196.000
  20424425.787   -15353145.39849 -11947758.42148  20424425.854    20424432.053
       247.000         215.000
 03  4 15 18 45 30.0000000  0  7G 6G10G17G21G24G 5G30
  21513084.486   -19668063.95749 -15313427.79447  21513084.721    21513090.243
       238.000         201.000
  20899082.255   -15987119.21349 -12441497.00847  20899081.647    20899087.824
       241.000         207.000
  23003209.272   -11635118.17949  -9052712.81746  23003209.579    23003217.317
       224.000         176.000
  23384975.119   -14041388.00549 -10918770.19446  23384974.889    23384980.584
       222.000         163.000
  23816981.773    16824805.30249  13108503.95145  23816982.116    23816990.717
       210.000         150.000
  21643211.448     2452123.33649   1926593.77847  21643211.107    21643218.314
       236.000         196.000
  20428832.698   -15329986.46949 -11929712.53148  20428833.163    20428838.790
       247.000         215.000
 03  4 15 18 46  0.0000000  0  7G 6G10G17G21G24G 5G30
  21502261.177   -19724940.80949 -15357747.41447  21502261.434    21502267.032
       238.000         201.000
  20904130.596   -15960589.70749 -12420824.67347  20904130.092    20904136.522
       241.000         207.000
  22991227.437   -11698083.38149  -9101776.55246  22991226.785    22991235.783
       224.000         176.000
  23371336.187   -14113060.52049 -10974618.84246  23371335.771    23371340.944
       222.000         163.000
  23832261.635    16905101.66249  13171072.50845  23832263.198    23832269.246
       208.000         145.000
  21658704.357     2533539.35749   1990034.76047  21658704.351    21658711.713
       236.000         196.000
  20433350.249   -15306246.12549 -11911213.59348  20433350.616    20433356.158
       246.000         214.000
 03  4 15 18 46 30.0000000  0  7G 6G10G17G21G24G 5G30
  21491463.817   -19781681.22849 -15401960.72247  21491464.019    21491469.945
       239.000         202.000
  20909294.834   -15933451.47149 -12399678.00247  20909294.377    20909300.730
       241.000         208.000
  22979285.347   -11760838.76249  -9150676.79646  22979284.642    22979292.993
       224.000         176.000
  23357734.300   -14184538.97549 -11030316.27346  23357734.547    23357740.567
       222.000         165.000
  23847536.650    16985371.49549  13233620.37545  23847536.364    23847544.593
       206.000         138.000
  21674264.358     2615307.27349   2053749.95347  21674264.419    21674271.409
       237.000         196.000
  20437978.191   -15281925.78749 -11892262.71048  20437978.842    20437984.309
       248.000         214.000
 03  4 15 18 47  0.0000000  0  7G 6G10G17G21G24G 5G30
  21480692.721   -19838283.74549 -15446066.56747  21480692.896    21480698.770
       238.000         202.000
  20914574.774   -15905705.59949 -12378057.84947  20914574.471    20914580.623
       242.000         208.000
  22967383.201   -11823384.32749  -9199413.54646  22967383.301    22967390.612
       224.000         176.000
  23344169.371   -14255823.26849 -11085862.40646  23344169.088    23344175.558
       222.000         165.000
  23862806.439    17065613.91149  13296146.90544  23862807.432    23862812.289
       201.000         131.000
  21689890.917     2697424.57949   2117737.39047  21689890.771    21689897.881
       237.000         196.000
  20442716.520   -15257026.26049 -11872860.51148  20442717.211    20442722.763
       247.000         214.000
 03  4 15 18 47 30.0000000  0  7G 6G10G17G21G24G 5G30
  21469948.020   -19894747.16849 -15490064.02747  21469948.154    21469954.260
       238.000         202.000
  20919970.068   -15877353.56349 -12355965.36247  20919969.506    20919975.921
       241.000         208.000
  22955521.131   -11885720.00649  -9247986.74846  22955521.443    22955528.215
       226.000         177.000
  23330641.335   -14326913.44849 -11141257.26846  23330639.664    23330647.381
       223.000         165.000
  23878070.494    17145827.87249  13358651.19744  23878071.215    23878078.356
       196.000         126.000
  21705583.462     2779888.85049   2181995.19647  21705583.317    21705590.812
       236.000         195.000
  20447564.798   -15231548.53449 -11853007.76648  20447565.845    20447571.113
       248.000         215.000
 03  4 15 18 48  0.0000000  0  7G 6G10G17G21G24G 5G30
  21459230.347   -19951069.07949 -15533951.22747  21459230.694    21459236.362
       238.000         202.000
  20925480.537   -15848395.70349 -12333400.80347  20925480.022    20925486.503
       241.000         208.000
  22943699.254   -11947844.75049  -9296395.58946  22943698.798    22943706.240
       224.000         177.000
  23317150.322   -14397808.37249 -11196500.00446  23317149.243    23317156.213
       222.000         165.000
  23893329.268    17226013.35548  13421133.31344  23893329.212    23893336.269
       193.000         121.000
  21721341.693     2862698.63649   2246522.22847  21721342.088    21721348.757
       236.000         195.000
  20452523.302   -15205492.29449 -11832704.23948  20452524.502    20452529.350
       248.000         215.000
 03  4 15 18 48 30.0000000  0  7G 6G10G17G21G24G 5G30
  21448539.866   -20007248.25949 -15577727.20547  21448540.005    21448545.973
       239.000         202.000
  20931106.045   -15818833.52749 -12310365.34647  20931105.747    20931111.915
       242.000         208.000
  22931917.318   -12009758.68649  -9344640.17046  22931918.333    22931924.291
       225.000         177.000
  23303696.528   -14468507.95049 -11251590.51246  23303695.637    23303702.174
       222.000         164.000
  23908582.511    17306169.33948  13483592.47144  23908584.571    23908588.249
       191.000         116.000
  21737165.190     2945851.30849   2311316.45547  21737164.984    21737171.814
       234.000         194.000
  20457591.594   -15178858.81349 -11811950.89948  20457592.194    20457597.604
       247.000         215.000
 03  4 15 18 49  0.0000000  0  7G 6G10G17G21G24G 5G30
  21437876.612   -20063284.27249 -15621391.62747  21437876.657    21437882.725
       239.000         202.000
  20936846.242   -15788669.33049 -12286860.78247  20936845.753    20936851.549
       242.000         209.000
  22920175.515   -12071463.19849  -9392721.56246  22920175.912    22920182.110
       226.000         177.000
  23290279.567   -14539013.20249 -11306529.59846  23290278.426    23290285.848
       221.000         164.000
  23923830.016    17386294.05148  13546027.34844  23923828.658    23923833.346
       190.000         113.000
  21753053.125     3029343.40149   2376375.16947  21753052.725    21753060.539
       235.000         193.000
  20462769.220   -15151650.08649 -11790749.32048  20462769.519    20462774.955
       247.000         214.000
 03  4 15 18 49 30.0000000  0  7G 6G10G17G21G24G 5G30
  21427240.774   -20119175.75949 -15664943.42547  21427240.830    21427246.797
       240.000         203.000
  20942700.584   -15757904.57349 -12262888.25047  20942700.130    20942705.905
       242.000         209.000
  22908473.396   -12132958.27049  -9440639.75746  22908473.244    22908480.225
       226.000         178.000
  23276899.683   -14609323.67149 -11361316.90246  23276898.868    23276905.880
       223.000         164.000
  23939071.469    17466386.53948  13608437.01044                  23939070.047
       183.000         105.000
  21769005.246     3113172.44549   2441696.43947  21769005.161    21769012.358
       236.000         193.000
  20468056.101   -15123866.84749 -11769100.07548  20468056.689    20468062.059
       247.000         214.000
 03  4 15 18 50  0.0000000  0  7G 6G10G17G21G24G 5G30
  21416632.975   -20174920.15249 -15708380.61247  21416633.273    21416638.945
       239.000         203.000
  20948669.259   -15726539.20249 -12238447.71447  20948668.549    20948674.869
       241.000         208.000
  22896811.378   -12194242.83349  -9488393.91446  22896810.928    22896818.440
       225.000         178.000
  23263557.368   -14679438.46349 -11415951.75346  23263558.194    23263563.036
       224.000         165.000
                  17546446.77048  13670821.47944
       167.000          96.000
  21785021.356     3197336.95249   2507279.11147  21785021.483    21785028.601
       236.000         193.000
  20473452.481   -15095509.14649 -11747003.19748  20473453.493    20473458.363
       247.000         214.000
 03  4 15 18 50 30.0000000  0  7G 6G10G17G21G24G 5G30
  21406053.435   -20230516.35849 -15751702.31947  21406053.837    21406058.957
       240.000         203.000
  20954751.683   -15694575.35849 -12213540.83547  20954751.098    20954757.852
       241.000         208.000
  22885189.352   -12255316.98749  -9535984.10846  22885188.664    22885196.106
       226.000         178.000
  23250252.370   -14749357.77749 -11470434.27146  23250252.145    23250258.416
       225.000         167.000
                  17626473.72948  13733180.06344
       180.000          96.000
  21801100.792     3281834.09749   2573120.98347  21801100.462    21801107.913
       235.000         193.000
  20478957.959   -15066578.23649 -11724459.65648  20478958.882    20478963.722
       247.000         214.000
 03  4 15 18 51  0.0000000  0  7G 6G10G17G21G24G 5G30
  21395502.160   -20285963.94949 -15794908.22547  21395502.432    21395507.685
       240.000         203.000
  20960947.522   -15662015.51749 -12188169.54547  20960947.178    20960953.490
       241.000         208.000
  22873607.111   -12316182.12949  -9583411.45546  22873606.931    22873613.460
       227.000         179.000
  23236984.273   -14819082.39149 -11524765.06546  23236984.320    23236989.946
       224.000         167.000
                  17706465.62958   -663692.54943
       167.000          74.000
  21817242.628     3366660.34249   2639219.28147  21817242.607    21817250.020
       235.000         193.000
  20484572.030   -15037076.33049 -11701471.19548  20484572.556    20484577.897
       247.000         214.000
 03  4 15 18 51 30.0000000  0  7G 6G10G17G21G24G 5G30
  21384979.515   -20341260.81449 -15837996.68647  21384979.717    21384985.218
       240.000         203.000
  20967256.838   -15628860.45649 -12162334.44047  20967256.400    20967262.355
       242.000         208.000
  22862064.729   -12376837.60249  -9630675.42246  22862064.472    22862072.782
       226.000         179.000
  23223753.389   -14888611.79849 -11578943.75646  23223753.250    23223759.176
       224.000         167.000
                  17786422.39358   -601441.79543
       170.000          74.000
  21833446.908     3451813.71749   2705572.49347  21833446.989    21833453.856
       236.000         193.000
  20490294.751   -15007003.68949 -11678037.99848  20490295.384    20490300.489
       247.000         214.000
 03  4 15 18 52  0.0000000  0  7G 6G10G17G21G24G 5G30
  21374485.600   -20396406.74049 -15880967.52647  21374485.452    21374491.041
       240.000         204.000
  20973678.871   -15595112.56049 -12136037.39147  20973678.764    20973684.535
       242.000         207.000
  22850561.888   -12437284.81549  -9677777.08946  22850561.046    22850568.848
       227.000         179.000
  23210559.275   -14957946.94449 -11632971.07046  23210558.245    23210564.782
       222.000         166.000
                  17866341.56648   -539235.17243
       166.000          74.000
  21849712.794     3537290.57549   2772177.77647  21849712.919    21849720.173
       236.000         193.000
  20496125.532   -14976362.55549 -11654161.82048  20496126.137    20496131.466
       246.000         213.000
 03  4 15 18 52 30.0000000  0  7G 6G10G17G21G24G 5G30
  21364020.965   -20451398.14849 -15923817.97147  21364020.866    21364026.893
       239.000         203.000
  20980213.881   -15560771.55249 -12109278.17047  20980212.981    20980219.165
       241.000         207.000
  22839099.180   -12497521.91649  -9724715.04246  22839098.631    22839106.548
       227.000         180.000
  23197402.464   -15027085.63749 -11686845.30446  23197401.073    23197408.030
       222.000         166.000
                  17946222.96058   -692300.14043
       167.000          74.000
  21866040.068     3623090.43149   2839034.74347  21866039.886    21866047.229
       235.000         192.000
  20502064.739   -14945152.00349 -11629841.94148  20502065.505    20502070.662
       247.000         214.000
 03  4 15 18 53  0.0000000  0  7G 6G10G17G21G24G 5G30
  21353586.165   -20506233.19749 -15966546.58047  21353585.900    21353591.858
       239.000         203.000
  20986861.309   -15525838.82149 -12082057.87147  20986860.759    20986866.991
       240.000         207.000
  22827676.539   -12557548.49449  -9771488.94346  22827676.119    22827683.377
       226.000         180.000
  23184283.133   -15096027.54949 -11740566.20946  23184282.575    23184288.418
       222.000         166.000
                  18026068.73458   -629988.14943
       169.000          74.000
  21882428.362     3709211.14349   2906141.71847  21882428.040    21882435.246
       234.000         192.000
  20508112.149   -14913372.91449 -11605079.04748  20508112.619    20508117.867
       245.000         213.000
 03  4 15 18 53 30.0000000  0  6G 6G10G17G21G 5G30
  21343180.619   -20560914.52749 -16009155.40847  21343180.793    21343186.452
       241.000         204.000
  20993620.269   -15490319.79149 -12054380.71047  20993619.580    20993626.063
       241.000         207.000
  22816293.113   -12617367.99349  -9818101.48946  22816292.879    22816300.759
       227.000         179.000
  23171200.560   -15164776.70349 -11794136.91246  23171200.382    23171206.767
       224.000         167.000
  21898876.330     3795646.12949   2973493.58247  21898876.213    21898883.520
       233.000         191.000
  20514266.769   -14881030.37249 -11579877.09848  20514267.508    20514272.916
       245.000         213.000
 03  4 15 18 54  0.0000000  0  6G 6G10G17G21G 5G30
  21332803.791   -20615445.33749 -16051646.94847  21332803.807    21332809.686
       240.000         204.000
  21000489.767   -15454220.73649 -12026251.60347  21000489.414    21000495.203
       242.000         207.000
  22804948.154   -12676986.22449  -9864557.19846  22804946.994    22804955.077
       227.000         180.000
  23158153.955   -15233337.71149 -11847560.99846  23158153.114    23158159.577
       224.000         167.000
  21915382.876     3882388.02449   3041084.59547  21915383.206    21915389.275
       235.000         191.000
  20520527.458   -14848130.19749 -11554240.63448  20520528.254    20520533.716
       245.000         214.000
 03  4 15 18 54 30.0000000  0  6G 6G10G17G21G 5G30
  21322458.104   -20669812.07449 -16094010.64547  21322458.089    21322463.924
       240.000         204.000
  21007471.557   -15417531.27449 -11997662.42247  21007471.100    21007477.199
       242.000         208.000
  22793643.743   -12736390.87849  -9910846.48846  22793643.679    22793650.933
       228.000         180.000
  23145145.283   -15301698.39649 -11900829.00746  23145144.280    23145150.198
       223.000         168.000
  21931949.620     3969446.43449   3108922.24847  21931949.767    21931956.707
       235.000         190.000
  20526896.336   -14814661.66749 -11528161.29348  20526897.045    20526902.423
       245.000         214.000
 03  4 15 18 55  0.0000000  0  6G 6G10G17G21G 5G30
  21312143.710   -20724014.63049 -16136246.40047  21312144.000    21312149.820
       240.000         204.000
  21014565.260   -15380254.24349 -11968615.39947  21014564.580    21014571.162
       241.000         208.000
  22782379.912   -12795583.19249  -9956970.31046  22782379.577    22782386.440
       228.000         181.000
  23132174.360   -15369860.12949 -11953941.96846  23132173.370    23132180.702
       223.000         169.000
  21948576.020     4056817.37049   3177003.42047  21948576.227    21948582.904
       235.000         190.000
  20533372.913   -14780627.19449 -11501640.95648  20533373.671    20533379.032
       245.000         213.000
 03  4 15 18 55 30.0000000  0  6G 6G10G17G21G 5G30
  21301860.641   -20778052.84649 -16178354.09947  21301860.579    21301866.526
       240.000         204.000
  21021770.014   -15342392.70249 -11939112.91547  21021769.102    21021775.838
       240.000         207.000
  22771156.014   -12854564.92349 -10002930.05846  22771155.377    22771163.123
       228.000         181.000
  23119241.216   -15437824.17049 -12006900.88846  23119240.173    23119247.834
       224.000         169.000
  21965261.031     4144496.83749   3245325.00847  21965261.026    21965267.865
       235.000         190.000
  20539956.716   -14746029.33849 -11474681.62448  20539957.323    20539962.811
       245.000         213.000
 03  4 15 18 56  0.0000000  0  6G 6G10G17G21G 5G30
  21291609.007   -20831925.67349 -16220332.92247  21291608.966    21291614.717
       240.000         204.000
  21029085.639   -15303948.76149 -11909156.61647  21029085.297    21029091.430
       241.000         207.000
  22759972.182   -12913336.59349 -10048726.12346  22759971.799    22759978.880
       228.000         181.000
  23106345.688   -15505590.73649 -12059705.93246  23106344.930    23106351.649
       224.000         170.000
  21982004.102     4232481.99449   3313884.80147  21982004.045    21982010.852
       234.000         190.000
  20546647.404   -14710869.82049 -11447284.63348  20546648.002    20546653.363
       245.000         213.000
 03  4 15 18 56 30.0000000  0  6G 6G10G17G21G 5G30
  21281388.929   -20885632.34749 -16262182.28547  21281388.741    21281394.677
       240.000         204.000
  21036511.639   -15264925.04649 -11878748.54147  21036511.216    21036517.516
       242.000         207.000
  22748827.935   -12971899.47749 -10094359.50246  22748827.434    22748834.714
       227.000         180.000
  23093487.524   -15573160.63749 -12112357.74346  23093487.042    23093493.599
       224.000         170.000
  21998804.630     4320769.33749   3382680.07347  21998804.565    21998811.409
       232.000         189.000
  20553444.590   -14675150.92049 -11419451.76048  20553445.166    20553450.330
       245.000         213.000
 03  4 15 18 57  0.0000000  0  6G 6G10G17G21G 5G30
  21271200.811   -20939170.89449 -16303900.63247  21271201.074    21271206.666
       240.000         205.000
  21044047.817   -15225322.87449 -11847889.71447  21044047.459    21044053.520
       242.000         208.000
  22737723.637   -13030252.70749 -10139829.52146  22737723.422    22737730.865
       228.000         181.000
  23080666.743   -15640533.49049 -12164855.99246  23080666.237    23080672.412
       223.000         168.000
  22015662.248     4409356.78749   3451709.18247  22015662.374    22015668.982
       231.000         188.000
  20560348.022   -14638873.28149 -11391183.50148  20560348.577    20560353.808
       245.000         213.000
 03  4 15 18 57 30.0000000  0  6G 6G10G17G21G 5G30
  21261045.023   -20992540.20549 -16345487.10547  21261045.275    21261050.561
       241.000         205.000
  21051693.630   -15185144.16549 -11816581.63847  21051692.766    21051699.739
       241.000         207.000
  22726659.252   -13088397.18549 -10185136.87546  22726658.592    22726666.677
       229.000         181.000
  23067883.380   -15707709.76249 -12217201.06246  23067882.427    23067888.223
       224.000         168.000
  22032576.366     4498241.06049   3520969.58046  22032575.915    22032583.182
       231.000         187.000
  20567357.424   -14602038.78049 -11362481.32748  20567357.934    20567363.438
       246.000         213.000
 03  4 15 18 58  0.0000000  0  6G 6G10G17G21G 5G30
  21250923.442   -21045730.21349 -16386933.86047  21250924.011    21250928.669
       242.000         205.000
  21059450.326   -15144382.27049 -11784819.14047  21059449.716    21059455.590
       241.000         207.000
  22715635.965   -13146324.71749 -10230275.18946  22715634.653    22715642.847
       227.000         181.000
  23055139.162   -15774680.43849 -12269385.96546  23055139.779    23055144.227
       223.000         168.000
  22049548.135     4587428.21349   3590465.98746  22049547.796    22049554.359
       232.000         187.000
  20574474.196   -14564640.14649 -11333339.56948  20574474.947    20574480.080
       246.000         214.000
 03  4 15 18 58 30.0000000  0  6G 6G10G17G21G 5G30
  21240833.807   -21098752.07949 -16428249.59147  21240833.867    21240839.556
       241.000         205.000
  21067315.225   -15103051.77949 -11752613.57347  21067314.592    21067320.440
       241.000         206.000
  22704651.484   -13204047.85249 -10275254.22946  22704650.767    22704658.268
       227.000         181.000
  23042431.663   -15841458.88449 -12321421.07046  23042430.947    23042436.971
       225.000         169.000
  22066574.641     4676903.05749   3660186.56146  22066574.358    22066581.848
       231.000         187.000
  20581695.711   -14526691.53249 -11303769.25448  20581696.498    20581701.534
       247.000         214.000
 03  4 15 18 59  0.0000000  0  6G 6G10G17G21G 5G30
  21230776.764   -21151601.88649 -16469431.25647  21230776.669    21230782.522
       241.000         206.000
  21075288.478   -15061152.13949 -11719964.50647  21075287.962    21075293.892
       242.000         206.000
  22693706.440   -13261564.35749 -10320072.24946  22693706.304    22693713.532
       228.000         181.000
  23029761.248   -15908042.46549 -12373304.34146  23029761.418    23029767.488
       226.000         170.000
  22083655.937     4766665.29049   3730131.07546  22083655.993    22083663.399
       231.000         187.000
  20589022.099   -14488191.99849 -11273769.64848  20589022.706    20589027.791
       246.000         214.000
 03  4 15 18 59 30.0000000  0  6G 6G10G17G21G 5G30
  21220752.796   -21204278.59149 -16510478.03547  21220752.809    21220758.585
       240.000         206.000
  21083369.749   -15018685.52349 -11686873.64047  21083369.197    21083375.329
       242.000         207.000
  22682800.634   -13318875.14849 -10364729.96046  22682800.394    22682807.512
       229.000         182.000
  23017127.910   -15974431.38549 -12425035.91746  23017128.044    23017132.726
       226.000         171.000
  22100791.337     4856711.95349   3800297.23046  22100790.991    22100798.145
       231.000         186.000
  20596452.840   -14449143.37349 -11243342.18448  20596453.182    20596458.744
       245.000         214.000
 03  4 15 19  0  0.0000000  0  6G 6G10G17G21G 5G30
  21210761.930   -21256780.69049 -16551388.76147  21210762.105    21210767.463
       241.000         206.000
  21091558.474   -14975653.95349 -11653342.55347  21091557.788    21091563.927
       242.000         207.000
  22671934.024   -13375980.22849 -10409227.38546  22671933.367    22671941.018
       228.000         183.000
  23004531.613   -16040626.09549 -12476616.15746  23004531.274    23004536.940
       225.000         171.000
  22117980.301     4947040.34449   3870682.90546  22117980.041    22117987.573
       230.000         186.000
  20603987.713   -14409547.22849 -11212488.07848  20603988.166    20603993.543
       246.000         213.000
 03  4 15 19  0 30.0000000  0  6G 6G10G17G21G 5G30
  21200805.072   -21309104.69949 -16592160.71247  21200805.098    21200810.538
       242.000         206.000
  21099854.674   -14932057.35649 -11619371.19547  21099854.275    21099859.790
       241.000         207.000
  22661106.663   -13432878.12349 -10453563.37446  22661105.433    22661112.813
       229.000         183.000
  22991972.588   -16106624.51549 -12528043.44546  22991971.020    22991978.033
       224.000         171.000
  22135222.768     5037649.52349   3941287.38046  22135222.424    22135230.057
       230.000         186.000
  20611626.938   -14369403.03849 -11181206.92948  20611627.627    20611632.986
       246.000         213.000
 03  4 15 19  1  0.0000000  0  6G 6G10G17G21G 5G30
  21190882.548   -21361248.40649 -16632792.16747  21190882.507    21190888.075
       242.000         207.000
  21108258.142   -14887897.04249 -11584960.56947  21108257.547    21108263.558
       241.000         206.000
  22650318.779   -13489568.02149 -10497737.29646  22650318.421    22650325.469
       227.000         183.000
  22979450.823   -16172425.90449 -12579317.18846  22979450.398    22979456.219
       225.000         171.000
  22152518.259     5128537.57149   4012109.15246  22152518.441    22152525.827
       231.000         186.000
  20619370.352   -14328711.64349 -11149499.38848  20619370.727    20619375.908
       246.000         213.000
 03  4 15 19  1 30.0000000  0  6G 6G10G17G21G 5G30
  21180994.372   -21413211.08049 -16673282.56347  21180994.093    21180999.794
       241.000         207.000
  21116768.406   -14843175.49649 -11550112.62047  21116767.636    21116773.998
       241.000         206.000
  22639570.365   -13546050.94449 -10541749.92846  22639569.902    22639577.049
       230.000         183.000
  22966966.659   -16238031.04949 -12630438.04846  22966966.980    22966972.039
       226.000         172.000
  22169866.179     5219700.95949   4083145.47946  22169866.441    22169873.758
       231.000         186.000
  20627217.378   -14287475.43649 -11117367.31947  20627217.824    20627222.968
       245.000         212.000
 03  4 15 19  2  0.0000000  0  6G 6G10G17G21G 5G30
  21171140.968   -21464990.85949 -16713630.44547  21171140.934    21171146.356
       242.000         207.000
  21125385.120   -14797894.48949 -11514828.73347  21125384.391    21125390.332
       241.000         206.000
  22628861.544   -13602326.88649 -10585601.28046  22628861.135    22628868.774
       230.000         183.000
  22954519.758   -16303439.76649 -12681405.83046  22954519.207    22954524.872
       225.000         172.000
  22187265.950     5311137.16849   4154394.38846  22187265.526    22187272.726
       230.000         185.000
  20635167.814   -14245695.64349 -11084811.67247  20635168.320    20635173.834
       245.000         212.000
 03  4 15 19  2 30.0000000  0  6G 6G10G17G21G 5G30
  21161322.771   -21516585.99549 -16753834.44847  21161322.641    21161328.240
       242.000         207.000
  21134107.933   -14752055.85549 -11479110.33647  21134107.182    21134113.375
       240.000         205.000
  22618192.082   -13658395.90349 -10629291.40246  22618191.882    22618198.643
       230.000         183.000
  22942110.114   -16368652.03449 -12732220.54246  22942109.808    22942114.761
       226.000         172.000
  22204717.181     5402843.83149   4225854.04146  22204716.804    22204724.119
       231.000         184.000
  20643221.525   -14203373.53849 -11051833.45347  20643221.915    20643227.531
       245.000         212.000
 03  4 15 19  3  0.0000000  0  6G 6G10G17G21G 5G30
  21151539.868   -21567995.34549 -16793893.67747  21151539.694    21151545.387
       242.000         207.000
  21142936.334   -14705662.38749 -11442959.59347  21142935.800    21142941.484
       240.000         205.000
  22607561.679   -13714258.92649 -10672820.99246  22607561.301    22607568.293
       230.000         184.000
  22929737.972   -16433668.41349 -12782882.59546  22929736.804    22929743.463
       226.000         172.000
  22222219.443     5494817.75749   4297521.94846  22222219.617    22222226.368
       231.000         184.000
  20651377.907   -14160511.35549 -11018434.38947  20651378.218    20651383.733
       245.000         212.000
 03  4 15 19  3 30.0000000  0  6G 6G10G17G21G 5G30
  21141792.777   -21619216.63149 -16833806.36747  21141792.691    21141798.405
       242.000         208.000
  21151870.191   -14658714.93749 -11406377.17647  21151869.825    21151875.193
       241.000         205.000
  22596970.583   -13769914.89649 -10716189.24946  22596970.323    22596977.280
       231.000         184.000
  22917403.157   -16498488.19549 -12833391.47046  22917403.222    22917408.669
       226.000         173.000
  22239772.215     5587057.21949   4369396.77346  22239771.686    22239779.476
       230.000         184.000
  20659636.963   -14117109.95149 -10984615.15547  20659637.291    20659642.951
       244.000         212.000
 03  4 15 19  4  0.0000000  0  6G 6G10G17G21G 5G30
  21132081.603   -21670249.28049 -16873572.07047  21132081.514    21132087.194
       242.000         208.000
  21160908.916   -14611216.75649 -11369365.63147  21160908.448    21160914.026
       240.000         205.000
  22586418.636   -13825365.69349 -10759397.64146  22586418.498    22586425.312
       231.000         185.000
  22905105.513   -16563112.34049 -12883747.89946  22905105.825    22905110.162
       226.000         173.000
  22257374.617     5679558.19249   4441475.35146  22257374.600    22257381.533
       229.000         183.000
  20667997.989   -14073172.05049 -10950377.87347  20667998.502    20668003.612
       245.000         211.000
 03  4 15 19  4 30.0000000  0  6G 6G10G17G21G 5G30
  21122406.871   -21721090.31249 -16913188.46347  21122406.792    21122412.476
       242.000         208.000
  21170052.139   -14563168.49849 -11331925.44247  21170050.769    21170057.187
       239.000         204.000
  22575905.990   -13880610.29949 -10802445.35046  22575905.436    22575912.486
       231.000         185.000
  22892845.393   -16627539.86149 -12933951.11946  22892844.973    22892849.986
       226.000         172.000
  22275026.584     5772319.39249   4513756.71646  22275026.470    22275033.255
       230.000         183.000
  20676461.235   -14028697.90749 -10915722.73247  20676461.613    20676466.890
       245.000         211.000
 03  4 15 19  5  0.0000000  0  6G 6G10G17G21G 5G30
  21112769.030   -21771737.68949 -16952653.95247  21112768.854    21112774.585
       242.000         208.000
  21179299.671   -14514571.82849 -11294057.92047  21179298.797    21179304.873
       239.000         204.000
  22565432.678   -13935648.14649 -10845331.94446  22565432.276    22565439.065
       231.000         185.000
  22880622.889   -16691770.01849 -12984000.53546  22880622.764    22880627.541
       227.000         173.000
  22292727.542     5865338.57849   4586239.11646  22292727.236    22292735.044
       229.000         183.000
  20685026.271   -13983688.74349 -10880650.69947  20685026.534    20685031.949
       245.000         211.000
 03  4 15 19  5 30.0000000  0  6G 6G10G17G21G 5G30
  21103167.981   -21822191.29449 -16991968.44847  21103168.001    21103173.525
       241.000         208.000
  21188650.873   -14465430.47049 -11255765.96347  21188650.313    21188656.322
       239.000         204.000
  22554998.389   -13990481.01449 -10888058.81546  22554998.090    22555004.477
       231.000         185.000
  22868437.544   -16755804.51049 -13033897.50246  22868436.891    22868441.762
       227.000         173.000
  22310476.792     5958611.53749   4658919.25246  22310476.868    22310484.064
       229.000         183.000
  20693692.439   -13938147.77149 -10845164.26847  20693692.905    20693698.159
       245.000         211.000
 03  4 15 19  6  0.0000000  0  6G 6G10G17G21G 5G30
  21093604.414   -21872448.40149 -17031129.82647  21093604.442    21093609.688
       242.000         208.000
  21198105.753   -14415745.04049 -11217050.05647  21198104.987    21198111.422
       240.000         205.000
  22544603.295   -14045107.99549 -10930625.25846  22544602.636    22544609.694
       231.000         185.000
  22856289.682   -16819642.49449 -13083641.32446  22856289.750    22856293.256
       227.000         173.000
  22328274.124     6052136.77349   4731795.96946  22328274.287    22328280.959
       229.000         182.000
  20702459.736   -13892075.55649 -10809263.87947  20702460.305    20702465.386
       246.000         211.000
 03  4 15 19  6 30.0000000  0  6G 6G10G17G21G 5G30
  21084078.461   -21922508.16949 -17070137.43547  21084078.596    21084083.437
       243.000         208.000
  21207663.528   -14365518.39149 -11177912.42247  21207662.671    21207669.532
       240.000         205.000
  22534247.169   -14099530.42149 -10973032.31846  22534246.396    22534252.983
       231.000         185.000
  22844179.002   -16883284.64749 -13133232.56046  22844178.135    22844183.700
       227.000         173.000
  22346118.830     6145910.82349   4804866.56746  22346118.774    22346125.414
       230.000         181.000
  20711327.676   -13845474.61049 -10772951.49847  20711328.226    20711333.424
       245.000         211.000
 03  4 15 19  7  0.0000000  0  6G 6G10G17G21G 5G30
  21074590.472   -21972368.20249 -17108989.40947  21074590.525    21074595.578
       243.000         208.000
  21217324.151   -14314752.02849 -11138354.24547  21217323.573    21217329.884
       240.000         205.000
  22523930.062   -14153747.43449 -11015279.30746  22523929.008    22523936.344
       232.000         185.000
  22832105.560   -16946730.18549 -13182670.60246  22832104.653    22832109.995
       227.000         173.000
  22364010.551     6239931.72349   4878129.51546  22364010.328    22364017.464
       228.000         181.000
  20720296.004   -13798345.97849 -10736227.93247  20720296.187    20720301.950
       244.000         211.000
 03  4 15 19  7 30.0000000  0  6G 6G10G17G21G 5G30
  21065140.470   -22022028.31449 -17147685.59747  21065140.467    21065145.661
       242.000         208.000
  21227086.759   -14263449.61549 -11098378.36247  21227086.104    21227092.483
       239.000         205.000
  22513651.618   -14207761.05849 -11057367.80046  22513650.444    22513657.084
       231.000         185.000
  22820069.360   -17009980.60849 -13231956.60246  22820068.465    22820073.440
       226.000         173.000
  22381948.392     6334195.48149   4951581.70146  22381947.990    22381955.451
       228.000         180.000
  20729363.960   -13750692.73149 -10699095.57647  20729364.190    20729369.621
       244.000         210.000
 03  4 15 19  8  0.0000000  0  6G 6G10G17G21G 5G30
  21055729.006   -22071485.69049 -17186223.80947  21055728.692    21055734.080
       242.000         208.000
  21236951.072   -14211612.14849 -11057985.54747  21236950.325    21236956.593
       239.000         204.000
  22503412.021   -14261570.32449 -11099297.07046  22503411.063    22503417.964
       231.000         185.000
  22808070.525   -17073035.10849 -13281089.94246  22808069.962    22808075.242
       228.000         174.000
  22399932.088     6428700.48349   5025221.86046  22399931.610    22399939.438
       228.000         180.000
  20738531.844   -13702515.67549 -10661555.04547  20738532.413    20738537.371
       245.000         210.000
 03  4 15 19  8 30.0000000  0  6G 6G10G17G21G 5G30
  21046356.366   -22120739.10849 -17224603.09547  21046356.551    21046361.698
       242.000         208.000
  21246916.748   -14159242.30649 -11017177.89647  21246915.936    21246922.151
       239.000         204.000
  22493211.094   -14315175.66749 -11141067.43646  22493209.755    22493217.033
       230.000         185.000
  22796108.909   -17135894.10249 -13330070.93146  22796107.913    22796114.018
       227.000         175.000
  22417961.305     6523443.61849   5099047.59246  22417961.278    22417967.860
       229.000         180.000
  20747798.953   -13653816.89449 -10623607.98447  20747799.537    20747805.135
       245.000         211.000
 03  4 15 19  9  0.0000000  0  6G 6G10G17G21G 5G30
  21037023.170   -22169785.77249 -17262821.27047  21037023.142    21037028.570
       242.000         209.000
  21256983.537   -14106341.02849 -10975956.12747  21256982.427    21256988.901
       239.000         203.000
  22483048.999   -14368576.56249 -11182678.48146  22483048.140    22483055.040
       231.000         185.000
  22784184.478   -17198556.45549 -13378898.69846  22784183.338    22784189.499
       228.000         175.000
  22436035.504     6618423.23949   5173057.58446  22436035.946    22436042.138
       230.000         179.000
  20757165.270   -13604597.17949 -10585254.99747  20757166.133    20757171.128
       246.000         211.000
 03  4 15 19  9 30.0000000  0  6G 6G10G17G21G 5G30
  21027729.550   -22218624.32549 -17300877.28247  21027729.336    21027735.001
       243.000         209.000
  21267150.988   -14052910.85549 -10934322.24747  21267150.578    21267156.408
       240.000         203.000
  22472925.887   -14421773.41849 -11224130.54346  22472925.108    22472932.508
       231.000         186.000
  22772297.493   -17261022.62349 -13427573.57946  22772296.777    22772302.188
       229.000         176.000
  22454154.256     6713636.18549   5247249.39546  22454154.053    22454160.712
       230.000         180.000
  20766630.355   -13554858.63049 -10546497.73147  20766630.791    20766635.682
       245.000         211.000
 03  4 15 19 10  0.0000000  0  6G 6G10G17G21G 5G30
  21018475.691   -22267253.49149 -17338770.14847  21018475.612    21018481.240
       243.000         209.000
  21277418.724   -13998954.44749 -10892278.31647  21277418.260    21277424.291
       240.000         204.000
  22462841.536   -14474767.18549 -11265424.35746  22462841.169    22462847.685
       232.000         187.000
  22760447.923   -17323292.83349 -13476095.78446  22760447.150    22760452.638
       228.000         176.000
  22472316.649     6809079.39549   5321620.63546  22472316.349    22472323.722
       229.000         181.000
  20776193.722   -13504603.44749 -10507337.89347  20776194.410    20776199.258
       245.000         210.000
 03  4 15 19 10 30.0000000  0  6G 6G10G17G21G 5G30
  21009261.947   -22315672.22249 -17376499.03047  21009261.641    21009267.074
       243.000         209.000
  21287785.954   -13944474.66749 -10849826.55947  21287784.813    21287791.221
       239.000         204.000
  22452795.658   -14527558.20649 -11306560.18446  22452794.614    22452801.758
       230.000         186.000
  22748635.491   -17385367.84049 -13524465.87846  22748634.368    22748639.706
       229.000         176.000
  22490522.090     6904749.39749   5396168.58546  22490521.516    22490528.947
       228.000         180.000
  20785854.834   -13453834.31649 -10467777.57547  20785855.012    20785860.548
       245.000         210.000
 03  4 15 19 11  0.0000000  0  6G 6G10G17G21G 5G30
  21000088.621   -22363878.37149 -17414062.26347  21000088.501    21000093.609
       243.000         209.000
  21298252.326   -13889473.24449 -10806968.32447  21298251.287    21298257.496
       237.000         203.000
  22442788.224   -14580146.42049 -11347537.97446  22442787.362    22442794.978
       231.000         187.000
  22736860.075   -17447247.58649 -13572683.81746  22736858.880    22736864.800
       228.000         176.000
  22508770.275     7000644.07749   5470891.60546  22508770.123    22508777.451
       228.000         179.000
  20795613.365   -13402552.54349 -10427817.79847  20795613.466    20795618.977
       244.000         210.000
 03  4 15 19 11 30.0000000  0  6G 6G10G17G21G 5G30
  20990956.134   -22411870.04249 -17451458.37047  20990956.014    20990961.281
       243.000         209.000
  21308817.515   -13833952.12249 -10763705.13747  21308816.483    21308823.132
       237.000         202.000
  22432819.704   -14632531.61449 -11388357.57646  22432819.023    22432826.308
       232.000         187.000
  22725121.644   -17508931.74749 -13620749.35946  22725120.956    22725126.461
       227.000         177.000
  22527060.888     7096761.16949   5545787.93946  22527059.801    22527067.742
       227.000         178.000
  20805469.220   -13350759.76849 -10387459.83947  20805469.743    20805474.727
       244.000         209.000
 03  4 15 19 12  0.0000000  0  6G 6G10G17G21G 5G30
  20981864.871   -22459644.70849 -17488685.38247  20981864.657    20981870.163
       242.000         209.000
  21319481.376   -13777912.90349 -10720038.23847  21319480.671    21319487.011
       239.000         202.000
  22422889.648   -14684714.14649 -11429019.25847  22422888.817    22422896.092
       233.000         188.000
  22713420.752   -17570419.58349 -13668661.90846  22713419.787    22713425.782
       228.000         177.000
  22545393.143     7193098.64649   5620856.00046  22545392.979    22545400.321
       227.000         177.000
  20815422.123   -13298457.24749 -10346704.66947  20815422.673    20815427.925
       244.000         209.000
 03  4 15 19 12 30.0000000  0  6G 6G10G17G21G 5G30
  20972814.896   -22507202.19549 -17525743.17147  20972814.613    20972820.153
       243.000         209.000
  21330243.176   -13721359.62149 -10675970.76347  21330242.950    21330248.286
       241.000         202.000
  22412997.971   -14736695.37549 -11469524.09047  22412997.555    22413004.972
       232.000         188.000
  22701757.074   -17631712.96049 -13716422.95446  22701756.181    22701762.522
       228.000         177.000
  22563766.663     7289652.28749   5696092.50546  22563766.480    22563774.474
       228.000         177.000
  20825471.313   -13245648.55549 -10305555.08547  20825471.716    20825477.227
       245.000         209.000
 03  4 15 19 13  0.0000000  0  6G 6G10G17G21G 5G30
  20963806.540   -22554541.75249 -17562631.14047  20963806.359    20963811.832
       243.000         209.000
  21341102.137   -13664295.58349 -10631505.28447  21341101.463    21341107.023
       240.000         202.000
  22403144.215   -14788476.84549 -11509873.25147  22403143.616    22403151.091
       231.000         188.000
  22690130.080   -17692812.97649 -13764033.30546  22690128.671    22690134.499
       228.000         176.000
  22582180.824     7386418.38149   5771494.55746  22582179.822    22582188.201
       227.000         177.000
  20835616.339   -13192336.50049 -10264013.27047  20835616.753    20835622.084
       245.000         209.000
 03  4 15 19 13 30.0000000  0  6G 6G10G17G21G 5G30
  20954840.423   -22601659.03049 -17599345.90747  20954840.406    20954845.752
       243.000         209.000
  21352058.336   -13606720.40349 -10586641.52547  21352057.318    21352063.238
       239.000         202.000
  22393328.953   -14840056.36849 -11550065.05347  22393328.621    22393335.256
       232.000         188.000
  22678540.281   -17753717.22749 -13811491.12846  22678539.384    22678545.403
       227.000         176.000
  22600635.224     7483396.72249   5847061.99446  22600634.896    22600642.593
       226.000         177.000
  20845857.255   -13138520.54449 -10222078.81147  20845857.723    20845862.739
       244.000         209.000
 03  4 15 19 14  0.0000000  0  6G 6G10G17G21G 5G30
  20945916.972   -22648552.32449 -17635886.13947  20945916.544    20945922.308
       243.000         210.000
  21363111.438   -13548636.01549 -10541380.98447  21363110.306    21363116.796
       238.000         201.000
  22383552.189   -14891433.94049 -11590099.49647  22383551.430    22383558.911
       233.000         188.000
  22666987.710   -17814425.51249 -13858796.24046  22666987.241    22666991.966
       228.000         176.000
  22619129.441     7580584.72449   5922792.79046  22619129.183    22619137.033
       227.000         177.000
  20856193.671   -13084202.57449 -10179753.17147  20856194.207    20856199.199
       245.000         209.000
 03  4 15 19 14 30.0000000  0  6G 6G10G17G21G 5G30
  20937036.018   -22695222.11549 -17672252.20947  20937035.852    20937041.507
       243.000         210.000
  21374260.428   -13490047.19049 -10495727.37047  21374259.528    21374265.869
       237.000         200.000
  22373813.384   -14942611.83149 -11629978.34847  22373813.092    22373819.163
       232.000         188.000
  22655472.231   -17874940.14749 -13905950.47346  22655471.493    22655477.278
       229.000         176.000
  22637662.758     7677977.26649   5998682.98046  22637661.783    22637669.886
       226.000         177.000
  20866624.842   -13029386.80849 -10137039.63847  20866625.426    20866630.428
       245.000         209.000
 03  4 15 19 15  0.0000000  0  6G 6G10G17G21G 5G30
  20928198.038   -22741665.95449 -17708442.22447  20928198.090    20928203.779
       243.000         211.000
  21385505.260   -13430955.52749 -10449681.94447  21385504.743    21385510.713
       239.000         201.000
  22364112.616   -14993589.91749 -11669701.50247  22364112.077    22364118.264
       232.000         188.000
  22643993.776   -17935260.62549 -13952953.39146  22643993.070    22643999.084
       230.000         177.000
  22656234.502     7775572.42649   6074731.02946  22656234.285    22656241.720
       225.000         175.000
  20877150.473   -12974074.56349 -10093939.24347  20877150.989    20877155.881
       245.000         209.000
 03  4 15 19 15 30.0000000  0  6G 6G10G17G21G 5G30
  20919403.405   -22787882.39249 -17744455.02547  20919403.318    20919408.702
       244.000         211.000
  21396845.190   -13371363.81649 -10403246.85947  21396844.603    21396850.751
       239.000         201.000
  22354449.715   -15044368.47649 -11709269.18347  22354449.257    22354456.166
       233.000         188.000
  22632552.157   -17995387.25849 -13999805.27346  22632551.041    22632557.208
       229.000         178.000
  22674844.270     7873367.31249   6150934.74146  22674843.632    22674851.382
       224.000         174.000
  20887770.081   -12918268.18649 -10050453.79647  20887770.447    20887775.266
       245.000         208.000
 03  4 15 19 16  0.0000000  0  6G 6G10G17G21G 5G30
  20910652.455   -22833868.97549 -17780288.72247  20910652.287    20910657.772
       243.000         211.000
  21408280.038   -13311273.66349 -10356423.38347  21408279.257    21408285.365
       238.000         201.000
  22344824.918   -15094947.38849 -11748681.29547  22344824.420    22344830.723
       234.000         189.000
  22621147.228   -18055319.80649 -14046505.92346  22621146.036    22621151.093
       229.000         178.000
  22693491.634     7971359.79349   6227292.39946  22693491.113    22693498.993
       224.000         174.000
  20898483.539   -12861969.02749 -10006584.37147  20898484.130    20898489.403
       245.000         208.000
 03  4 15 19 16 30.0000000  0  6G 6G10G17G21G 5G30
  20901945.618   -22879623.63549 -17815941.70547  20901945.294    20901950.931
       244.000         211.000
  21419809.311   -13250687.14549 -10309213.13547  21419808.585    21419814.768
       239.000         200.000
  22335238.203   -15145326.43149 -11787937.65647  22335237.657    22335244.294
       234.000         189.000
  22609779.404   -18115057.73549 -14093054.91646  22609778.956    22609784.114
       231.000         179.000
  22712176.138     8069547.50849   6303802.19646  22712175.348    22712183.984
       225.000         174.000
  20909290.358   -12805178.89049  -9962332.36247  20909290.389    20909296.427
       244.000         209.000
 03  4 15 19 17  0.0000000  0  6G 6G10G17G21G 5G30
  20893283.063   -22925145.80349 -17851413.52247  20893282.851    20893288.428
       243.000         211.000
  21431432.342   -13189607.86149 -10261618.90947  21431431.599    21431438.006
       237.000         200.000
  22325688.970   -15195507.55749 -11827039.79647  22325688.547    22325694.953
       233.000         189.000
  22598448.623   -18174602.46249 -14139453.36246  22598448.390    22598453.467
       231.000         180.000
  22730897.138     8167926.65349   6380461.16846  22730896.997    22730904.865
       225.000         173.000
  20920189.866   -12747901.08249  -9917700.35947  20920190.004    20920195.918
       244.000         208.000
 03  4 15 19 17 30.0000000  0  6G 6G10G17G21G 5G30
  20884665.075   -22970433.52649 -17886702.65647  20884664.777    20884670.328
       244.000         211.000
  21443148.762   -13128038.05549 -10213642.44747  21443148.177    21443154.112
       239.000         200.000
  22316177.466   -15245490.41849 -11865987.43547  22316176.433    22316183.391
       232.000         189.000
  22587154.383   -18233953.95749 -14185701.23946  22587153.889    22587158.946
       231.000         180.000
  22749654.080     8266494.66749   6457267.29446  22749653.662    22749662.491
       224.000         173.000
  20931181.940   -12690137.34249  -9872689.70147  20931182.134    20931187.850
       244.000         208.000
 03  4 15 19 18  0.0000000  0  6G 6G10G17G21G 5G30
  20876092.038   -23015484.66549 -17921807.43947  20876091.672    20876097.509
       243.000         211.000
  21454958.098   -13065979.66749 -10165285.27647  21454957.392    21454963.332
       238.000         200.000
  22306703.465   -15295275.53549 -11904781.01147  22306702.721    22306709.564
       232.000         189.000
  22575897.015   -18293111.82149 -14231798.22746  22575896.022    22575901.846
       230.000         180.000
  22768446.596     8365249.31449   6534218.84146  22768446.183    22768454.611
       223.000         172.000
  20942266.072   -12631889.59449  -9827301.88947  20942266.601    20942272.079
       244.000         208.000
 03  4 15 19 18 30.0000000  0  6G 6G10G17G21G 5G30
  20867564.575   -23060296.98749 -17956726.13047  20867564.586    20867569.843
       244.000         211.000
  21466859.967   -13003434.76149 -10116549.01147  21466859.572    21466865.437
       238.000         199.000
  22297267.394   -15344862.22049 -11943419.94847  22297266.574    22297273.076
       234.000         189.000
  22564676.447   -18352075.85549 -14277744.18446  22564675.540    22564681.175
       230.000         180.000
  22787274.130     8464188.26349   6611314.02046  22787274.198    22787281.967
       224.000         172.000
  20953442.103   -12573159.45349  -9781538.19547  20953442.624    20953447.970
       244.000         207.000
 03  4 15 19 19  0.0000000  0  7G 6G10G17G21G26G 5G30
  20859083.017   -23104868.27549 -17991457.00147  20859082.917    20859088.182
       244.000         211.000
  21478854.185   -12940405.25449 -10067435.13347  21478853.879    21478859.536
       238.000         199.000
  22287869.206   -15394250.40649 -11981904.22347  22287868.650    22287875.717
       233.000         189.000
  22553492.856   -18410845.70649 -14323538.83346  22553492.052    22553497.339
       231.000         180.000
                  -1674573.80749  -1295011.73943
       208.000          74.000
  22806136.360     8563309.20449   6688550.97346  22806136.450    22806144.046
       224.000         173.000
  20964709.678   -12513948.60049  -9735399.92547  20964710.293    20964715.538
       244.000         207.000
 03  4 15 19 19 30.0000000  0  7G 6G10G17G21G26G 5G30
  20850647.034   -23149199.25249 -18026000.62347  20850646.997    20850652.219
       243.000         211.000
  21490939.678   -12876896.31549 -10017947.67147  21490939.262    21490944.806
       238.000         199.000
  22278508.312   -15443442.93149 -12020236.03047  22278507.900    22278514.832
       234.000         190.000
  22542345.715   -18469424.13749 -14369184.32146  22542345.139    22542350.888
       230.000         181.000
                  -1762911.46249  -1363846.07845                  23959487.593
       210.000         135.000
  22825032.173     8662606.80849   6765925.59746  22825032.489    22825040.241
       225.000         174.000
  20976067.711   -12454261.95349  -9688890.90647  20976068.050    20976073.592
       243.000         207.000
 03  4 15 19 20  0.0000000  0  7G 6G10G17G21G26G 5G30
  20842256.616   -23193291.50349 -18060358.21947  20842256.556    20842261.813
       244.000         211.000
  21503115.238   -12812913.66149  -9968091.07347  21503114.524    21503120.237
       239.000         199.000
  22269183.769   -15492443.66349 -12058418.36947  22269182.766    22269189.716
       233.000         190.000
  22531234.303   -18527814.47249 -14414683.23946  22531233.242    22531238.888
       230.000         181.000
  23942674.513    -1851210.78949  -1432650.47345  23942674.901    23942685.741
       213.000         144.000
  22843960.461     8762075.22449   6843433.34246  22843960.875    22843968.552
       223.000         173.000
  20987515.233   -12394104.85549  -9642015.29647  20987515.535    20987520.877
       243.000         206.000
 03  4 15 19 20 30.0000000  0  7G 6G10G17G21G26G 5G30
  20833912.785   -23237138.65949 -18094524.83047  20833912.582    20833918.056
       244.000         211.000
  21515381.250   -12748455.32649  -9917863.80647  21515380.322    21515386.288
       239.000         199.000
  22259896.381   -15541248.28049 -12096447.89847  22259895.555    22259902.199
       232.000         190.000
  22520159.440   -18586012.40849 -14460032.23646  22520159.178    22520164.093
       231.000         181.000
  23925880.495    -1939463.74849  -1501418.72145  23925880.378    23925890.789
       212.000         148.000
  22862921.655     8861716.11349   6921075.46246  22862922.208    22862930.153
       225.000         172.000
  20999052.770   -12333475.04349  -9594771.34147  20999053.318    20999058.472
       243.000         206.000
 03  4 15 19 21  0.0000000  0  7G 6G10G17G21G26G 5G30
  20825616.028   -23280738.04149 -18128498.36947  20825615.766    20825621.167
       244.000         211.000
  21527737.664   -12683522.56249  -9867266.86047  21527736.688    21527743.099
       238.000         199.000
  22250646.487   -15589856.07649 -12134324.07247  22250646.328    22250653.016
       233.000         190.000
  22509121.642   -18644017.02349 -14505230.59546  22509121.659    22509126.103
       231.000         182.000
  23909096.042    -2027666.05949  -1570147.50745  23909095.987    23909106.790
       213.000         151.000
  22881915.472     8961527.85249   6998850.71746  22881915.530    22881923.603
       225.000         173.000
  21010680.025   -12272373.58149  -9547159.86147  21010680.439    21010685.861
       243.000         206.000
 03  4 15 19 21 30.0000000  0  7G 6G10G17G21G26G 5G30
  20817366.999   -23324086.93849 -18162276.72647  20817366.617    20817372.268
       243.000         211.000
  21540183.842   -12618117.05849  -9816301.55347  21540182.722    21540189.138
       237.000         199.000
  22241434.389   -15638266.60949 -12172046.53347  22241434.006    22241440.168
       234.000         190.000
  22498120.675   -18701827.58649 -14550277.73846  22498120.086    22498124.998
       231.000         181.000
  23892321.999    -2115813.38349  -1638833.43245  23892321.550    23892331.708
       215.000         153.000
  22900941.321     9061508.71049   7076757.74746  22900941.288    22900948.657
       224.000         172.000
  21022396.770   -12210801.89949  -9499181.97947  21022397.197    21022402.992
       243.000         206.000
 03  4 15 19 22  0.0000000  0  7G 6G10G17G21G26G 5G30
  20809166.358   -23367181.44649 -18195856.86147  20809166.394    20809171.445
       244.000         211.000
  21552719.797   -12552239.61549  -9764968.51047  21552718.543    21552724.911
       237.000         199.000
  22232260.085   -15686477.95849 -12209613.78147  22232259.007    22232266.110
       234.000         190.000
  22487156.952   -18759442.35049 -14595172.32046  22487155.566    22487161.199
       232.000         180.000
  23875559.433    -2203900.53049  -1707472.47045  23875559.434    23875569.111
       216.000         154.000
  22919999.133     9161657.98749   7154796.01046  22919998.525    22920007.527
       223.000         172.000
  21034203.006   -12148760.36649  -9450837.97847  21034203.504    21034209.159
       244.000         207.000
 03  4 15 19 22 30.0000000  0  8G 6G10G17G21G29G26G 5G30
  20801013.803   -23410023.76549 -18229240.49147  20801013.778    20801018.825
       245.000         211.000
  21565344.403   -12485896.55649  -9713272.65147  21565343.343    21565349.635
       236.000         199.000
  22223122.734   -15734494.91749 -12247029.56147  22223122.113    22223128.886
       234.000         191.000
  22476229.578   -18816865.46349 -14639917.56046  22476229.330    22476234.037
       232.000         180.000
                  -1696237.26749  -1312986.54643
       207.000          74.000
  23858808.327    -2291927.83149  -1776064.87245  23858807.571    23858818.063
       216.000         156.000
  22939087.805     9261968.87549   7232960.19646  22939088.230    22939095.935
       223.000         171.000
  21046097.437   -12086254.96849  -9402132.52547  21046097.470    21046103.361
       243.000         206.000
 03  4 15 19 23  0.0000000  0  8G 6G10G17G21G29G26G 5G30
  20792909.567   -23452612.31149 -18262426.37047  20792909.368    20792914.561
       244.000         211.000
  21578057.130   -12419090.35549  -9661215.88347  21578056.522    21578062.825
       237.000         199.000
  22214022.347   -15782317.52549 -12284293.90447  22214022.063    22214028.037
       234.000         191.000
  22465338.850   -18874097.07849 -14684513.57546  22465338.170    22465342.697
       232.000         181.000
  23707540.157    -1756130.37549  -1359656.35845  23707538.862    23707547.876
       210.000         140.000
  23842069.067    -2379892.19549  -1844608.22045  23842068.270    23842078.401
       216.000         157.000
  22958206.674     9362438.40349   7311247.99646  22958206.804    22958214.634
       224.000         171.000
  21058079.548   -12023288.44849  -9353067.75947  21058079.965    21058085.564
       243.000         206.000
 03  4 15 19 23 30.0000000  0  8G 6G10G17G21G29G26G 5G30
  20784854.273   -23494942.78649 -18295411.17047  20784853.975    20784859.230
       243.000         211.000
  21590858.031   -12351821.27649  -9608798.44047  21590857.540    21590863.593
       238.000         198.000
  22204959.302   -15829944.02149 -12321405.43847  22204958.857    22204965.315
       234.000         191.000
  22454484.887   -18931134.99349 -14728958.67546  22454484.784    22454489.129
       232.000         181.000
  23696189.512    -1815778.70049  -1406135.47145  23696189.379    23696196.759
       212.000         148.000
  23825342.864    -2467787.88549  -1913098.05845  23825342.549    23825352.324
       215.000         158.000
  22977355.747     9463066.40849   7389659.27946  22977355.927    22977363.007
       223.000         170.000
  21070149.538   -11959860.46249  -9303643.41147  21070149.699    21070155.544
       242.000         206.000
 03  4 15 19 24  0.0000000  0 10G 6G10G17G21G18G29G26G 5G23G30
  20776846.448   -23537023.80849 -18328201.57447  20776846.339    20776851.523
       243.000         211.000
  21603744.511   -12284102.38149  -9556030.49147  21603743.879    21603750.011
       238.000         197.000
  22195931.566   -15877385.06749 -12358372.44847  22195931.027    22195937.462
       235.000         191.000
  22443665.658   -18987989.85149 -14773261.12046  22443665.094    22443669.701
       231.000         181.000
  24755870.104     -588829.35749   -439305.17645  24755869.318    24755882.718
       207.000         134.000
  23684883.939    -1875189.91049  -1452429.79445  23684883.336    23684890.615
       214.000         152.000
  23808628.423    -2555621.63649  -1981539.62745  23808627.320    23808637.761
       212.000         157.000
  22996532.401     9563839.98249   7468184.01446  22996532.362    22996540.637
       222.000         170.000
  24483092.809    -1924548.28149  -1489741.09745  24483091.728    24483103.763
       207.000         136.000
  21082304.898   -11895983.77249  -9253869.42547  21082305.504    21082310.911
       243.000         206.000
 03  4 15 19 24 30.0000000  0 10G 6G10G17G21G18G29G26G 5G23G30
  20768887.158   -23578849.96049 -18360793.37647  20768886.999    20768892.478
       244.000         211.000
  21616716.857   -12215932.59549  -9502911.18747  21616716.439    21616722.487
       240.000         197.000
  22186939.889   -15924637.43349 -12395192.44547  22186939.381    22186945.912
       237.000         192.000
  22432882.006   -19044658.38749 -14817418.38946  22432881.469    22432886.620
       234.000         182.000
  24734924.597     -698896.51049   -525071.39745  24734923.719    24734936.540
       206.000         134.000
  23673624.484    -1934357.57949  -1498534.33045  23673623.761    23673631.405
       216.000         153.000
  23791927.117    -2643386.77449  -2049927.74045  23791926.152    23791936.788
       214.000         156.000
  23015736.914     9664759.73849   7546822.62646  23015736.377    23015745.694
       223.000         169.000
  24462690.039    -2031764.61549  -1573285.85045  24462688.663    24462702.535
       205.000         136.000
  21094545.892   -11831657.15949  -9203744.84347  21094546.240    21094551.740
       243.000         205.000
 03  4 15 19 25  0.0000000  0 10G 6G10G17G21G18G29G26G 5G23G30
  20760978.927   -23620408.32149 -18393176.51947  20760978.564    20760984.224
       243.000         211.000
  21629776.670   -12147303.37549  -9449433.90247  21629775.848    21629782.315
       238.000         197.000
  22177986.190   -15971690.03749 -12431856.79147  22177985.870    22177991.709
       235.000         192.000
  22422135.989   -19101129.39849 -14861421.73846  22422135.079    22422140.614
       231.000         182.000
  24713991.323     -808900.17849   -610788.16645  24713990.500    24714003.547
       207.000         134.000
  23662414.180    -1993267.56449  -1544438.10145  23662413.772    23662420.986
       215.000         156.000
  23775241.580    -2731068.55449  -2118250.91645  23775241.053    23775251.421
       211.000         154.000
  23034970.893     9765834.07649   7625581.70646  23034970.402    23034978.681
       222.000         169.000
  24442308.306    -2138870.29649  -1656744.38945  24442306.283    24442320.717
       206.000         136.000
  21106874.065   -11766871.85549  -9153262.84847  21106874.215    21106880.299
       242.000         205.000
 03  4 15 19 25 30.0000000  0 10G 6G10G17G21G18G29G26G 5G23G30
  20753121.205   -23661700.79049 -18425352.47347  20753120.973    20753126.712
       244.000         212.000
  21642922.570   -12078221.19649  -9395603.65047  21642921.597    21642928.048
       237.000         196.000
  22169069.503   -16018547.38349 -12468368.98047  22169068.483    22169075.205
       235.000         193.000
  22411426.641   -19157406.64649 -14905274.09946  22411425.803    22411430.504
       232.000         182.000
  24693070.018     -918841.32549   -696456.22245  24693069.484    24693081.782
       207.000         135.000
  23651252.553    -2051920.77849  -1590141.77445  23651251.569    23651260.434
       216.000         158.000
  23758571.916    -2818667.26949  -2186509.35445  23758571.813    23758581.587
       209.000         152.000
  23054233.027     9867056.71049   7704456.34346  23054232.547    23054241.321
       223.000         169.000
  24421947.161    -2245866.66049  -1740117.74245  24421945.219    24421960.217
       207.000         137.000
  21119288.455   -11701633.85349  -9102428.09347  21119288.980    21119294.691
       242.000         205.000
 03  4 15 19 26  0.0000000  0 10G 6G10G17G21G18G29G26G 5G23G30
  20745313.883   -23702728.76049 -18457322.32247  20745313.628    20745319.289
       244.000         212.000
  21656153.636   -12008691.50049  -9341424.69447  21656153.147    21656158.992
       237.000         196.000
  22160189.263   -16065212.75049 -12504731.58347  22160188.241    22160194.785
       234.000         192.000
  22400753.638   -19213493.54849 -14948978.14546  22400752.861    22400757.732
       231.000         182.000
  24672160.437    -1028720.86249   -782076.27145  24672160.069    24672170.891
       205.000         135.000
  23640139.967    -2110317.28549  -1635645.41745  23640140.361    23640147.566
       218.000         160.000
  23741918.114    -2906182.55349  -2254702.80545  23741917.772    23741927.448
       211.000         151.000
  23073522.206     9968421.81449   7783441.99146  23073522.543    23073531.231
       220.000         168.000
  24401606.619    -2352754.38749  -1823406.48445  24401604.601    24401619.372
       207.000         137.000
  21131787.969   -11635948.70049  -9051244.90847  21131788.377    21131794.309
       242.000         205.000
 03  4 15 19 26 30.0000000  0 10G 6G10G17G21G18G29G26G 5G23G30
  20737557.485   -23743488.92649 -18489083.49247  20737557.218    20737562.870
       244.000         212.000
  21669469.684   -11938715.66049  -9286898.09447  21669468.969    21669475.187
       237.000         196.000
  22151345.829   -16111685.10749 -12540943.77647  22151344.243    22151351.264
       234.000         192.000
  22390116.993   -19269389.02349 -14992533.02246  22390115.745    22390121.382
       232.000         183.000
  24651263.191    -1138535.26949   -867645.61245  24651263.545    24651274.493
       205.000         135.000
  23629077.183    -2168452.85649  -1680945.75546  23629076.940    23629084.513
       218.000         163.000
  23725281.119    -2993609.59049  -2322827.52345  23725279.920    23725290.148
       211.000         149.000
  23092838.165    10069928.02649   7862537.57146  23092837.601    23092846.406
       221.000         166.000
  24381287.465    -2459529.67149  -1906607.59745  24381285.777    24381299.806
       205.000         137.000
  21144372.420   -11569817.37849  -8999714.06247  21144372.705    21144378.366
       243.000         205.000
 03  4 15 19 27  0.0000000  0 10G 6G10G17G21G18G29G26G 5G23G30
  20729852.419   -23783979.30149 -18520634.44047  20729852.372    20729857.686
       243.000         212.000
  21682870.045   -11868295.98749  -9232025.64947  21682869.062    21682875.676
       236.000         196.000
  22142539.063   -16157964.44649 -12577005.57347  22142538.500    22142544.748
       235.000         192.000
  22379516.837   -19325092.94649 -15035938.63846  22379516.793    22379521.352
       231.000         183.000
  24630379.035    -1248281.97249   -953162.14145  24630378.564    24630390.621
       205.000         136.000
  23618064.390    -2226324.37449  -1726040.33046  23618063.285    23618072.108
       218.000         163.000
  23708661.508    -3080944.78649  -2390880.67745  23708660.896    23708669.828
       209.000         148.000
  23112180.472    10171572.86849   7941741.19546  23112179.791    23112189.189
       220.000         166.000
  24360990.278    -2566189.98549  -1989719.12945  24360988.688    24361002.574
       205.000         138.000
  21157041.310   -11503242.10749  -8947837.27947  21157041.485    21157047.385
       241.000         204.000
